[[[{"header":{"parameterUnit":"kt","parameterCategory":2,"dx":1,"dy":1,"la1":29.764190673828125,"la2":30.86408042907715,"lo1":-88.46762084960938,"lo2":-86.9344482421875,"nx":47,"ny":34,"refTime":"2022-10-01T00:00:00:Z","depth":"0","parameterNumber":2,"parameterNumberName":"U-component_of_CURRENTS"},"data":[-0.0363,-0.0128,0.0144,0.0416,0.0593,0.0598,0.0513,0.0464,0.0502,0.0619,0.0731,0.078,0.0796,0.0886,0.1111,0.134,0.1458,0.1527,0.1655,0.1922,0.228,0.2696,0.3118,0.3428,0.3583,0.3577,0.3332,0.307,0.3134,0.3428,0.3919,0.4661,0.5569,0.5958,0.6332,0.725,0.8147,0.8954,0.9632,1.0011,0.9899,0.9568,0.9477,0.9776,1.007,0.992,0.9423,-0.0363,-0.0166,0.0021,0.0214,0.0374,0.0464,0.0518,0.0593,0.0731,0.0913,0.1052,0.1111,0.1095,0.1089,0.1185,0.1356,0.1495,0.158,0.1703,0.1922,0.2173,0.2424,0.2675,0.2904,0.2958,0.2915,0.2755,0.2435,0.2322,0.2659,0.3401,0.4277,0.5232,0.5681,0.5793,0.6455,0.7373,0.827,0.9055,0.9525,0.9472,0.9157,0.9076,0.9386,0.9712,0.9674,0.9359,-0.032,-0.0214,-0.0043,0.0133,0.0299,0.0443,0.0566,0.0726,0.0924,0.1127,0.1292,0.1372,0.1351,0.1287,0.1287,0.1372,0.1468,0.1575,0.1703,0.1858,0.2018,0.2152,0.2274,0.2413,0.2488,0.2472,0.2477,0.2371,0.2328,0.2654,0.3139,0.339,0.3534,0.3908,0.4255,0.4949,0.6193,0.7437,0.8452,0.9044,0.913,0.8922,0.8842,0.9082,0.9375,0.9418,0.9226,-0.0224,-0.0155,-0.0048,0.0096,0.0294,0.0502,0.0715,0.0929,0.1153,0.1356,0.15,0.1543,0.1495,0.142,0.1393,0.1426,0.149,0.1612,0.1746,0.1853,0.1954,0.2066,0.2173,0.2301,0.2387,0.2429,0.2584,0.268,0.2696,0.2856,0.2862,0.2467,0.1997,0.1975,0.2525,0.3385,0.4656,0.6284,0.772,0.8553,0.8788,0.874,0.8708,0.8879,0.9135,0.9226,0.9119,-0.0117,-0.0069,0.0053,0.023,0.0432,0.0657,0.0902,0.1132,0.134,0.1474,0.1511,0.149,0.1442,0.142,0.1458,0.1522,0.1591,0.1703,0.181,0.1869,0.1895,0.1917,0.1991,0.2157,0.2339,0.2461,0.2691,0.2969,0.3054,0.3075,0.2969,0.2531,0.1997,0.1538,0.1393,0.2098,0.3385,0.4987,0.6738,0.7902,0.8361,0.8527,0.8617,0.8772,0.8991,0.9098,0.906,-0.0005,0.0085,0.0224,0.0395,0.0582,0.0785,0.0988,0.1159,0.126,0.1271,0.1223,0.1196,0.1244,0.1361,0.15,0.1607,0.1692,0.1783,0.1842,0.1853,0.1799,0.173,0.1783,0.1975,0.2258,0.2504,0.2675,0.2963,0.3278,0.3342,0.3155,0.2894,0.2493,0.1911,0.1468,0.1596,0.2552,0.4132,0.5878,0.7186,0.7886,0.8286,0.8575,0.8804,0.8975,0.9055,0.9044,0.0027,0.0144,0.0288,0.0438,0.0587,0.0726,0.0849,0.094,0.0966,0.0934,0.0918,0.0977,0.1121,0.1292,0.1442,0.1564,0.1676,0.1767,0.1799,0.1767,0.1698,0.1634,0.166,0.1826,0.2109,0.2419,0.2627,0.2766,0.3001,0.3278,0.3385,0.3235,0.284,0.228,0.1799,0.1586,0.1943,0.3091,0.4698,0.6199,0.7213,0.7929,0.8543,0.8916,0.9087,0.9157,0.9141,-0.008,0.0043,0.0187,0.0331,0.0459,0.0561,0.0646,0.0699,0.0715,0.0721,0.078,0.0897,0.1052,0.118,0.1303,0.1447,0.1586,0.1687,0.1687,0.1618,0.1554,0.1511,0.1559,0.1735,0.1975,0.2237,0.2461,0.2595,0.2707,0.2824,0.2953,0.3059,0.3054,0.2819,0.2296,0.1778,0.1602,0.2045,0.3198,0.4618,0.5916,0.7085,0.8153,0.8911,0.929,0.9365,0.9322,-0.0117,0.0005,0.0155,0.0294,0.0395,0.0464,0.0491,0.0513,0.0545,0.0614,0.0747,0.0918,0.1068,0.1185,0.1303,0.1431,0.1516,0.1532,0.1484,0.142,0.1372,0.1372,0.1452,0.1623,0.1837,0.2056,0.2253,0.2408,0.252,0.2595,0.2648,0.2675,0.268,0.267,0.2611,0.2317,0.1837,0.1607,0.2066,0.3177,0.449,0.574,0.709,0.8308,0.9044,0.9402,0.9493,-0.0053,0.0043,0.0182,0.032,0.0406,0.0406,0.0368,0.0368,0.0438,0.0587,0.0801,0.1009,0.1175,0.1276,0.1345,0.1372,0.1345,0.1287,0.1244,0.1239,0.1228,0.1239,0.1319,0.1474,0.1666,0.1847,0.2013,0.2173,0.2312,0.2419,0.2467,0.2461,0.2408,0.236,0.2349,0.2445,0.2371,0.1981,0.1853,0.2344,0.3219,0.4378,0.5846,0.7181,0.8089,0.8756,0.9178,-0.0032,-0.0043,0.0075,0.0272,0.039,0.0363,0.0251,0.0256,0.0422,0.0667,0.0886,0.1036,0.1105,0.1068,0.1068,0.11,0.1078,0.1036,0.102,0.1046,0.1078,0.1111,0.1185,0.1303,0.1442,0.1596,0.1757,0.1911,0.205,0.2162,0.2226,0.2253,0.228,0.2317,0.2376,0.2376,0.2488,0.2451,0.2141,0.2157,0.2584,0.3273,0.4261,0.5574,0.6738,0.7485,0.8078,-0.0027,-0.0182,-0.0166,-0.0011,0.0128,0.0096,-0.0214,-0.0224,0.0166,0.0497,0.0507,0.0609,0.0427,0.0278,0.0619,0.0753,0.0753,0.0758,0.0785,0.0833,0.0892,0.0961,0.1052,0.1153,0.1233,0.1329,0.1452,0.1586,0.1703,0.1831,0.1954,0.2077,0.2194,0.2296,0.2365,0.2419,0.2408,0.2477,0.2424,0.2221,0.2248,0.2531,0.3033,0.3753,0.472,0.5793,0.6642,-0.0358,-0.0374,-0.0491,-0.0502,-0.0262,-0.0299,-0.1041,-0.0934,-0.0182,0.0037,-0.0005,0.0384,-0.0262,-0.0507,0.0475,0.0545,0.0432,0.0448,0.0555,0.0673,0.079,0.0876,0.0908,0.0918,0.0956,0.1009,0.1078,0.1196,0.1351,0.1522,0.1714,0.1906,0.2066,0.2168,0.2232,0.228,0.2296,0.236,0.2477,0.2456,0.2322,0.2328,0.2467,0.2728,0.3187,0.3855,0.4725,0,0,-0.0336,-0.0993,-0.0561,-0.0614,-0.1725,-0.1009,0.0059,0.0053,0.0192,0.0368,0,-0.063,-0.0481,0.0005,-0.0117,0.0214,0.0459,0.0577,0.0667,0.0876,0.0961,0.086,0.0844,0.0865,0.0897,0.0945,0.102,0.1153,0.1372,0.1596,0.1789,0.1938,0.2024,0.2066,0.2088,0.2146,0.2355,0.2589,0.2686,0.2707,0.2707,0.2707,0.2739,0.2936,0.3438,0.0545,0.063,0.0112,-0.1127,-0.1901,0,0,0.0171,0.0187,-0.0331,-0.039,0.1009,0.1271,0.0448,0,0,0,0,0,0,0,0,0.0278,0.0683,0.0796,0.0737,0.0763,0.0934,0.1025,0.1057,0.1217,0.1431,0.1623,0.1719,0.1725,0.1687,0.1692,0.1837,0.2082,0.2403,0.2792,0.3171,0.3438,0.3518,0.339,0.3166,0.3134,0.1436,0.1046,0.0208,-0.1458,-0.2536,-0.1538,-0.0101,0.0459,0.0689,0,0,0,-0.0299,0.0705,0.1692,0.1281,0.103,0.0737,0.0486,0.0278,0.0192,0,0,0,0,0,0,0,0.0085,0.047,0.0988,0.1377,0.1778,0.181,0.1484,0.1313,0.1329,0.166,0.213,0.2419,0.2638,0.2878,0.3097,0.3246,0.3428,0.3534,0.3438,0.1628,0.157,0.0715,-0.0587,-0.141,-0.0849,-0.0411,-0.032,0.0844,0.1575,0.1265,-0.0155,-0.1303,-0.0833,-0.0198,0.0299,0.0683,0.0625,0.0336,0.0096,0.0021,0,0,0,0,0,0,0,0,0,0,0,0,0.0481,0.1148,0.1185,0.0854,0.1185,0.2104,0.2557,0.2648,0.2723,0.2771,0.2814,0.2899,0.3091,0.339,0,0.0208,0.0828,0.0411,-0.0913,-0.1415,0,0,0,0,0,-0.103,-0.1997,-0.1586,-0.1004,-0.0593,-0.0101,0.0128,0.0069,0.0107,0,0,0,0,0,0,0,0,0,0,0,0,0,0,0,0,0.0272,0.0144,0,0,0.1869,0.2269,0.2408,0.2483,0.2579,0.2819,0.2851,0,0,0,0.0123,0.0208,0.0182,0,0,0,0,0,-0.0721,-0.1447,-0.1452,-0.1329,-0.11,-0.0294,-0.0395,-0.0662,0,0,0,0,0,0,0,0,0,0,0,0,0,0,0,0,0,0,-0.0379,-0.0459,0,0,0,0,0,0,0,0.0593,0,0,0,0,0,0,0,0,0,0,0,-0.063,-0.1153,-0.11,-0.1143,-0.103,0.0256,0.1436,0,0,0,0,0,0,0,0,0,0,0,0,0,0,0,0,0,0,0,0,-0.0352,-0.0769,0.0027,0.0881,0,0,0,0,0,0,0,0,0,0,0,0,0,0,0,0,-0.0694,-0.0966,-0.0769,-0.103,-0.0801,-0.0539,0,0,0,0,0,0,0,0,0,0,0,0,0,0,0,0,0,0,0,0,0,0,-0.1009,-0.2152,-0.252,-0.0646,0.1127,0.0785,0,0,0,0,0,0,0,0,0,0,0,0,0,0,-0.071,-0.1351,-0.1436,-0.0785,-0.0411,0,0,0,0,0,0,0,0,0,0,0,0,0,0,0,0,0,0,0,0,0,0,0,0,0,0,-0.0043,-0.0085,0,0,0,0,0,0,0,0,0,0,0,0,0,0,-0.055,-0.1458,-0.1527,-0.0929,-0.0619,0,0,0,0,0,0,0,0,0,0,0,0,0,0,0,0,0,0,0,0,0,0,0,0,0,0,0,0,0,0,0,0,0,0,0,0,0,0,0,0,0,0,-0.0662,-0.1484,-0.1548,-0.1303,-0.1148,0,0,0,0,0,0,0,0,0,0,0,0,0,0,0,0,0,0,0,0,0,0,0,0,0,0,0,0,0,0,0,0,0,0,0,0,0,0,0,0,0,0,-0.0849,-0.1692,-0.1436,-0.1116,-0.103,0,0,0,0,0,0,0,0,0,0,0,0,0,0,0,0,0,0,0,0,0,0,0,0,0,0,0,0,0,0,0,0,0,0,0,0,0,0,0,0,0,0,0,-0.0849,-0.0817,-0.0037,-0.0149,0,0,0,0,0,0,0,0,0,0,0,0,0,0,0,0,0,0,0,0,0,0,0,0,0,0,0,0,0,0,0,0,0,0,0,0,0,0,0,0,0,0,0,-0.0571,0.0961,0.2397,0.1735,0,0,0,0,0,0,0,0,0,0,0,0,0,0,0,0,0,0,0,0,0,0,0,0,0,0,0,0,0,0,0,0,0,0,0,0,0,0,0,0,0,0,0,0,0.0304,0.0609,0,0,0,0,0,0,0,0,0,0,0,0,0,0,0,0,0,0,0,0,0,0,0,0,0,0,0,0,0,0,0,0,0,0,0,0,0,0,0,0,0,0,0,0,0,0,0,0,0,0,0,0,0,0,0,0,0,0,0,0,0,0,0,0,0,0,0,0,0,0,0,0,0,0,0,0,0,0,0,0,0,0,0,0,0,0,0,0,0,0,0,0,0,0,0,0,0,0,0,0,0,0,0,0,0,0,0,0,0,0,0,0,0,0,0,0,0,0,0,0,0,0,0,0,0,0,0,0,0,0,0,0,0,0,0,0,0,0,0,0,0,0,0,0,0,0,0,0,0,0,0,0,0,0,0,0,0,0,0,0,0,0,0,0,0,0,0,0,0,0,0,0,0,0,0,0,0,0,0,0,0,0,0,0,0,0,0,0,0,0,0,0,0,0,0,0,0,0,0,0,0,0,0,0,0,0,0,0,0,0,0,0,0,0,0,0,0,0,0,0,0,0,0,0,0,0,0,0,0,0,0,0,0,0,0,0,0,0,0,0,0,0,0,0,0,0,0,0,0,0,0,0,0,0,0,0,0,0,0,0,0,0,0,0,0,0,0,0,0,0,0,0,0,0,0,0,0,0,0,0,0,0,0,0,0,0,0,0,0,0,0,0,0,0,0,0,0,0,0,0,0,0,0,0,0,0,0,0,0,0,0,0,0]}],[{"header":{"parameterUnit":"kt","parameterCategory":2,"dx":1,"dy":1,"la1":29.764190673828125,"la2":30.86408042907715,"lo1":-88.46762084960938,"lo2":-86.9344482421875,"nx":47,"ny":34,"refTime":"2022-10-01T00:00:00:Z","depth":"0","parameterNumber":3,"parameterNumberName":"V-component_of_CURRENTS"},"data":[-0.0101,0.0021,0.0096,0.0171,0.0288,0.0411,0.0427,0.0363,0.0208,-0.0005,-0.0166,-0.023,-0.0219,-0.0246,-0.0358,-0.0454,-0.0448,-0.0267,0.0027,0.0374,0.0619,0.0683,0.0545,0.0379,0.0288,0.0262,0.0352,0.0742,0.1164,0.1185,0.0715,0.0203,-0.0011,0.0892,0.2509,0.3647,0.3812,0.323,0.2344,0.1618,0.1676,0.2493,0.3396,0.3951,0.4293,0.4821,0.5622,-0.0021,0.0,-0.0048,0.0005,0.016,0.0251,0.0246,0.0149,0.0,-0.0139,-0.0219,-0.024,-0.0208,-0.016,-0.0203,-0.0342,-0.0454,-0.0395,-0.0192,0.0075,0.0283,0.0486,0.0566,0.0598,0.0646,0.0651,0.0497,0.0539,0.079,0.0774,0.0331,0.0037,0.0101,0.0422,0.221,0.3956,0.4666,0.4319,0.3481,0.267,0.2557,0.3214,0.3978,0.4431,0.4682,0.5099,0.5702,0.0112,0.0144,0.0107,0.0064,0.0059,0.0064,0.0048,-0.0027,-0.0133,-0.0214,-0.0251,-0.0262,-0.0246,-0.0219,-0.024,-0.0326,-0.0422,-0.0422,-0.0272,-0.0085,0.0096,0.0331,0.0609,0.0806,0.0881,0.0902,0.0785,0.0593,0.0609,0.0475,-0.0299,-0.0929,-0.0988,-0.0961,0.0294,0.2904,0.4837,0.527,0.4693,0.3849,0.3422,0.3748,0.4346,0.4709,0.4864,0.5163,0.5606,0.0112,0.0246,0.0267,0.0246,0.0198,0.0133,0.0064,-0.0011,-0.0107,-0.0187,-0.0246,-0.0267,-0.0272,-0.0299,-0.0352,-0.0416,-0.0459,-0.0438,-0.0315,-0.0133,0.0048,0.0246,0.0513,0.0753,0.087,0.0929,0.0902,0.0657,0.0539,0.0315,-0.0481,-0.1442,-0.1885,-0.1943,-0.2007,-0.0315,0.2766,0.4997,0.5478,0.496,0.4309,0.4218,0.4576,0.4896,0.5029,0.5227,0.5547,-0.0032,0.0187,0.0294,0.0347,0.0347,0.0299,0.0214,0.0112,-0.0011,-0.0155,-0.0272,-0.0342,-0.0368,-0.0406,-0.0459,-0.0486,-0.0486,-0.0432,-0.0331,-0.0176,0.0011,0.0214,0.0438,0.0667,0.079,0.086,0.0886,0.0667,0.0411,0.0192,-0.032,-0.1041,-0.1463,-0.1548,-0.1901,-0.2184,-0.0683,0.2365,0.4549,0.5238,0.5045,0.4773,0.4816,0.5051,0.5227,0.5403,0.5643,-0.0208,0.0011,0.0166,0.0256,0.0283,0.0256,0.0166,0.0043,-0.0107,-0.0288,-0.0432,-0.0497,-0.0507,-0.0518,-0.0529,-0.0507,-0.047,-0.0422,-0.0331,-0.0203,-0.0037,0.0187,0.0438,0.0673,0.0785,0.0796,0.0833,0.0715,0.0352,0.0,-0.0406,-0.0758,-0.0972,-0.1062,-0.0865,-0.1105,-0.1495,-0.024,0.205,0.3972,0.5008,0.5179,0.5099,0.5147,0.5275,0.5467,0.5686,-0.0438,-0.0299,-0.0166,-0.0075,-0.0027,-0.0037,-0.0117,-0.0235,-0.0347,-0.0475,-0.0545,-0.055,-0.0534,-0.0539,-0.0545,-0.0502,-0.0459,-0.0416,-0.032,-0.0198,-0.0059,0.0171,0.0443,0.0699,0.086,0.0849,0.0817,0.079,0.0534,0.0112,-0.039,-0.079,-0.1068,-0.1116,-0.0854,-0.0459,-0.0395,-0.0502,0.0363,0.2114,0.3972,0.5024,0.5243,0.5147,0.5109,0.5227,0.5398,-0.0822,-0.0747,-0.0657,-0.0545,-0.0459,-0.0422,-0.0448,-0.0507,-0.0545,-0.0582,-0.0571,-0.0534,-0.0507,-0.0518,-0.0529,-0.0486,-0.0464,-0.0438,-0.0363,-0.024,-0.0085,0.0107,0.0358,0.0619,0.0838,0.0929,0.0918,0.0886,0.0774,0.0502,0.0059,-0.04,-0.0785,-0.1046,-0.11,-0.0828,-0.0299,-0.0107,0.0027,0.0945,0.2627,0.4266,0.4992,0.5083,0.4939,0.4848,0.4891,-0.1116,-0.1068,-0.1004,-0.087,-0.0731,-0.063,-0.0598,-0.0619,-0.063,-0.063,-0.0582,-0.0513,-0.0443,-0.0406,-0.0395,-0.0379,-0.0422,-0.0464,-0.0438,-0.0342,-0.0192,-0.0032,0.0166,0.0384,0.0625,0.0828,0.0956,0.0988,0.094,0.0763,0.0502,0.0176,-0.0155,-0.0454,-0.0683,-0.0796,-0.055,-0.0144,0.0,0.0363,0.1458,0.2979,0.4095,0.4613,0.4698,0.456,0.4496,-0.1148,-0.1137,-0.1111,-0.0982,-0.0817,-0.0662,-0.0582,-0.0582,-0.0587,-0.0577,-0.0513,-0.04,-0.0256,-0.016,-0.0139,-0.0176,-0.0299,-0.0432,-0.0464,-0.0411,-0.0294,-0.0176,-0.0064,0.0069,0.0262,0.0513,0.0753,0.0924,0.0972,0.086,0.0657,0.039,0.0149,-0.0027,-0.0139,-0.0262,-0.0342,-0.0112,0.0144,0.0224,0.0705,0.1703,0.2728,0.3321,0.3796,0.3999,0.3999,-0.1073,-0.1116,-0.1212,-0.11,-0.0924,-0.071,-0.0587,-0.0587,-0.0555,-0.0513,-0.0518,-0.055,-0.0358,-0.0342,-0.016,-0.0048,-0.0171,-0.0358,-0.0448,-0.0438,-0.0363,-0.0288,-0.0235,-0.0187,-0.008,0.0128,0.0384,0.0635,0.0796,0.0774,0.0625,0.0395,0.0198,0.0053,-0.0021,0.0032,0.0096,0.0117,0.0326,0.0384,0.0491,0.0918,0.1511,0.1986,0.236,0.267,0.2947,-0.095,-0.1148,-0.1452,-0.1474,-0.1329,-0.0897,-0.0742,-0.0982,-0.0849,-0.0694,-0.0747,-0.1009,-0.0945,-0.1169,-0.0747,-0.0198,-0.0112,-0.031,-0.0454,-0.047,-0.04,-0.031,-0.0272,-0.0288,-0.0278,-0.0171,0.0021,0.024,0.0443,0.0518,0.0448,0.0288,0.0117,-0.0027,-0.0133,-0.0144,0.0096,0.0251,0.0272,0.0347,0.0395,0.0443,0.0646,0.0988,0.1223,0.1388,0.1548,-0.087,-0.1185,-0.158,-0.205,-0.2152,-0.1324,-0.1052,-0.1762,-0.1442,-0.0908,-0.0699,-0.0507,-0.1319,-0.1073,-0.1116,-0.055,-0.024,-0.0358,-0.0523,-0.0561,-0.0513,-0.0464,-0.0368,-0.0374,-0.0416,-0.0379,-0.024,-0.0048,0.0123,0.0224,0.0192,0.0085,-0.0069,-0.0235,-0.0374,-0.0427,-0.0288,0.0059,0.0101,0.0075,0.0091,0.0059,0.0064,0.0171,0.0416,0.0662,0.0731,0,0,-0.1458,-0.2424,-0.2814,-0.1607,-0.1233,-0.2088,-0.1468,-0.0689,-0.0288,0.0806,0,0.102,-0.1057,-0.0731,-0.0368,-0.0416,-0.0582,-0.0635,-0.0603,-0.0635,-0.0262,-0.039,-0.0529,-0.0598,-0.0534,-0.0438,-0.0246,-0.0149,-0.0117,-0.0166,-0.023,-0.0358,-0.0502,-0.0577,-0.0502,-0.023,-0.0037,-0.0091,-0.0224,-0.0374,-0.0464,-0.0491,-0.0368,0.0,0.0288,-0.0619,-0.0475,-0.1431,-0.2429,-0.2766,0,0,-0.2376,-0.0929,-0.0438,-0.0096,0.1388,0.0443,0.3011,0,0,0,0,0,0,0,0,-0.0043,-0.0336,-0.0571,-0.0726,-0.0731,-0.0747,-0.0117,-0.0379,-0.0432,-0.0411,-0.0432,-0.0395,-0.0481,-0.0609,-0.0582,-0.0368,-0.0053,0.0043,-0.008,-0.0331,-0.0598,-0.0769,-0.0774,-0.0507,-0.0224,-0.126,-0.1046,-0.1538,-0.189,-0.1746,-0.134,-0.1377,-0.1965,0.0155,0,0,0,0.0678,0.2013,-0.0427,-0.032,-0.0272,-0.0278,-0.0352,-0.0379,-0.0101,0,0,0,0,0,0,0,0.008,-0.0587,-0.0566,-0.0518,-0.0593,-0.0123,-0.0427,-0.0619,-0.0726,-0.0742,-0.0427,-0.0149,-0.0053,-0.0128,-0.0299,-0.0432,-0.0475,-0.0502,-0.0427,-0.1281,-0.0614,-0.1329,-0.149,-0.1159,-0.2621,-0.276,-0.1185,0.0961,0.0,0.0,0.0475,0.0587,0.0219,-0.102,-0.1095,-0.0785,-0.0422,-0.0561,-0.0577,-0.0203,0,0,0,0,0,0,0,0,0,0,0,0,0.0192,-0.0374,-0.0416,-0.0902,-0.1239,-0.0849,0.0235,0.0075,-0.0021,-0.0059,-0.0069,-0.0069,-0.0144,-0.0123,0,-0.0085,-0.1084,-0.0929,-0.1014,-0.1917,0,0,0,0,0,0.1249,0.0812,0.0336,-0.1127,-0.2018,-0.2056,-0.0555,-0.0545,-0.0326,0,0,0,0,0,0,0,0,0,0,0,0,0,0,0,0,-0.0993,-0.126,0,0,0.0422,0.0155,0.0059,0.0043,0.0021,0.0059,0.0144,0,0,0,-0.0315,-0.0657,-0.1281,0,0,0,0,0,0.1175,0.1068,0.0854,-0.0694,-0.2349,-0.3556,-0.1442,-0.0673,0,0,0,0,0,0,0,0,0,0,0,0,0,0,0,0,0,0,-0.1111,-0.079,0,0,0,0,0,0,0,0.0096,0,0,0,0,0,0,0,0,0,0,0,0.0427,0.086,0.118,0.0011,-0.1719,-0.3775,-0.2061,0,0,0,0,0,0,0,0,0,0,0,0,0,0,0,0,0,0,0,0,-0.1586,-0.0993,-0.1255,-0.0796,0,0,0,0,0,0,0,0,0,0,0,0,0,0,0,0,0.0011,-0.0368,0.1351,0.0352,-0.1212,-0.2979,0,0,0,0,0,0,0,0,0,0,0,0,0,0,0,0,0,0,0,0,0,0,-0.1991,-0.2509,-0.1586,0.0,-0.04,-0.0112,0,0,0,0,0,0,0,0,0,0,0,0,0,0,-0.126,0.1052,0.024,-0.1276,-0.2349,0,0,0,0,0,0,0,0,0,0,0,0,0,0,0,0,0,0,0,0,0,0,0,0,0,0,-0.0806,-0.0224,0,0,0,0,0,0,0,0,0,0,0,0,0,0,-0.1127,0.0454,-0.0027,-0.141,-0.236,0,0,0,0,0,0,0,0,0,0,0,0,0,0,0,0,0,0,0,0,0,0,0,0,0,0,0,0,0,0,0,0,0,0,0,0,0,0,0,0,0,0,-0.1014,-0.0214,-0.0619,-0.166,-0.2675,0,0,0,0,0,0,0,0,0,0,0,0,0,0,0,0,0,0,0,0,0,0,0,0,0,0,0,0,0,0,0,0,0,0,0,0,0,0,0,0,0,0,-0.1052,-0.0908,-0.1628,-0.2285,-0.284,0,0,0,0,0,0,0,0,0,0,0,0,0,0,0,0,0,0,0,0,0,0,0,0,0,0,0,0,0,0,0,0,0,0,0,0,0,0,0,0,0,0,0,-0.0998,-0.2867,-0.299,-0.2728,0,0,0,0,0,0,0,0,0,0,0,0,0,0,0,0,0,0,0,0,0,0,0,0,0,0,0,0,0,0,0,0,0,0,0,0,0,0,0,0,0,0,0,-0.0694,-0.1874,-0.1917,-0.2654,0,0,0,0,0,0,0,0,0,0,0,0,0,0,0,0,0,0,0,0,0,0,0,0,0,0,0,0,0,0,0,0,0,0,0,0,0,0,0,0,0,0,0,0,-0.0203,-0.0571,0,0,0,0,0,0,0,0,0,0,0,0,0,0,0,0,0,0,0,0,0,0,0,0,0,0,0,0,0,0,0,0,0,0,0,0,0,0,0,0,0,0,0,0,0,0,0,0,0,0,0,0,0,0,0,0,0,0,0,0,0,0,0,0,0,0,0,0,0,0,0,0,0,0,0,0,0,0,0,0,0,0,0,0,0,0,0,0,0,0,0,0,0,0,0,0,0,0,0,0,0,0,0,0,0,0,0,0,0,0,0,0,0,0,0,0,0,0,0,0,0,0,0,0,0,0,0,0,0,0,0,0,0,0,0,0,0,0,0,0,0,0,0,0,0,0,0,0,0,0,0,0,0,0,0,0,0,0,0,0,0,0,0,0,0,0,0,0,0,0,0,0,0,0,0,0,0,0,0,0,0,0,0,0,0,0,0,0,0,0,0,0,0,0,0,0,0,0,0,0,0,0,0,0,0,0,0,0,0,0,0,0,0,0,0,0,0,0,0,0,0,0,0,0,0,0,0,0,0,0,0,0,0,0,0,0,0,0,0,0,0,0,0,0,0,0,0,0,0,0,0,0,0,0,0,0,0,0,0,0,0,0,0,0,0,0,0,0,0,0,0,0,0,0,0,0,0,0,0,0,0,0,0,0,0,0,0,0,0,0,0,0,0,0,0,0,0,0,0,0,0,0,0,0,0,0,0,0,0,0,0,0,0]}]],[[{"header":{"parameterUnit":"kt","parameterCategory":2,"dx":1,"dy":1,"la1":29.764190673828125,"la2":30.86408042907715,"lo1":-88.46762084960938,"lo2":-86.9344482421875,"nx":47,"ny":34,"refTime":"2022-10-01T00:00:00:Z","depth":"2","parameterNumber":2,"parameterNumberName":"U-component_of_CURRENTS"},"data":[-0.0326,-0.0091,0.0182,0.0459,0.0635,0.0635,0.0555,0.0507,0.0545,0.0667,0.078,0.0822,0.0833,0.0924,0.1148,0.1377,0.1495,0.1559,0.1687,0.1954,0.2317,0.2728,0.3161,0.3476,0.3625,0.362,0.3374,0.3129,0.3203,0.3492,0.3956,0.4666,0.5537,0.598,0.6476,0.7416,0.8276,0.9087,0.9754,1.0139,1.0043,0.9717,0.9621,0.9899,1.016,1.0005,0.953,-0.032,-0.0123,0.0059,0.0251,0.0416,0.0507,0.0561,0.0635,0.078,0.0956,0.1095,0.1148,0.1132,0.1127,0.1223,0.1393,0.1532,0.1612,0.1735,0.1949,0.221,0.2461,0.2723,0.2947,0.3001,0.2958,0.2798,0.2483,0.2376,0.2707,0.3433,0.425,0.5163,0.5686,0.5894,0.6583,0.7496,0.8398,0.9173,0.9642,0.9594,0.9295,0.921,0.9504,0.9803,0.9754,0.9456,-0.0272,-0.0166,0.0005,0.0176,0.0342,0.0486,0.0609,0.0769,0.0972,0.1169,0.1335,0.141,0.1388,0.1324,0.1324,0.1404,0.15,0.1602,0.1735,0.189,0.205,0.2189,0.2312,0.2451,0.2525,0.2509,0.252,0.2419,0.2376,0.2696,0.3166,0.3401,0.3545,0.394,0.4319,0.504,0.6305,0.7549,0.8559,0.9146,0.9242,0.9028,0.8948,0.9183,0.9461,0.9493,0.9306,-0.0171,-0.0107,0.0,0.0144,0.0336,0.055,0.0758,0.0977,0.1196,0.1399,0.1538,0.158,0.1532,0.1458,0.1431,0.1463,0.1522,0.1644,0.1778,0.1879,0.1986,0.2098,0.221,0.2333,0.2424,0.2467,0.2627,0.2723,0.2739,0.2899,0.2899,0.2499,0.2034,0.2013,0.2563,0.3433,0.4725,0.6386,0.7827,0.8649,0.8884,0.8842,0.8799,0.8954,0.9199,0.9285,0.9183,-0.0069,-0.0021,0.0101,0.0278,0.0475,0.0705,0.0945,0.1175,0.1383,0.1516,0.1554,0.1527,0.1479,0.1463,0.15,0.1559,0.1623,0.1735,0.1837,0.1901,0.1927,0.1949,0.2029,0.2189,0.2371,0.2499,0.2728,0.3001,0.3091,0.3113,0.3006,0.2568,0.2034,0.1575,0.1431,0.2125,0.3417,0.5045,0.6813,0.7982,0.8441,0.8607,0.8687,0.8842,0.905,0.9146,0.9114,0.0043,0.0133,0.0272,0.0443,0.063,0.0833,0.103,0.1201,0.1303,0.1319,0.1276,0.1239,0.1292,0.141,0.1538,0.1639,0.1725,0.181,0.1863,0.1879,0.1826,0.1762,0.1815,0.2013,0.2296,0.2536,0.2707,0.2995,0.3316,0.3374,0.3187,0.2931,0.2531,0.1954,0.1506,0.1628,0.2563,0.4148,0.5916,0.725,0.7955,0.835,0.8628,0.8842,0.9007,0.9082,0.9082,0.0075,0.0198,0.0336,0.0491,0.0635,0.0774,0.0897,0.0988,0.1014,0.0993,0.0977,0.103,0.1169,0.134,0.1479,0.1596,0.1703,0.1789,0.1821,0.1789,0.1719,0.1666,0.1692,0.1863,0.2141,0.2445,0.2654,0.2798,0.3033,0.331,0.3417,0.3268,0.2872,0.2306,0.1831,0.1618,0.1959,0.3091,0.4704,0.6231,0.7261,0.7982,0.8591,0.8943,0.9103,0.9167,0.9146,-0.0021,0.0101,0.0246,0.039,0.0518,0.0619,0.0705,0.0763,0.078,0.079,0.0849,0.0956,0.11,0.1228,0.134,0.1474,0.1607,0.1698,0.1703,0.1639,0.1575,0.1538,0.1586,0.1762,0.2002,0.2264,0.2488,0.2627,0.2734,0.2856,0.2985,0.3091,0.3081,0.2846,0.2317,0.1799,0.1623,0.2056,0.3193,0.4613,0.5932,0.7128,0.8195,0.8932,0.929,0.9359,0.9311,-0.0048,0.0075,0.0224,0.0363,0.0464,0.0529,0.0566,0.0587,0.0625,0.0694,0.0822,0.0982,0.1121,0.1223,0.1329,0.1442,0.1516,0.1532,0.149,0.1431,0.1388,0.1388,0.1468,0.1639,0.1853,0.2077,0.2274,0.2429,0.2541,0.2621,0.267,0.2702,0.2707,0.2691,0.2632,0.2333,0.1842,0.1612,0.2061,0.3155,0.4469,0.574,0.7106,0.8324,0.9044,0.9386,0.9466,0.0021,0.0117,0.0251,0.0384,0.047,0.0481,0.0448,0.0448,0.0523,0.0667,0.0865,0.1057,0.1212,0.1303,0.1361,0.1377,0.134,0.1281,0.1244,0.1239,0.1233,0.1244,0.1324,0.1479,0.1671,0.1853,0.2029,0.2189,0.2328,0.2435,0.2483,0.2472,0.2424,0.2376,0.2365,0.2461,0.2371,0.1975,0.1847,0.2322,0.3182,0.4346,0.582,0.7154,0.8067,0.8729,0.9141,0.0043,0.0037,0.0144,0.0336,0.0454,0.0438,0.0336,0.0342,0.0502,0.0731,0.0934,0.1078,0.1143,0.1105,0.1095,0.1116,0.1084,0.103,0.1014,0.1041,0.1073,0.1105,0.118,0.1303,0.1447,0.1602,0.1762,0.1917,0.2056,0.2168,0.2232,0.2258,0.2285,0.2317,0.2376,0.2381,0.2483,0.244,0.212,0.2125,0.2547,0.3219,0.4213,0.5526,0.6695,0.7437,0.8025,0.0037,-0.0101,-0.0085,0.0059,0.0203,0.0176,-0.0112,-0.0117,0.0251,0.0571,0.0587,0.0678,0.0497,0.0342,0.0646,0.0763,0.0758,0.0753,0.0774,0.0822,0.0876,0.0945,0.1041,0.1143,0.1228,0.1324,0.1452,0.1586,0.1698,0.1821,0.1949,0.2066,0.2184,0.228,0.2349,0.2397,0.2392,0.2456,0.2392,0.2184,0.2205,0.2477,0.2974,0.37,0.4672,0.574,0.6583,-0.0069,-0.0182,-0.0358,-0.0411,-0.0171,-0.0192,-0.086,-0.0769,-0.008,0.0149,0.0144,0.0448,-0.0069,-0.0283,0.0448,0.0534,0.0432,0.0432,0.0529,0.0641,0.0753,0.0844,0.0881,0.0908,0.0956,0.1009,0.1084,0.1191,0.1335,0.1506,0.1698,0.189,0.2045,0.2141,0.22,0.2248,0.2258,0.2322,0.2435,0.2403,0.2264,0.2269,0.2403,0.2659,0.3118,0.3791,0.4666,0,0,-0.0267,-0.0806,-0.0464,-0.0342,-0.1249,-0.0699,0.0112,0.0166,0.0331,0.0502,0,-0.0694,-0.0785,-0.0096,0.0096,0.04,0.0555,0.0625,0.0705,0.0865,0.0908,0.0812,0.079,0.0817,0.0854,0.0913,0.0993,0.1121,0.134,0.1564,0.1751,0.1895,0.1975,0.2018,0.204,0.2098,0.2301,0.2531,0.2616,0.2627,0.2627,0.2621,0.2654,0.2851,0.3353,0.0502,0.0598,0.024,-0.0726,-0.1335,0,0,0.016,0.0198,0.0043,0.0235,0.1468,0.1586,0.0694,0,0,0,0,0,0,0,0,0.0219,0.0561,0.0721,0.0758,0.078,0.0897,0.0961,0.0993,0.1159,0.1367,0.1548,0.1639,0.1644,0.1623,0.1628,0.1767,0.2007,0.2322,0.2707,0.3086,0.3348,0.3422,0.3289,0.3059,0.3022,0.134,0.1036,0.0374,-0.0988,-0.1949,-0.1169,0.0107,0.0566,0.0683,0,0,0,-0.0235,0.0833,0.1895,0.1468,0.1089,0.0758,0.0513,0.032,0.0224,0,0,0,0,0,0,0,0.0085,0.0422,0.079,0.1046,0.1426,0.1554,0.1356,0.1212,0.1239,0.1554,0.2007,0.2301,0.2536,0.2782,0.3001,0.315,0.3326,0.3428,0.3326,0.1292,0.142,0.0806,-0.0208,-0.0822,-0.04,-0.0117,-0.0053,0.1089,0.1895,0.1692,0.0299,-0.0961,-0.0673,-0.0149,0.0288,0.0657,0.0587,0.0288,0.0048,-0.0016,0,0,0,0,0,0,0,0,0,0,0,0,0.0315,0.079,0.0897,0.0742,0.1014,0.1805,0.221,0.2333,0.2424,0.2493,0.2547,0.2707,0.2931,0.3219,0,0.0304,0.103,0.0742,-0.0427,-0.0881,0,0,0,0,0,-0.0838,-0.1676,-0.1447,-0.0998,-0.0625,-0.0149,0.0096,0.0053,0.0069,0,0,0,0,0,0,0,0,0,0,0,0,0,0,0,0,0.0123,0.0096,0,0,0.1426,0.1847,0.197,0.2088,0.2077,0.2328,0.2547,0,0,0,0.0235,0.0502,0.0529,0,0,0,0,0,-0.0518,-0.1143,-0.1303,-0.1265,-0.1089,-0.0406,-0.0502,-0.0683,0,0,0,0,0,0,0,0,0,0,0,0,0,0,0,0,0,0,-0.0662,-0.0881,0,0,0,0,0,0,0,0.0422,0,0,0,0,0,0,0,0,0,0,0,-0.0481,-0.0913,-0.095,-0.1041,-0.0966,0.0053,0.0982,0,0,0,0,0,0,0,0,0,0,0,0,0,0,0,0,0,0,0,0,-0.0464,-0.0881,-0.016,0.0518,0,0,0,0,0,0,0,0,0,0,0,0,0,0,0,0,-0.0609,-0.0833,-0.0657,-0.094,-0.0806,-0.0593,0,0,0,0,0,0,0,0,0,0,0,0,0,0,0,0,0,0,0,0,0,0,-0.0988,-0.2082,-0.2237,-0.118,0.0149,0.0363,0,0,0,0,0,0,0,0,0,0,0,0,0,0,-0.055,-0.1281,-0.1367,-0.0812,-0.0481,0,0,0,0,0,0,0,0,0,0,0,0,0,0,0,0,0,0,0,0,0,0,0,0,0,0,-0.0096,-0.0187,0,0,0,0,0,0,0,0,0,0,0,0,0,0,-0.0561,-0.1442,-0.149,-0.0913,-0.0598,0,0,0,0,0,0,0,0,0,0,0,0,0,0,0,0,0,0,0,0,0,0,0,0,0,0,0,0,0,0,0,0,0,0,0,0,0,0,0,0,0,0,-0.0641,-0.1468,-0.1543,-0.1297,-0.1159,0,0,0,0,0,0,0,0,0,0,0,0,0,0,0,0,0,0,0,0,0,0,0,0,0,0,0,0,0,0,0,0,0,0,0,0,0,0,0,0,0,0,-0.0737,-0.1532,-0.141,-0.1132,-0.1046,0,0,0,0,0,0,0,0,0,0,0,0,0,0,0,0,0,0,0,0,0,0,0,0,0,0,0,0,0,0,0,0,0,0,0,0,0,0,0,0,0,0,0,-0.0694,-0.078,-0.0192,-0.0214,0,0,0,0,0,0,0,0,0,0,0,0,0,0,0,0,0,0,0,0,0,0,0,0,0,0,0,0,0,0,0,0,0,0,0,0,0,0,0,0,0,0,0,0.0166,0.0571,0.0513,0.023,0,0,0,0,0,0,0,0,0,0,0,0,0,0,0,0,0,0,0,0,0,0,0,0,0,0,0,0,0,0,0,0,0,0,0,0,0,0,0,0,0,0,0,0,0.0256,0.0507,0,0,0,0,0,0,0,0,0,0,0,0,0,0,0,0,0,0,0,0,0,0,0,0,0,0,0,0,0,0,0,0,0,0,0,0,0,0,0,0,0,0,0,0,0,0,0,0,0,0,0,0,0,0,0,0,0,0,0,0,0,0,0,0,0,0,0,0,0,0,0,0,0,0,0,0,0,0,0,0,0,0,0,0,0,0,0,0,0,0,0,0,0,0,0,0,0,0,0,0,0,0,0,0,0,0,0,0,0,0,0,0,0,0,0,0,0,0,0,0,0,0,0,0,0,0,0,0,0,0,0,0,0,0,0,0,0,0,0,0,0,0,0,0,0,0,0,0,0,0,0,0,0,0,0,0,0,0,0,0,0,0,0,0,0,0,0,0,0,0,0,0,0,0,0,0,0,0,0,0,0,0,0,0,0,0,0,0,0,0,0,0,0,0,0,0,0,0,0,0,0,0,0,0,0,0,0,0,0,0,0,0,0,0,0,0,0,0,0,0,0,0,0,0,0,0,0,0,0,0,0,0,0,0,0,0,0,0,0,0,0,0,0,0,0,0,0,0,0,0,0,0,0,0,0,0,0,0,0,0,0,0,0,0,0,0,0,0,0,0,0,0,0,0,0,0,0,0,0,0,0,0,0,0,0,0,0,0,0,0,0,0,0,0,0,0,0,0,0,0,0,0,0,0,0,0,0,0,0,0,0,0,0]}],[{"header":{"parameterUnit":"kt","parameterCategory":2,"dx":1,"dy":1,"la1":29.764190673828125,"la2":30.86408042907715,"lo1":-88.46762084960938,"lo2":-86.9344482421875,"nx":47,"ny":34,"refTime":"2022-10-01T00:00:00:Z","depth":"2","parameterNumber":3,"parameterNumberName":"V-component_of_CURRENTS"},"data":[0.0117,0.023,0.032,0.0384,0.0518,0.0651,0.0667,0.0614,0.0432,0.024,0.0085,0.0005,0.0027,0.0016,-0.0101,-0.0171,-0.0171,0.0027,0.031,0.0651,0.0913,0.0972,0.0849,0.071,0.0587,0.0593,0.0662,0.1073,0.1495,0.1516,0.1068,0.0571,0.0384,0.1329,0.2926,0.4036,0.4266,0.3716,0.2824,0.213,0.22,0.3022,0.3935,0.4506,0.4853,0.5403,0.622,0.0198,0.0214,0.0182,0.0214,0.0395,0.0491,0.0481,0.04,0.023,0.0107,0.0037,-0.0005,0.0032,0.0091,0.0048,-0.0069,-0.0171,-0.0101,0.0091,0.0347,0.0587,0.0769,0.087,0.0908,0.094,0.0961,0.0796,0.0854,0.1105,0.1089,0.0662,0.0384,0.0481,0.0838,0.2627,0.4367,0.5104,0.4773,0.3956,0.3166,0.3059,0.3737,0.4512,0.4976,0.5222,0.5654,0.6284,0.0326,0.0363,0.0347,0.0278,0.0299,0.0299,0.0283,0.0224,0.0096,0.0027,0.0,-0.0027,0.0,0.0032,0.0016,-0.0064,-0.0149,-0.0123,0.0005,0.0192,0.04,0.0619,0.0908,0.1105,0.1164,0.1207,0.1078,0.0902,0.0913,0.0796,0.0021,-0.0587,-0.0625,-0.0587,0.0667,0.3305,0.5259,0.5691,0.5142,0.4309,0.3903,0.4245,0.4864,0.5227,0.5387,0.5691,0.6161,0.0336,0.047,0.0502,0.0464,0.0432,0.0363,0.0294,0.024,0.0123,0.0053,0.0005,-0.0032,-0.0027,-0.0043,-0.0091,-0.0149,-0.0192,-0.0133,-0.0037,0.016,0.0347,0.0539,0.0812,0.1052,0.1153,0.1228,0.1191,0.0961,0.0838,0.0635,-0.0166,-0.1105,-0.1527,-0.1548,-0.1602,0.0091,0.315,0.5398,0.59,0.5392,0.4778,0.4698,0.5061,0.5387,0.5537,0.5734,0.6081,0.0198,0.0416,0.0523,0.0571,0.0582,0.0523,0.0443,0.0352,0.0219,0.0091,-0.0016,-0.0101,-0.0107,-0.0144,-0.0187,-0.0224,-0.0224,-0.0128,-0.0059,0.0128,0.0294,0.0502,0.0737,0.0966,0.1068,0.1159,0.1164,0.0972,0.0699,0.0502,-0.0016,-0.0715,-0.1132,-0.1191,-0.1532,-0.1757,-0.0262,0.2766,0.4944,0.5643,0.5473,0.5222,0.5286,0.5521,0.5718,0.5889,0.6161,0.0021,0.024,0.0395,0.0481,0.0523,0.0486,0.04,0.0278,0.0123,-0.0043,-0.0155,-0.0246,-0.0224,-0.0246,-0.0246,-0.024,-0.0192,-0.0117,-0.0048,0.0101,0.0246,0.0491,0.0742,0.0966,0.1073,0.1089,0.1111,0.1014,0.0641,0.0299,-0.0107,-0.0448,-0.0651,-0.0737,-0.0529,-0.0737,-0.1105,0.0182,0.2451,0.4362,0.5419,0.5617,0.5542,0.559,0.574,0.5932,0.6188,-0.0203,-0.0069,0.0069,0.016,0.0214,0.0198,0.0117,0.0016,-0.0101,-0.0214,-0.0262,-0.0262,-0.0251,-0.0251,-0.024,-0.023,-0.0149,-0.0123,-0.0021,0.0091,0.024,0.0481,0.0747,0.0988,0.1164,0.1132,0.1111,0.1078,0.0828,0.04,-0.008,-0.0497,-0.0747,-0.0806,-0.0513,-0.0123,-0.0027,-0.0075,0.0774,0.2493,0.4373,0.5435,0.567,0.5585,0.5547,0.567,0.5862,-0.0566,-0.0475,-0.04,-0.0283,-0.0198,-0.0166,-0.0166,-0.024,-0.0251,-0.0304,-0.0278,-0.0219,-0.0214,-0.0192,-0.0214,-0.0176,-0.0139,-0.0133,-0.0043,0.0059,0.0224,0.0422,0.0651,0.0929,0.1132,0.1217,0.1217,0.1169,0.1068,0.078,0.0358,-0.0107,-0.0464,-0.0742,-0.0769,-0.0502,0.0043,0.0235,0.0432,0.1367,0.3011,0.4666,0.5408,0.5494,0.5355,0.5275,0.5323,-0.0812,-0.0763,-0.0699,-0.0582,-0.0432,-0.0342,-0.0294,-0.031,-0.032,-0.0294,-0.0272,-0.0171,-0.0139,-0.0069,-0.0085,-0.0037,-0.0101,-0.0117,-0.0117,-0.0005,0.0139,0.0278,0.0475,0.0694,0.0908,0.1148,0.1249,0.1281,0.1233,0.1057,0.0801,0.0475,0.016,-0.0149,-0.0358,-0.0475,-0.0208,0.0203,0.0374,0.0747,0.1858,0.3358,0.4496,0.5035,0.5115,0.4981,0.4917,-0.0801,-0.0801,-0.0753,-0.0673,-0.0486,-0.0347,-0.0267,-0.0246,-0.0278,-0.0224,-0.0182,-0.0069,0.0064,0.016,0.0182,0.0139,0.0043,-0.008,-0.0117,-0.0048,0.0043,0.0155,0.0262,0.0379,0.0603,0.0828,0.1057,0.1228,0.1276,0.1169,0.0956,0.0694,0.0459,0.0283,0.0182,0.0069,-0.0005,0.024,0.0502,0.0593,0.1105,0.2114,0.3129,0.3711,0.418,0.4383,0.4394,-0.071,-0.0726,-0.0849,-0.0731,-0.0587,-0.0368,-0.0256,-0.0246,-0.0214,-0.0176,-0.0149,-0.0208,0.0,0.0,0.0192,0.0272,0.0176,-0.0016,-0.0085,-0.008,-0.0005,0.0064,0.0101,0.0182,0.0278,0.0464,0.0737,0.0961,0.1111,0.1089,0.0929,0.071,0.0502,0.0374,0.0294,0.0374,0.0427,0.0464,0.0673,0.0747,0.0844,0.1292,0.189,0.2408,0.275,0.3043,0.3342,-0.0416,-0.0657,-0.1014,-0.1095,-0.0956,-0.0513,-0.0379,-0.0587,-0.0475,-0.032,-0.0363,-0.0513,-0.047,-0.0635,-0.0331,0.0192,0.0251,0.0037,-0.0091,-0.0101,-0.0032,0.0037,0.0096,0.0069,0.0117,0.0219,0.039,0.0598,0.0769,0.0833,0.0758,0.0614,0.0432,0.032,0.0182,0.0203,0.0432,0.0593,0.0603,0.0694,0.0721,0.0785,0.1009,0.134,0.1586,0.1794,0.1954,-0.0155,-0.0545,-0.1095,-0.1602,-0.166,-0.0833,-0.0523,-0.126,-0.0993,-0.0459,-0.0192,0.0091,-0.0603,-0.0411,-0.047,0.0016,0.0262,0.0155,-0.0005,-0.0048,0.0005,0.0037,0.0059,0.0032,-0.0027,0.0016,0.0149,0.0336,0.0475,0.0561,0.0523,0.0411,0.0272,0.0112,-0.0021,-0.008,0.0075,0.04,0.0448,0.0416,0.0411,0.039,0.04,0.0491,0.0774,0.1014,0.1089,0,0,-0.0908,-0.1879,-0.2146,-0.0918,-0.0539,-0.1442,-0.086,-0.0117,0.0299,0.1442,0,0.1623,-0.0203,0.0,0.0299,0.0267,0.0117,0.0091,0.0133,0.0112,0.0326,0.0192,0.0053,-0.0016,0.0037,0.0096,0.0219,0.024,0.0235,0.0203,0.0128,0.0021,-0.0128,-0.0214,-0.0128,0.0144,0.0342,0.024,0.0112,-0.0048,-0.0133,-0.0171,-0.0027,0.0326,0.0641,-0.024,-0.0075,-0.0849,-0.1869,-0.2098,0,0,-0.1767,-0.0363,0.0101,0.0497,0.2056,0.0806,0.3599,0,0,0,0,0,0,0,0,0.0513,0.0331,0.0128,0.0021,0.0064,0.0032,0.0438,0.0166,0.0112,0.0128,0.0144,0.0064,-0.0085,-0.0203,-0.0176,0.0032,0.0315,0.0395,0.0256,-0.0005,-0.0272,-0.0448,-0.0454,-0.0182,0.0107,-0.04,-0.0267,-0.0913,-0.1303,-0.1169,-0.0934,-0.0892,-0.1356,0.0726,0,0,0,0.1345,0.2654,-0.0053,0.0027,0.0107,0.0085,0.0016,-0.0005,0.0032,0,0,0,0,0,0,0,0.0603,0.0,0.0219,0.0331,0.0182,0.0507,0.0149,-0.0166,-0.0288,-0.0246,0.0123,0.032,0.0331,0.0235,0.0053,-0.0085,-0.016,-0.0171,-0.0107,-0.0326,0.0064,-0.0603,-0.0849,-0.0635,-0.1943,-0.1778,-0.0555,0.1522,0.0,0.0,0.0812,0.1223,0.0844,-0.0347,-0.0486,-0.0155,0.0149,0.0011,0.008,0.0064,0,0,0,0,0,0,0,0,0,0,0,0,0.0812,0.0406,0.0166,-0.0342,-0.0635,-0.0048,0.078,0.0555,0.0406,0.0326,0.0326,0.0363,0.0278,0.0251,0,0.0502,-0.0272,-0.0224,-0.0411,-0.1415,0,0,0,0,0,0.1869,0.142,0.0908,-0.0534,-0.1436,-0.142,-0.0101,0.0021,0.0208,0,0,0,0,0,0,0,0,0,0,0,0,0,0,0,0,-0.0395,-0.0625,0,0,0.079,0.0523,0.0443,0.04,0.0529,0.0593,0.0657,0,0,0,0.0406,-0.0032,-0.0806,0,0,0,0,0,0.1762,0.1602,0.1388,-0.0107,-0.1714,-0.2728,-0.0796,0.0043,0,0,0,0,0,0,0,0,0,0,0,0,0,0,0,0,0,0,-0.0427,-0.0587,0,0,0,0,0,0,0,0.071,0,0,0,0,0,0,0,0,0,0,0,0.1078,0.142,0.1698,0.0566,-0.1169,-0.3017,-0.1281,0,0,0,0,0,0,0,0,0,0,0,0,0,0,0,0,0,0,0,0,-0.1175,-0.0715,-0.0747,-0.0363,0,0,0,0,0,0,0,0,0,0,0,0,0,0,0,0,0.0646,0.0262,0.1863,0.087,-0.0731,-0.2419,0,0,0,0,0,0,0,0,0,0,0,0,0,0,0,0,0,0,0,0,0,0,-0.1436,-0.1495,-0.0721,0.0,-0.0235,-0.0011,0,0,0,0,0,0,0,0,0,0,0,0,0,0,-0.0603,0.1602,0.0742,-0.0758,-0.1815,0,0,0,0,0,0,0,0,0,0,0,0,0,0,0,0,0,0,0,0,0,0,0,0,0,0,-0.047,-0.0027,0,0,0,0,0,0,0,0,0,0,0,0,0,0,-0.0507,0.1057,0.047,-0.0833,-0.1789,0,0,0,0,0,0,0,0,0,0,0,0,0,0,0,0,0,0,0,0,0,0,0,0,0,0,0,0,0,0,0,0,0,0,0,0,0,0,0,0,0,0,-0.039,0.0448,-0.0021,-0.103,-0.2216,0,0,0,0,0,0,0,0,0,0,0,0,0,0,0,0,0,0,0,0,0,0,0,0,0,0,0,0,0,0,0,0,0,0,0,0,0,0,0,0,0,0,-0.04,-0.0069,-0.0689,-0.141,-0.2424,0,0,0,0,0,0,0,0,0,0,0,0,0,0,0,0,0,0,0,0,0,0,0,0,0,0,0,0,0,0,0,0,0,0,0,0,0,0,0,0,0,0,0,0.0048,-0.11,-0.1249,-0.1698,0,0,0,0,0,0,0,0,0,0,0,0,0,0,0,0,0,0,0,0,0,0,0,0,0,0,0,0,0,0,0,0,0,0,0,0,0,0,0,0,0,0,0,0.0416,-0.0438,-0.0625,-0.1084,0,0,0,0,0,0,0,0,0,0,0,0,0,0,0,0,0,0,0,0,0,0,0,0,0,0,0,0,0,0,0,0,0,0,0,0,0,0,0,0,0,0,0,0,0.0331,-0.0384,0,0,0,0,0,0,0,0,0,0,0,0,0,0,0,0,0,0,0,0,0,0,0,0,0,0,0,0,0,0,0,0,0,0,0,0,0,0,0,0,0,0,0,0,0,0,0,0,0,0,0,0,0,0,0,0,0,0,0,0,0,0,0,0,0,0,0,0,0,0,0,0,0,0,0,0,0,0,0,0,0,0,0,0,0,0,0,0,0,0,0,0,0,0,0,0,0,0,0,0,0,0,0,0,0,0,0,0,0,0,0,0,0,0,0,0,0,0,0,0,0,0,0,0,0,0,0,0,0,0,0,0,0,0,0,0,0,0,0,0,0,0,0,0,0,0,0,0,0,0,0,0,0,0,0,0,0,0,0,0,0,0,0,0,0,0,0,0,0,0,0,0,0,0,0,0,0,0,0,0,0,0,0,0,0,0,0,0,0,0,0,0,0,0,0,0,0,0,0,0,0,0,0,0,0,0,0,0,0,0,0,0,0,0,0,0,0,0,0,0,0,0,0,0,0,0,0,0,0,0,0,0,0,0,0,0,0,0,0,0,0,0,0,0,0,0,0,0,0,0,0,0,0,0,0,0,0,0,0,0,0,0,0,0,0,0,0,0,0,0,0,0,0,0,0,0,0,0,0,0,0,0,0,0,0,0,0,0,0,0,0,0,0,0,0,0,0,0,0,0,0,0,0,0,0,0,0,0,0,0,0,0,0]}]],[[{"header":{"parameterUnit":"kt","parameterCategory":2,"dx":1,"dy":1,"la1":29.764190673828125,"la2":30.86408042907715,"lo1":-88.46762084960938,"lo2":-86.9344482421875,"nx":47,"ny":34,"refTime":"2022-10-01T00:00:00:Z","depth":"4","parameterNumber":2,"parameterNumberName":"U-component_of_CURRENTS"},"data":[-0.024,-0.0005,0.0267,0.0545,0.0726,0.0742,0.0673,0.063,0.0678,0.0801,0.0913,0.0966,0.0982,0.1078,0.1303,0.1532,0.166,0.1741,0.189,0.2168,0.2547,0.2969,0.3401,0.3716,0.3871,0.3876,0.3631,0.3401,0.3481,0.3716,0.4079,0.4672,0.5398,0.5878,0.6551,0.7624,0.8489,0.9274,0.9936,1.0326,1.0262,0.9989,0.9888,1.0064,1.0224,1.0102,0.9771,-0.0224,-0.0032,0.0149,0.0342,0.0507,0.0609,0.0673,0.0758,0.0908,0.1084,0.1223,0.1281,0.1276,0.1281,0.1388,0.1564,0.1703,0.1794,0.1927,0.2162,0.244,0.2712,0.2985,0.3209,0.3268,0.323,0.3075,0.2771,0.2664,0.2969,0.354,0.4084,0.488,0.5521,0.5969,0.6839,0.7784,0.8639,0.9354,0.9824,0.984,0.9584,0.9493,0.9696,0.9899,0.9872,0.9674,-0.016,-0.0053,0.0107,0.0278,0.0443,0.0587,0.0721,0.0892,0.1095,0.1297,0.1458,0.1538,0.1527,0.1479,0.1495,0.1586,0.1687,0.1794,0.1933,0.2104,0.228,0.244,0.2579,0.2718,0.2792,0.2787,0.2803,0.2712,0.268,0.2958,0.3294,0.3412,0.3534,0.4036,0.4544,0.5355,0.6658,0.787,0.8793,0.9343,0.9477,0.9327,0.9242,0.9402,0.96,0.9626,0.9509,-0.0048,0.0021,0.0123,0.0267,0.0454,0.0662,0.0876,0.1095,0.1319,0.1522,0.1666,0.1714,0.1676,0.1612,0.1602,0.165,0.1714,0.1831,0.1975,0.2098,0.2226,0.2355,0.2477,0.26,0.2691,0.2744,0.2904,0.3011,0.3033,0.3171,0.3118,0.267,0.2178,0.2146,0.2718,0.3663,0.5051,0.6743,0.8142,0.8895,0.913,0.9119,0.9087,0.9199,0.9381,0.9445,0.9386,0.0059,0.0112,0.024,0.0411,0.0609,0.0833,0.1073,0.1303,0.1506,0.1644,0.1692,0.1671,0.1634,0.1628,0.1676,0.1746,0.181,0.1917,0.2029,0.2114,0.2168,0.2221,0.2306,0.2467,0.2648,0.2776,0.3011,0.3284,0.3374,0.339,0.3278,0.2851,0.2312,0.1821,0.1623,0.2253,0.3577,0.5312,0.7154,0.8324,0.8745,0.8884,0.8959,0.9076,0.9247,0.9327,0.9306,0.0171,0.0267,0.0411,0.0582,0.0769,0.0972,0.1169,0.1335,0.1442,0.1463,0.1431,0.141,0.1468,0.1591,0.1719,0.1815,0.1895,0.1991,0.2066,0.2098,0.2072,0.2045,0.2109,0.2301,0.2573,0.2814,0.299,0.3273,0.3583,0.3647,0.347,0.3225,0.2835,0.2264,0.1805,0.1837,0.2638,0.4223,0.6124,0.7581,0.8313,0.8671,0.8895,0.9071,0.921,0.929,0.929,0.0203,0.0326,0.0475,0.0635,0.0785,0.0924,0.1046,0.1137,0.1175,0.1169,0.1169,0.1223,0.1356,0.1516,0.1644,0.1746,0.1842,0.1943,0.2007,0.2018,0.1986,0.1959,0.2002,0.2178,0.2461,0.2755,0.2953,0.3091,0.3316,0.3583,0.3695,0.3556,0.3161,0.2605,0.213,0.1901,0.2157,0.315,0.4757,0.6412,0.7598,0.8334,0.8884,0.9162,0.9285,0.9354,0.9365,0.0112,0.024,0.039,0.0534,0.0667,0.078,0.087,0.094,0.0972,0.0993,0.1052,0.1153,0.1281,0.1388,0.1474,0.1575,0.1682,0.1778,0.1821,0.181,0.1789,0.1789,0.1842,0.1991,0.2232,0.2488,0.2707,0.2856,0.3001,0.3139,0.3268,0.3374,0.3364,0.3123,0.2595,0.2072,0.1879,0.2226,0.3241,0.4661,0.6108,0.7427,0.8494,0.9178,0.9477,0.9552,0.952,0.0096,0.0224,0.0374,0.0513,0.0625,0.071,0.0763,0.0796,0.0833,0.0908,0.1025,0.1164,0.1281,0.1361,0.1426,0.1479,0.1522,0.1548,0.1554,0.1548,0.1554,0.157,0.1639,0.1789,0.1975,0.2189,0.2392,0.2547,0.2648,0.2734,0.2862,0.2963,0.2995,0.2979,0.2904,0.2589,0.2088,0.1837,0.2194,0.3182,0.4501,0.5878,0.7347,0.8569,0.9258,0.9589,0.9674,0.0171,0.0262,0.039,0.0523,0.0625,0.0667,0.0673,0.0694,0.0763,0.0886,0.1052,0.1228,0.1367,0.142,0.1404,0.1345,0.1308,0.1287,0.1281,0.1297,0.1335,0.1388,0.1463,0.1575,0.173,0.1906,0.2082,0.2248,0.2376,0.2461,0.252,0.2541,0.2547,0.2584,0.2627,0.2707,0.2595,0.22,0.2034,0.2403,0.3198,0.4373,0.5878,0.7266,0.8233,0.8927,0.9354,0.0198,0.0192,0.0288,0.0464,0.0609,0.0651,0.0603,0.0625,0.0763,0.0956,0.1137,0.1281,0.1372,0.1372,0.1351,0.1249,0.11,0.1052,0.1057,0.11,0.1143,0.1196,0.1271,0.1356,0.1474,0.1623,0.1778,0.1938,0.2077,0.2184,0.2258,0.2296,0.2317,0.2349,0.2419,0.2531,0.2707,0.2654,0.2333,0.229,0.26,0.3214,0.4213,0.5537,0.6727,0.7533,0.8185,0.0155,0.0032,0.0053,0.0224,0.0411,0.0454,0.0262,0.0262,0.0577,0.0854,0.087,0.0902,0.078,0.0662,0.0854,0.094,0.0881,0.0822,0.0838,0.0886,0.0956,0.102,0.1089,0.1153,0.1233,0.1335,0.1463,0.1607,0.1746,0.1879,0.1991,0.2077,0.2152,0.2237,0.2322,0.2408,0.252,0.2675,0.2605,0.2376,0.236,0.2563,0.2995,0.3695,0.4688,0.5782,0.6652,-0.0075,-0.0117,-0.0208,-0.0192,0.0048,0.0117,-0.0315,-0.0256,0.0256,0.0507,0.0577,0.0555,0.0315,0.0272,0.0443,0.0561,0.0539,0.0571,0.0646,0.071,0.078,0.086,0.0924,0.0956,0.0998,0.1057,0.1132,0.1287,0.1452,0.1612,0.1767,0.189,0.2018,0.2136,0.2226,0.2285,0.2333,0.2488,0.2632,0.2573,0.2408,0.2397,0.2504,0.2739,0.3187,0.3855,0.4736,0,0,-0.0107,-0.0336,-0.0208,-0.0107,-0.0582,-0.0117,0.0283,0.0459,0.0683,0.0817,0,-0.0881,-0.1265,-0.0427,0.0075,0.04,0.0555,0.0619,0.0689,0.0844,0.0881,0.0806,0.0812,0.0854,0.0913,0.0998,0.1105,0.1265,0.1474,0.1655,0.1799,0.1917,0.1997,0.204,0.2072,0.2168,0.2424,0.267,0.2728,0.2718,0.2696,0.267,0.2712,0.2926,0.3417,0.0422,0.0523,0.0438,0.0101,-0.0149,0,0,0.0176,0.0176,0.0166,0.0555,0.173,0.1778,0.0876,0,0,0,0,0,0,0,0,0.0214,0.055,0.071,0.0742,0.0753,0.0886,0.0934,0.0945,0.1105,0.1265,0.1431,0.1548,0.1602,0.1623,0.165,0.1773,0.2056,0.2413,0.2798,0.3145,0.3385,0.3449,0.331,0.3097,0.3059,0.1089,0.0924,0.071,-0.0027,-0.078,-0.0464,0.071,0.1057,0.0758,0,0,0,0.0016,0.1281,0.213,0.1484,0.1057,0.0742,0.0507,0.032,0.023,0,0,0,0,0,0,0,0.0139,0.0486,0.0796,0.102,0.1297,0.134,0.1191,0.1137,0.1201,0.149,0.1885,0.2178,0.2424,0.2686,0.2926,0.3118,0.3326,0.3428,0.331,0.094,0.1132,0.0945,0.0502,0.0283,0.0582,0.0566,0.0304,0.1095,0.1869,0.1938,0.0977,-0.0096,-0.0059,0.0107,0.0432,0.0758,0.0646,0.04,0.0149,-0.0005,0,0,0,0,0,0,0,0,0,0,0,0,0.0315,0.0758,0.079,0.0737,0.0972,0.1532,0.1794,0.1901,0.2013,0.2098,0.2184,0.2419,0.2792,0.3166,0,0.0304,0.1095,0.118,0.0497,0.0251,0,0,0,0,0,-0.032,-0.0657,-0.0753,-0.0737,-0.0529,-0.0096,0.0235,0.0171,0.0091,0,0,0,0,0,0,0,0,0,0,0,0,0,0,0,0,0.0203,0.0246,0,0,0.1185,0.1538,0.1682,0.1757,0.1837,0.2072,0.2232,0,0,0,0.0251,0.0545,0.0577,0,0,0,0,0,0.0048,-0.0128,-0.0459,-0.0678,-0.0806,-0.0555,-0.0406,-0.0336,0,0,0,0,0,0,0,0,0,0,0,0,0,0,0,0,0,0,-0.0667,-0.0913,0,0,0,0,0,0,0,0.0374,0,0,0,0,0,0,0,0,0,0,0,-0.0053,0.0027,-0.0021,-0.0192,-0.0224,-0.0064,0.0123,0,0,0,0,0,0,0,0,0,0,0,0,0,0,0,0,0,0,0,0,-0.0459,-0.0502,-0.0107,-0.0117,0,0,0,0,0,0,0,0,0,0,0,0,0,0,0,0,-0.0251,-0.0043,0.0278,-0.0032,-0.0203,-0.0214,0,0,0,0,0,0,0,0,0,0,0,0,0,0,0,0,0,0,0,0,0,0,-0.039,-0.0812,-0.0571,-0.0689,-0.063,-0.0187,0,0,0,0,0,0,0,0,0,0,0,0,0,0,0.0107,-0.0336,-0.0406,-0.0432,-0.0379,0,0,0,0,0,0,0,0,0,0,0,0,0,0,0,0,0,0,0,0,0,0,0,0,0,0,-0.0107,-0.0214,0,0,0,0,0,0,0,0,0,0,0,0,0,0,-0.0192,-0.0304,-0.0358,-0.0331,-0.0176,0,0,0,0,0,0,0,0,0,0,0,0,0,0,0,0,0,0,0,0,0,0,0,0,0,0,0,0,0,0,0,0,0,0,0,0,0,0,0,0,0,0,-0.0166,-0.023,-0.0352,-0.0582,-0.0587,0,0,0,0,0,0,0,0,0,0,0,0,0,0,0,0,0,0,0,0,0,0,0,0,0,0,0,0,0,0,0,0,0,0,0,0,0,0,0,0,0,0,0.0027,-0.0011,-0.0262,-0.0315,-0.0182,0,0,0,0,0,0,0,0,0,0,0,0,0,0,0,0,0,0,0,0,0,0,0,0,0,0,0,0,0,0,0,0,0,0,0,0,0,0,0,0,0,0,0,0.0502,0.0918,0.0689,0.055,0,0,0,0,0,0,0,0,0,0,0,0,0,0,0,0,0,0,0,0,0,0,0,0,0,0,0,0,0,0,0,0,0,0,0,0,0,0,0,0,0,0,0,0.0443,0.0235,-0.0315,-0.0192,0,0,0,0,0,0,0,0,0,0,0,0,0,0,0,0,0,0,0,0,0,0,0,0,0,0,0,0,0,0,0,0,0,0,0,0,0,0,0,0,0,0,0,0,0.0187,0.0374,0,0,0,0,0,0,0,0,0,0,0,0,0,0,0,0,0,0,0,0,0,0,0,0,0,0,0,0,0,0,0,0,0,0,0,0,0,0,0,0,0,0,0,0,0,0,0,0,0,0,0,0,0,0,0,0,0,0,0,0,0,0,0,0,0,0,0,0,0,0,0,0,0,0,0,0,0,0,0,0,0,0,0,0,0,0,0,0,0,0,0,0,0,0,0,0,0,0,0,0,0,0,0,0,0,0,0,0,0,0,0,0,0,0,0,0,0,0,0,0,0,0,0,0,0,0,0,0,0,0,0,0,0,0,0,0,0,0,0,0,0,0,0,0,0,0,0,0,0,0,0,0,0,0,0,0,0,0,0,0,0,0,0,0,0,0,0,0,0,0,0,0,0,0,0,0,0,0,0,0,0,0,0,0,0,0,0,0,0,0,0,0,0,0,0,0,0,0,0,0,0,0,0,0,0,0,0,0,0,0,0,0,0,0,0,0,0,0,0,0,0,0,0,0,0,0,0,0,0,0,0,0,0,0,0,0,0,0,0,0,0,0,0,0,0,0,0,0,0,0,0,0,0,0,0,0,0,0,0,0,0,0,0,0,0,0,0,0,0,0,0,0,0,0,0,0,0,0,0,0,0,0,0,0,0,0,0,0,0,0,0,0,0,0,0,0,0,0,0,0,0,0,0,0,0,0,0,0,0,0,0,0,0]}],[{"header":{"parameterUnit":"kt","parameterCategory":2,"dx":1,"dy":1,"la1":29.764190673828125,"la2":30.86408042907715,"lo1":-88.46762084960938,"lo2":-86.9344482421875,"nx":47,"ny":34,"refTime":"2022-10-01T00:00:00:Z","depth":"4","parameterNumber":3,"parameterNumberName":"V-component_of_CURRENTS"},"data":[0.0368,0.0491,0.0571,0.0657,0.079,0.0924,0.0956,0.0886,0.0731,0.0523,0.0368,0.0304,0.0315,0.031,0.0219,0.0144,0.0176,0.0368,0.0667,0.1014,0.1265,0.134,0.1223,0.1052,0.095,0.0929,0.1041,0.142,0.181,0.1847,0.1474,0.1062,0.0838,0.1719,0.2936,0.3876,0.4218,0.3839,0.3033,0.236,0.2419,0.3203,0.4106,0.4741,0.5184,0.5772,0.6498,0.0454,0.0486,0.0438,0.0502,0.0667,0.0763,0.0769,0.0673,0.0529,0.039,0.0315,0.0294,0.032,0.0379,0.0347,0.024,0.0166,0.024,0.0459,0.0721,0.0934,0.1132,0.1223,0.1239,0.1287,0.1292,0.1169,0.1207,0.1447,0.1442,0.1062,0.0801,0.0828,0.1185,0.2787,0.4341,0.5088,0.4869,0.4127,0.3417,0.3316,0.3946,0.4709,0.5216,0.5569,0.6033,0.6588,0.0582,0.063,0.0598,0.0566,0.0566,0.0582,0.0571,0.0491,0.039,0.031,0.0283,0.0278,0.0294,0.032,0.0304,0.0246,0.0182,0.0214,0.0368,0.0555,0.0747,0.0988,0.1255,0.1442,0.1516,0.1538,0.1442,0.1244,0.1249,0.1143,0.0459,-0.0123,-0.0171,-0.0139,0.102,0.347,0.5318,0.5723,0.5254,0.4565,0.4191,0.4501,0.5088,0.5473,0.5713,0.6049,0.6476,0.0593,0.0726,0.0753,0.0737,0.0694,0.0646,0.0582,0.0502,0.0411,0.0336,0.0288,0.0272,0.0272,0.0251,0.0198,0.016,0.0144,0.0192,0.032,0.0497,0.0689,0.0902,0.1164,0.1399,0.1511,0.1559,0.1548,0.1297,0.1175,0.0961,0.024,-0.0662,-0.1036,-0.1036,-0.11,0.0507,0.3385,0.5462,0.5926,0.5558,0.5056,0.4981,0.5328,0.5649,0.583,0.6065,0.6407,0.0454,0.0667,0.0774,0.0833,0.0833,0.0796,0.0715,0.0614,0.0497,0.0368,0.0267,0.0208,0.0187,0.016,0.0107,0.0101,0.0123,0.0192,0.0299,0.0448,0.0641,0.0849,0.1078,0.1308,0.1431,0.149,0.1522,0.1297,0.1046,0.0817,0.0336,-0.0368,-0.0742,-0.0769,-0.1009,-0.1196,0.0208,0.3043,0.504,0.5723,0.5702,0.551,0.5574,0.5814,0.6012,0.6215,0.6471,0.0288,0.0497,0.0651,0.0742,0.0774,0.0753,0.0667,0.055,0.0406,0.0246,0.0123,0.008,0.0069,0.008,0.0069,0.0107,0.0149,0.0219,0.031,0.0432,0.0587,0.0812,0.1062,0.1297,0.1415,0.1431,0.1463,0.134,0.0982,0.063,0.0235,-0.0107,-0.0315,-0.0384,-0.0133,-0.0251,-0.0491,0.071,0.2787,0.4544,0.5558,0.583,0.5836,0.5926,0.6092,0.6284,0.6498,0.0075,0.0208,0.0342,0.0432,0.0486,0.047,0.04,0.0304,0.0187,0.0096,0.0043,0.0053,0.0085,0.0091,0.0101,0.0144,0.0192,0.0256,0.0347,0.0459,0.0587,0.0785,0.1036,0.1297,0.1458,0.1474,0.1452,0.142,0.1159,0.0742,0.0262,-0.0133,-0.0406,-0.0454,-0.0182,0.023,0.0416,0.0491,0.1324,0.2883,0.4576,0.5558,0.5862,0.5905,0.5948,0.6076,0.622,-0.0251,-0.0171,-0.0085,0.0016,0.0101,0.0139,0.0123,0.008,0.0048,0.0032,0.0064,0.0107,0.0144,0.0149,0.0166,0.0203,0.0235,0.0278,0.0352,0.0454,0.0571,0.0721,0.0902,0.1105,0.1324,0.1452,0.149,0.149,0.1383,0.1121,0.0694,0.0256,-0.0123,-0.0368,-0.0411,-0.0123,0.0422,0.0699,0.0966,0.1874,0.339,0.4853,0.5521,0.5707,0.5707,0.5665,0.5713,-0.0454,-0.04,-0.0342,-0.0224,-0.0101,0.0,0.0037,0.0032,0.0027,0.0048,0.0101,0.0182,0.0246,0.0294,0.032,0.0336,0.0315,0.0283,0.0331,0.0416,0.0534,0.063,0.0747,0.0892,0.1073,0.126,0.1404,0.149,0.1474,0.1335,0.11,0.0801,0.0491,0.0208,-0.0011,-0.008,0.0182,0.0614,0.0854,0.1297,0.2344,0.3732,0.4677,0.5206,0.5371,0.5328,0.5291,-0.0411,-0.0406,-0.0384,-0.0283,-0.0123,0.0005,0.008,0.0085,0.0091,0.0128,0.0192,0.0294,0.0438,0.0529,0.0571,0.0545,0.0438,0.0352,0.0326,0.0395,0.0497,0.0566,0.063,0.0715,0.0849,0.103,0.1212,0.1361,0.142,0.1345,0.1191,0.0977,0.078,0.0625,0.0507,0.0416,0.0379,0.0641,0.094,0.1105,0.1623,0.2595,0.3518,0.402,0.4447,0.4704,0.4768,-0.0278,-0.0347,-0.0443,-0.0363,-0.0198,0.0,0.0096,0.0096,0.0144,0.0203,0.0208,0.0203,0.0379,0.0406,0.0561,0.0683,0.0593,0.0438,0.0358,0.039,0.0464,0.0539,0.0561,0.0587,0.0667,0.0806,0.0988,0.1164,0.1271,0.126,0.1143,0.0966,0.0806,0.0689,0.063,0.0699,0.0774,0.0844,0.1073,0.1191,0.1351,0.1794,0.2365,0.2819,0.3129,0.3444,0.3732,-0.0053,-0.0235,-0.0609,-0.0667,-0.0513,-0.0117,0.0016,-0.0166,-0.0053,0.0123,0.0096,0.0053,0.0133,-0.0027,0.0246,0.0646,0.0694,0.0502,0.0384,0.0379,0.0454,0.0507,0.0513,0.0497,0.0523,0.0614,0.0763,0.0934,0.1073,0.1116,0.1046,0.0913,0.0769,0.0651,0.0571,0.0587,0.0817,0.0993,0.103,0.1121,0.1207,0.1281,0.1479,0.181,0.205,0.2242,0.2408,0.0085,-0.0128,-0.0662,-0.1095,-0.11,-0.031,-0.0064,-0.0673,-0.04,0.0085,0.039,0.0828,0.0192,0.0422,0.0331,0.0609,0.0699,0.0443,0.0304,0.0294,0.0352,0.0427,0.0491,0.0459,0.0427,0.0454,0.0561,0.0694,0.086,0.0924,0.0913,0.0833,0.0715,0.0566,0.0443,0.0406,0.0561,0.0886,0.0913,0.0881,0.0902,0.0881,0.0892,0.0993,0.1249,0.1527,0.1612,0,0,-0.0497,-0.1356,-0.1356,-0.0315,-0.0027,-0.0683,-0.0198,0.0379,0.0673,0.1922,0,0.228,0.0763,0.0683,0.0673,0.0379,0.0235,0.0219,0.0278,0.0384,0.0555,0.0438,0.031,0.0283,0.0358,0.0523,0.0694,0.0689,0.0657,0.0689,0.0614,0.0523,0.0395,0.0299,0.039,0.0678,0.087,0.079,0.0641,0.0475,0.0379,0.0363,0.0497,0.087,0.1175,-0.0043,0.0123,-0.0315,-0.1431,-0.1468,0,0,-0.0886,0.0251,0.04,0.0651,0.2397,0.1159,0.4068,0,0,0,0,0,0,0,0,0.0614,0.0422,0.0235,0.0192,0.0272,0.047,0.0817,0.0625,0.0587,0.0593,0.0577,0.0582,0.0416,0.0304,0.0342,0.0561,0.086,0.0913,0.0758,0.0507,0.0251,0.0091,0.0107,0.0379,0.0678,0.0128,0.0278,-0.0208,-0.094,-0.0924,-0.0577,-0.0577,-0.0646,0.1105,0,0,0,0.204,0.3241,0.0363,0.0294,0.0203,0.0166,0.0123,0.0101,0.008,0,0,0,0,0,0,0,0.0683,0.0224,0.0491,0.0486,0.0523,0.0747,0.0507,0.0336,0.0219,0.0294,0.071,0.0902,0.0876,0.0742,0.0566,0.0422,0.0395,0.0363,0.0448,0.0347,0.0464,0.016,-0.039,-0.0582,-0.1383,-0.1153,-0.0085,0.1623,0.0,0.0,0.1025,0.1821,0.1623,0.0454,0.0166,0.0278,0.047,0.0336,0.0294,0.0155,0,0,0,0,0,0,0,0,0,0,0,0,0.087,0.0539,0.0379,0.0059,-0.0128,0.0731,0.1169,0.0886,0.071,0.0609,0.0587,0.0614,0.0571,0.0619,0,0.0619,0.0486,0.0133,-0.0331,-0.1169,0,0,0,0,0,0.2274,0.1805,0.1623,0.0315,-0.0454,-0.0497,0.0539,0.0464,0.0368,0,0,0,0,0,0,0,0,0,0,0,0,0,0,0,0,-0.0171,-0.0374,0,0,0.0812,0.0603,0.0513,0.0502,0.0529,0.0635,0.0876,0,0,0,0.0523,0.0021,-0.0721,0,0,0,0,0,0.2162,0.1789,0.1965,0.071,-0.0539,-0.134,0.0139,0.0491,0,0,0,0,0,0,0,0,0,0,0,0,0,0,0,0,0,0,-0.032,-0.0475,0,0,0,0,0,0,0,0.0966,0,0,0,0,0,0,0,0,0,0,0,0.157,0.1703,0.212,0.1137,-0.016,-0.1516,-0.0187,0,0,0,0,0,0,0,0,0,0,0,0,0,0,0,0,0,0,0,0,-0.0956,-0.031,-0.0005,0.0299,0,0,0,0,0,0,0,0,0,0,0,0,0,0,0,0,0.1127,0.0913,0.2274,0.1399,0.0176,-0.1303,0,0,0,0,0,0,0,0,0,0,0,0,0,0,0,0,0,0,0,0,0,0,-0.0619,-0.0011,0.0598,0.0,-0.016,0.0037,0,0,0,0,0,0,0,0,0,0,0,0,0,0,0.0448,0.2365,0.141,0.0192,-0.0977,0,0,0,0,0,0,0,0,0,0,0,0,0,0,0,0,0,0,0,0,0,0,0,0,0,0,-0.032,0.008,0,0,0,0,0,0,0,0,0,0,0,0,0,0,0.0635,0.2232,0.126,0.0101,-0.0886,0,0,0,0,0,0,0,0,0,0,0,0,0,0,0,0,0,0,0,0,0,0,0,0,0,0,0,0,0,0,0,0,0,0,0,0,0,0,0,0,0,0,0.0432,0.1879,0.1207,0.008,-0.1057,0,0,0,0,0,0,0,0,0,0,0,0,0,0,0,0,0,0,0,0,0,0,0,0,0,0,0,0,0,0,0,0,0,0,0,0,0,0,0,0,0,0,0.0235,0.1676,0.1255,0.0069,-0.1121,0,0,0,0,0,0,0,0,0,0,0,0,0,0,0,0,0,0,0,0,0,0,0,0,0,0,0,0,0,0,0,0,0,0,0,0,0,0,0,0,0,0,0,0.1191,0.0715,0.0609,-0.0475,0,0,0,0,0,0,0,0,0,0,0,0,0,0,0,0,0,0,0,0,0,0,0,0,0,0,0,0,0,0,0,0,0,0,0,0,0,0,0,0,0,0,0,0.0673,0.0411,0.0464,0.0096,0,0,0,0,0,0,0,0,0,0,0,0,0,0,0,0,0,0,0,0,0,0,0,0,0,0,0,0,0,0,0,0,0,0,0,0,0,0,0,0,0,0,0,0,0.0689,-0.0256,0,0,0,0,0,0,0,0,0,0,0,0,0,0,0,0,0,0,0,0,0,0,0,0,0,0,0,0,0,0,0,0,0,0,0,0,0,0,0,0,0,0,0,0,0,0,0,0,0,0,0,0,0,0,0,0,0,0,0,0,0,0,0,0,0,0,0,0,0,0,0,0,0,0,0,0,0,0,0,0,0,0,0,0,0,0,0,0,0,0,0,0,0,0,0,0,0,0,0,0,0,0,0,0,0,0,0,0,0,0,0,0,0,0,0,0,0,0,0,0,0,0,0,0,0,0,0,0,0,0,0,0,0,0,0,0,0,0,0,0,0,0,0,0,0,0,0,0,0,0,0,0,0,0,0,0,0,0,0,0,0,0,0,0,0,0,0,0,0,0,0,0,0,0,0,0,0,0,0,0,0,0,0,0,0,0,0,0,0,0,0,0,0,0,0,0,0,0,0,0,0,0,0,0,0,0,0,0,0,0,0,0,0,0,0,0,0,0,0,0,0,0,0,0,0,0,0,0,0,0,0,0,0,0,0,0,0,0,0,0,0,0,0,0,0,0,0,0,0,0,0,0,0,0,0,0,0,0,0,0,0,0,0,0,0,0,0,0,0,0,0,0,0,0,0,0,0,0,0,0,0,0,0,0,0,0,0,0,0,0,0,0,0,0,0,0,0,0,0,0,0,0,0,0,0,0,0,0,0,0,0,0,0]}]],[[{"header":{"parameterUnit":"kt","parameterCategory":2,"dx":1,"dy":1,"la1":29.764190673828125,"la2":30.86408042907715,"lo1":-88.46762084960938,"lo2":-86.9344482421875,"nx":47,"ny":34,"refTime":"2022-10-01T00:00:00:Z","depth":"6","parameterNumber":2,"parameterNumberName":"U-component_of_CURRENTS"},"data":[-0.0149,0.0085,0.0363,0.0646,0.0838,0.0865,0.0812,0.079,0.0849,0.0977,0.1089,0.1148,0.1175,0.1271,0.1479,0.1687,0.1805,0.189,0.2029,0.2301,0.2659,0.3065,0.3481,0.3785,0.394,0.3935,0.37,0.3497,0.3583,0.3791,0.409,0.4602,0.5264,0.5761,0.6535,0.7624,0.8489,0.9258,0.9909,1.0267,1.0235,1.0011,0.9915,1.0048,1.0166,1.0037,0.9765,-0.0112,0.0075,0.0256,0.0443,0.0619,0.0731,0.0812,0.0913,0.1068,0.1249,0.1388,0.1452,0.1458,0.1474,0.1575,0.173,0.1858,0.1943,0.2072,0.229,0.2563,0.2824,0.3081,0.3284,0.3337,0.33,0.3161,0.2878,0.2782,0.3017,0.3476,0.393,0.4693,0.5344,0.5857,0.6818,0.7795,0.8639,0.9349,0.9787,0.9819,0.9621,0.9536,0.9685,0.9835,0.9808,0.9658,-0.0016,0.0085,0.0235,0.0395,0.0561,0.071,0.0854,0.1036,0.1244,0.1447,0.1612,0.1703,0.1698,0.1666,0.1687,0.1767,0.1858,0.1949,0.2072,0.2226,0.2397,0.2547,0.267,0.2798,0.2862,0.2856,0.2878,0.2798,0.276,0.2953,0.3177,0.3268,0.339,0.394,0.4544,0.5403,0.6701,0.7886,0.8793,0.9327,0.9456,0.9354,0.9285,0.9402,0.9546,0.9568,0.9488,0.0112,0.0176,0.0278,0.0411,0.0593,0.0796,0.1009,0.1233,0.1463,0.1666,0.1815,0.1874,0.1847,0.1799,0.1794,0.1831,0.189,0.1981,0.2098,0.221,0.2333,0.2461,0.2568,0.2686,0.2766,0.2819,0.2974,0.3075,0.3086,0.3193,0.3118,0.2696,0.2232,0.221,0.2776,0.3732,0.5126,0.6797,0.8163,0.8895,0.9114,0.913,0.9119,0.9199,0.9338,0.9391,0.9354,0.0219,0.0278,0.04,0.0571,0.0769,0.0993,0.1228,0.1458,0.166,0.1799,0.1853,0.1842,0.181,0.1815,0.1869,0.1922,0.1965,0.2029,0.212,0.2194,0.2264,0.2328,0.2413,0.2557,0.2723,0.2846,0.307,0.3332,0.3422,0.3422,0.3305,0.2899,0.2376,0.1906,0.1741,0.2322,0.362,0.5398,0.7213,0.8345,0.8761,0.8906,0.8975,0.9076,0.9221,0.9285,0.9274,0.0326,0.0427,0.0571,0.0742,0.0929,0.1132,0.1324,0.149,0.1596,0.1623,0.1596,0.1591,0.1655,0.1778,0.1895,0.1959,0.1981,0.2007,0.204,0.2072,0.2093,0.2125,0.2216,0.2397,0.2643,0.2862,0.3033,0.331,0.362,0.3689,0.3518,0.3273,0.2883,0.2317,0.1885,0.1933,0.2675,0.4229,0.6161,0.7635,0.8345,0.8692,0.8906,0.9055,0.9183,0.9258,0.9274,0.0347,0.0475,0.0625,0.0785,0.094,0.1078,0.1207,0.1303,0.134,0.1351,0.1361,0.1415,0.1538,0.1676,0.1778,0.1826,0.1853,0.1874,0.1895,0.1895,0.189,0.1901,0.1981,0.2152,0.2403,0.2664,0.2862,0.3065,0.3337,0.3615,0.3743,0.3625,0.3246,0.268,0.2178,0.1943,0.2178,0.3139,0.4736,0.6428,0.7619,0.835,0.889,0.9162,0.9263,0.9327,0.9354,0.0246,0.0368,0.0518,0.0673,0.0812,0.0934,0.1036,0.1111,0.1159,0.1191,0.1249,0.1335,0.1442,0.1516,0.1548,0.158,0.1618,0.1655,0.1676,0.1676,0.1676,0.1709,0.1794,0.1949,0.2168,0.2397,0.26,0.275,0.2899,0.3102,0.3305,0.3433,0.3438,0.3214,0.2675,0.2114,0.189,0.221,0.3214,0.4629,0.6103,0.7437,0.851,0.9178,0.9461,0.9509,0.9504,0.0224,0.0342,0.0486,0.063,0.0753,0.086,0.0929,0.0977,0.103,0.11,0.1196,0.1303,0.1383,0.142,0.141,0.1393,0.1393,0.141,0.142,0.1431,0.1458,0.1506,0.1607,0.1757,0.1943,0.2152,0.2333,0.2477,0.2573,0.2654,0.2755,0.2888,0.2995,0.3022,0.2947,0.2611,0.2088,0.1826,0.2168,0.315,0.4474,0.5878,0.7363,0.8575,0.9247,0.9557,0.9658,0.0288,0.0368,0.0481,0.0609,0.0726,0.0806,0.0849,0.0892,0.0961,0.1057,0.1175,0.1276,0.1313,0.1308,0.1281,0.1244,0.1201,0.118,0.1185,0.1212,0.1255,0.1319,0.1415,0.1548,0.1703,0.1874,0.205,0.2205,0.2328,0.2408,0.2456,0.2467,0.2467,0.2504,0.2595,0.2707,0.2584,0.2189,0.2018,0.2371,0.3171,0.4373,0.5889,0.7272,0.8233,0.8922,0.9349,0.0278,0.0272,0.0363,0.0523,0.0678,0.0769,0.0801,0.0849,0.0961,0.1089,0.1207,0.1303,0.1388,0.1463,0.1345,0.1127,0.103,0.0988,0.0993,0.1025,0.1084,0.1159,0.1244,0.134,0.1452,0.1596,0.1757,0.1911,0.2045,0.2152,0.2221,0.2258,0.2274,0.229,0.2339,0.2451,0.2659,0.2632,0.2328,0.2269,0.2568,0.3187,0.4197,0.5537,0.6733,0.7539,0.8195,0.0187,0.0091,0.0117,0.0304,0.0534,0.0635,0.0555,0.0598,0.0854,0.1068,0.11,0.1078,0.1046,0.1009,0.1078,0.0982,0.0806,0.0785,0.0806,0.0849,0.0913,0.0998,0.1073,0.1137,0.1217,0.1319,0.1447,0.1586,0.1725,0.1853,0.1965,0.205,0.2114,0.2184,0.2242,0.229,0.2413,0.2632,0.2605,0.2381,0.2344,0.2541,0.2974,0.3684,0.4698,0.5809,0.6701,-0.0085,-0.0107,-0.016,-0.0037,0.0219,0.0347,0.016,0.0224,0.0571,0.078,0.0849,0.0587,0.0742,0.0822,0.0395,0.0432,0.0459,0.0561,0.0641,0.0699,0.0763,0.0849,0.0908,0.094,0.0982,0.1041,0.1121,0.1223,0.1361,0.1527,0.1698,0.1842,0.1954,0.2045,0.2125,0.2173,0.2216,0.2435,0.2648,0.2589,0.2413,0.2403,0.2504,0.2739,0.3198,0.3892,0.4794,0,0,-0.0032,0.0133,0.0059,0.0069,0.0128,0.0609,0.0507,0.0694,0.0806,0.079,0,-0.0844,-0.1538,-0.0747,0.0037,0.0395,0.055,0.0609,0.0678,0.0828,0.086,0.079,0.0796,0.0844,0.0897,0.0982,0.1073,0.1207,0.1388,0.1559,0.1698,0.1805,0.189,0.1938,0.197,0.2098,0.2419,0.2696,0.275,0.2728,0.2702,0.2664,0.2728,0.2963,0.3444,0.0395,0.0491,0.0566,0.0972,0.1287,0,0,0.024,0.0192,0.0166,0.0657,0.1676,0.1634,0.079,0,0,0,0,0,0,0,0,0.0208,0.0539,0.0699,0.0731,0.0737,0.0876,0.0918,0.0913,0.1068,0.1239,0.1388,0.1479,0.1522,0.1538,0.1548,0.1644,0.1917,0.2339,0.2776,0.3139,0.339,0.3454,0.3326,0.3118,0.307,0.0796,0.0619,0.0854,0.1009,0.0731,0.078,0.1591,0.1506,0.0785,0,0,0,0.0416,0.1516,0.1922,0.1415,0.1025,0.0726,0.0497,0.0315,0.023,0,0,0,0,0,0,0,0.0144,0.0486,0.078,0.0993,0.126,0.1292,0.1153,0.1089,0.1116,0.1335,0.1676,0.1954,0.2216,0.2515,0.2792,0.3011,0.3268,0.3412,0.3305,0.0763,0.0758,0.0956,0.1244,0.1559,0.1714,0.1319,0.0822,0.1201,0.181,0.2024,0.1554,0.0833,0.0726,0.0635,0.0699,0.0785,0.0614,0.0395,0.0149,0.0,0,0,0,0,0,0,0,0,0,0,0,0,0.031,0.0742,0.0763,0.0742,0.0876,0.1265,0.1522,0.1644,0.1799,0.1917,0.2034,0.2306,0.2718,0.3123,0,0.0299,0.0753,0.1164,0.1383,0.1351,0,0,0,0,0,0.0235,0.0539,0.0342,-0.0123,-0.0288,0.0053,0.0326,0.0187,0.0096,0,0,0,0,0,0,0,0,0,0,0,0,0,0,0,0,0.0219,0.0278,0,0,0.1105,0.1436,0.1575,0.1666,0.1767,0.2018,0.2173,0,0,0,0.0262,0.0566,0.0603,0,0,0,0,0,0.0646,0.1153,0.1014,0.063,-0.0048,-0.0577,-0.0288,0.0032,0,0,0,0,0,0,0,0,0,0,0,0,0,0,0,0,0,0,-0.0651,-0.0897,0,0,0,0,0,0,0,0.0363,0,0,0,0,0,0,0,0,0,0,0,0.0699,0.1538,0.166,0.1559,0.1356,0.0005,-0.1233,0,0,0,0,0,0,0,0,0,0,0,0,0,0,0,0,0,0,0,0,-0.0464,-0.0411,-0.0048,-0.0208,0,0,0,0,0,0,0,0,0,0,0,0,0,0,0,0,0.0625,0.158,0.1847,0.1719,0.1345,0.1036,0,0,0,0,0,0,0,0,0,0,0,0,0,0,0,0,0,0,0,0,0,0,-0.0139,0.008,0.0577,-0.031,-0.0844,-0.0347,0,0,0,0,0,0,0,0,0,0,0,0,0,0,0.1303,0.1543,0.1452,0.0908,0.0481,0,0,0,0,0,0,0,0,0,0,0,0,0,0,0,0,0,0,0,0,0,0,0,0,0,0,-0.0107,-0.0219,0,0,0,0,0,0,0,0,0,0,0,0,0,0,0.0464,0.1463,0.1596,0.0865,0.0513,0,0,0,0,0,0,0,0,0,0,0,0,0,0,0,0,0,0,0,0,0,0,0,0,0,0,0,0,0,0,0,0,0,0,0,0,0,0,0,0,0,0,0.0721,0.1767,0.1682,0.1036,0.0785,0,0,0,0,0,0,0,0,0,0,0,0,0,0,0,0,0,0,0,0,0,0,0,0,0,0,0,0,0,0,0,0,0,0,0,0,0,0,0,0,0,0,0.1297,0.2371,0.1858,0.1516,0.1468,0,0,0,0,0,0,0,0,0,0,0,0,0,0,0,0,0,0,0,0,0,0,0,0,0,0,0,0,0,0,0,0,0,0,0,0,0,0,0,0,0,0,0,0.1057,0.2226,0.1933,0.1479,0,0,0,0,0,0,0,0,0,0,0,0,0,0,0,0,0,0,0,0,0,0,0,0,0,0,0,0,0,0,0,0,0,0,0,0,0,0,0,0,0,0,0,0.047,0.0,-0.0438,0.0075,0,0,0,0,0,0,0,0,0,0,0,0,0,0,0,0,0,0,0,0,0,0,0,0,0,0,0,0,0,0,0,0,0,0,0,0,0,0,0,0,0,0,0,0,0.0144,0.0283,0,0,0,0,0,0,0,0,0,0,0,0,0,0,0,0,0,0,0,0,0,0,0,0,0,0,0,0,0,0,0,0,0,0,0,0,0,0,0,0,0,0,0,0,0,0,0,0,0,0,0,0,0,0,0,0,0,0,0,0,0,0,0,0,0,0,0,0,0,0,0,0,0,0,0,0,0,0,0,0,0,0,0,0,0,0,0,0,0,0,0,0,0,0,0,0,0,0,0,0,0,0,0,0,0,0,0,0,0,0,0,0,0,0,0,0,0,0,0,0,0,0,0,0,0,0,0,0,0,0,0,0,0,0,0,0,0,0,0,0,0,0,0,0,0,0,0,0,0,0,0,0,0,0,0,0,0,0,0,0,0,0,0,0,0,0,0,0,0,0,0,0,0,0,0,0,0,0,0,0,0,0,0,0,0,0,0,0,0,0,0,0,0,0,0,0,0,0,0,0,0,0,0,0,0,0,0,0,0,0,0,0,0,0,0,0,0,0,0,0,0,0,0,0,0,0,0,0,0,0,0,0,0,0,0,0,0,0,0,0,0,0,0,0,0,0,0,0,0,0,0,0,0,0,0,0,0,0,0,0,0,0,0,0,0,0,0,0,0,0,0,0,0,0,0,0,0,0,0,0,0,0,0,0,0,0,0,0,0,0,0,0,0,0,0,0,0,0,0,0,0,0,0,0,0,0,0,0,0,0,0,0,0]}],[{"header":{"parameterUnit":"kt","parameterCategory":2,"dx":1,"dy":1,"la1":29.764190673828125,"la2":30.86408042907715,"lo1":-88.46762084960938,"lo2":-86.9344482421875,"nx":47,"ny":34,"refTime":"2022-10-01T00:00:00:Z","depth":"6","parameterNumber":3,"parameterNumberName":"V-component_of_CURRENTS"},"data":[0.0577,0.0699,0.0774,0.0854,0.0988,0.1127,0.1153,0.1084,0.0918,0.0705,0.0539,0.0454,0.0448,0.0438,0.0363,0.0299,0.032,0.0497,0.0769,0.1095,0.1329,0.1404,0.1292,0.1121,0.1014,0.0998,0.1116,0.1495,0.1879,0.1922,0.1618,0.1255,0.102,0.1799,0.292,0.3849,0.4164,0.3801,0.3017,0.2365,0.2429,0.3203,0.4106,0.4746,0.5211,0.5814,0.6524,0.0646,0.0689,0.0646,0.071,0.0876,0.0977,0.0977,0.087,0.0715,0.0577,0.0491,0.0454,0.0459,0.0486,0.0454,0.0363,0.0304,0.0379,0.0582,0.0822,0.1014,0.1196,0.1271,0.1292,0.134,0.1351,0.1244,0.1281,0.1522,0.1511,0.1132,0.087,0.0918,0.1255,0.276,0.4266,0.4997,0.4832,0.4116,0.3417,0.3342,0.3956,0.4709,0.5238,0.5601,0.6087,0.6626,0.0747,0.0806,0.079,0.0763,0.0774,0.0796,0.078,0.0694,0.0577,0.0502,0.0464,0.0443,0.0438,0.0438,0.0406,0.0347,0.0304,0.0342,0.0486,0.0657,0.0838,0.1062,0.1308,0.149,0.157,0.1591,0.1511,0.1308,0.1292,0.1185,0.0545,0.0011,0.0,0.0075,0.1137,0.3444,0.519,0.5643,0.5238,0.456,0.4223,0.4522,0.5088,0.5494,0.5745,0.6103,0.653,0.0742,0.0876,0.0913,0.0908,0.0876,0.0833,0.0769,0.0683,0.0582,0.0507,0.0459,0.0438,0.0422,0.0384,0.032,0.0278,0.0272,0.0315,0.0432,0.0582,0.0758,0.0966,0.1217,0.1452,0.1564,0.1607,0.1602,0.134,0.1201,0.0982,0.032,-0.0459,-0.0785,-0.0705,-0.0742,0.0737,0.3396,0.5376,0.5868,0.5531,0.5056,0.5013,0.5344,0.5659,0.5846,0.6103,0.645,0.0603,0.0806,0.0913,0.0972,0.0982,0.094,0.0865,0.0763,0.0641,0.0518,0.0422,0.0368,0.0342,0.0315,0.0267,0.0251,0.0283,0.0342,0.0427,0.0534,0.0689,0.0886,0.1121,0.1356,0.149,0.1538,0.1559,0.1335,0.1073,0.0833,0.0374,-0.0267,-0.0587,-0.0582,-0.0683,-0.0774,0.0566,0.3139,0.4992,0.567,0.5643,0.5515,0.5611,0.5846,0.6038,0.6241,0.6498,0.0438,0.0641,0.078,0.086,0.0892,0.0865,0.079,0.0673,0.0539,0.039,0.0283,0.0251,0.0262,0.0272,0.0267,0.0294,0.0347,0.0395,0.0443,0.0513,0.0625,0.0806,0.1057,0.1308,0.1458,0.1495,0.1516,0.1377,0.102,0.0667,0.0278,-0.0059,-0.0262,-0.0331,-0.0005,0.0005,-0.0069,0.1121,0.2958,0.4512,0.551,0.5782,0.5836,0.5969,0.6129,0.6311,0.6508,0.0235,0.0363,0.0481,0.0566,0.0609,0.0598,0.0534,0.0443,0.0347,0.0262,0.023,0.0251,0.0288,0.031,0.0326,0.0368,0.0411,0.0438,0.0464,0.0513,0.0587,0.0726,0.0956,0.1212,0.1415,0.149,0.1495,0.1452,0.1212,0.0801,0.0331,-0.0048,-0.031,-0.039,-0.0144,0.0283,0.0598,0.086,0.1698,0.3091,0.456,0.5526,0.5841,0.5905,0.5964,0.6103,0.6236,-0.0032,0.0032,0.0112,0.0208,0.0278,0.0315,0.0304,0.0272,0.024,0.024,0.0272,0.0326,0.0363,0.0384,0.0411,0.0438,0.0448,0.0448,0.0464,0.0507,0.0571,0.0673,0.0833,0.1041,0.1255,0.1404,0.1468,0.1484,0.1404,0.1159,0.0769,0.0368,0.0011,-0.0272,-0.0331,-0.0064,0.0481,0.087,0.1313,0.2221,0.3561,0.4859,0.5483,0.5702,0.5697,0.5713,0.5756,-0.0182,-0.0139,-0.008,0.0021,0.0133,0.0214,0.0251,0.0251,0.0256,0.0283,0.0347,0.0416,0.047,0.0502,0.0529,0.0513,0.047,0.0448,0.0464,0.0513,0.0566,0.0625,0.0721,0.0865,0.1041,0.1223,0.1367,0.1452,0.1447,0.1319,0.1111,0.0849,0.055,0.0283,0.0059,-0.0011,0.0246,0.0694,0.1073,0.1639,0.267,0.3898,0.4746,0.5195,0.535,0.5328,0.5334,-0.0139,-0.0133,-0.0117,-0.0021,0.0107,0.0224,0.0278,0.0294,0.0315,0.0363,0.0422,0.0486,0.0545,0.0561,0.0593,0.0582,0.0523,0.0464,0.0464,0.0507,0.0561,0.0593,0.063,0.0705,0.0833,0.1004,0.118,0.1329,0.1388,0.1319,0.1164,0.0966,0.078,0.0646,0.0523,0.0443,0.0432,0.0699,0.1046,0.1372,0.1954,0.291,0.3732,0.4143,0.4517,0.4746,0.4811,-0.0016,-0.0112,-0.0192,-0.0117,0.0032,0.0203,0.0272,0.0278,0.0342,0.0416,0.0427,0.0432,0.0534,0.0523,0.0662,0.0721,0.0609,0.0491,0.0443,0.0475,0.0534,0.0561,0.0566,0.0587,0.0662,0.0796,0.0972,0.1143,0.1249,0.1239,0.1121,0.095,0.079,0.0678,0.0619,0.0689,0.0785,0.0881,0.1121,0.1313,0.158,0.2077,0.2654,0.3054,0.3316,0.3599,0.3865,0.0139,-0.0032,-0.0347,-0.0384,-0.0224,0.0107,0.0198,0.008,0.0224,0.04,0.0427,0.0507,0.0577,0.0497,0.0683,0.087,0.0715,0.0513,0.0406,0.0416,0.0475,0.0513,0.0513,0.0497,0.0518,0.0609,0.0758,0.0924,0.1062,0.11,0.103,0.0897,0.0758,0.0646,0.0582,0.0619,0.086,0.1062,0.1084,0.1175,0.1303,0.1458,0.1671,0.2024,0.229,0.2509,0.2664,0.0198,0.0032,-0.0448,-0.0715,-0.0603,0.0064,0.0198,-0.0214,0.0096,0.0497,0.0747,0.1345,0.0886,0.1207,0.1111,0.1052,0.0742,0.0454,0.032,0.031,0.0368,0.0438,0.0497,0.0459,0.0427,0.0454,0.0555,0.071,0.0865,0.0929,0.0913,0.0833,0.0731,0.0625,0.0539,0.0545,0.0726,0.1068,0.1052,0.0977,0.0982,0.0993,0.1014,0.1121,0.1431,0.1778,0.1901,0,0,-0.0368,-0.0838,-0.0486,0.0219,0.0331,0.0069,0.0502,0.0689,0.0854,0.1831,0,0.2408,0.1532,0.1127,0.0721,0.0395,0.0262,0.0246,0.031,0.0411,0.0577,0.0454,0.0326,0.0304,0.0384,0.0545,0.0763,0.0796,0.079,0.0769,0.0699,0.0619,0.0518,0.0491,0.0641,0.095,0.1127,0.0961,0.0774,0.0603,0.0502,0.0481,0.063,0.1041,0.1377,0.0005,0.0166,-0.0011,-0.095,-0.0694,0,0,0.0,0.0806,0.0497,0.0673,0.2104,0.1153,0.3465,0,0,0,0,0,0,0,0,0.0641,0.0443,0.0262,0.0224,0.0315,0.0486,0.0817,0.0657,0.0625,0.0619,0.0614,0.0625,0.0502,0.0438,0.0555,0.0844,0.1143,0.1143,0.0934,0.0662,0.0416,0.0256,0.0267,0.0497,0.0785,0.0288,0.0593,0.0475,-0.0561,-0.0742,-0.0251,-0.0198,0.0133,0.1308,0,0,0,0.2258,0.3091,0.0507,0.0331,0.023,0.0182,0.0139,0.0117,0.0096,0,0,0,0,0,0,0,0.0683,0.0251,0.0518,0.0518,0.0561,0.0758,0.0529,0.0395,0.0358,0.0571,0.1025,0.1201,0.1062,0.087,0.0667,0.0534,0.0507,0.0454,0.0529,0.0561,0.0758,0.0897,0.0117,-0.0699,-0.0844,-0.0395,0.0427,0.1522,0.0,0.0,0.1185,0.2157,0.2226,0.1105,0.063,0.0529,0.0486,0.0358,0.032,0.0192,0,0,0,0,0,0,0,0,0,0,0,0,0.0876,0.0555,0.0395,0.0096,0.0085,0.1073,0.1233,0.094,0.0731,0.0609,0.0571,0.0598,0.0587,0.0635,0,0.0667,0.1073,0.0491,-0.031,-0.0924,0,0,0,0,0,0.2328,0.1906,0.1954,0.1324,0.0667,0.0438,0.0774,0.0486,0.0384,0,0,0,0,0,0,0,0,0,0,0,0,0,0,0,0,-0.0128,-0.0299,0,0,0.0753,0.055,0.0454,0.0432,0.0459,0.0582,0.0886,0,0,0,0.0571,0.0043,-0.0662,0,0,0,0,0,0.212,0.1628,0.1789,0.1452,0.0977,0.0566,0.1308,0.0523,0,0,0,0,0,0,0,0,0,0,0,0,0,0,0,0,0,0,-0.0294,-0.0459,0,0,0,0,0,0,0,0.0998,0,0,0,0,0,0,0,0,0,0,0,0.1981,0.1452,0.1436,0.1196,0.0966,0.0865,0.1682,0,0,0,0,0,0,0,0,0,0,0,0,0,0,0,0,0,0,0,0,-0.0913,-0.0176,0.0214,0.0347,0,0,0,0,0,0,0,0,0,0,0,0,0,0,0,0,0.1554,0.1308,0.1313,0.1159,0.0913,0.0513,0,0,0,0,0,0,0,0,0,0,0,0,0,0,0,0,0,0,0,0,0,0,-0.0352,0.0427,0.0699,0.0,-0.0166,0.0059,0,0,0,0,0,0,0,0,0,0,0,0,0,0,0.1858,0.1975,0.1292,0.1265,0.0133,0,0,0,0,0,0,0,0,0,0,0,0,0,0,0,0,0,0,0,0,0,0,0,0,0,0,-0.0336,0.0112,0,0,0,0,0,0,0,0,0,0,0,0,0,0,0.2194,0.2285,0.1143,0.1287,0.0182,0,0,0,0,0,0,0,0,0,0,0,0,0,0,0,0,0,0,0,0,0,0,0,0,0,0,0,0,0,0,0,0,0,0,0,0,0,0,0,0,0,0,0.1783,0.2061,0.1506,0.1159,0.0336,0,0,0,0,0,0,0,0,0,0,0,0,0,0,0,0,0,0,0,0,0,0,0,0,0,0,0,0,0,0,0,0,0,0,0,0,0,0,0,0,0,0,0.1639,0.2258,0.205,0.1185,0.0571,0,0,0,0,0,0,0,0,0,0,0,0,0,0,0,0,0,0,0,0,0,0,0,0,0,0,0,0,0,0,0,0,0,0,0,0,0,0,0,0,0,0,0,0.149,0.1644,0.1148,0.0673,0,0,0,0,0,0,0,0,0,0,0,0,0,0,0,0,0,0,0,0,0,0,0,0,0,0,0,0,0,0,0,0,0,0,0,0,0,0,0,0,0,0,0,0.0406,0.0961,0.0459,0.0614,0,0,0,0,0,0,0,0,0,0,0,0,0,0,0,0,0,0,0,0,0,0,0,0,0,0,0,0,0,0,0,0,0,0,0,0,0,0,0,0,0,0,0,0,0.0812,-0.0182,0,0,0,0,0,0,0,0,0,0,0,0,0,0,0,0,0,0,0,0,0,0,0,0,0,0,0,0,0,0,0,0,0,0,0,0,0,0,0,0,0,0,0,0,0,0,0,0,0,0,0,0,0,0,0,0,0,0,0,0,0,0,0,0,0,0,0,0,0,0,0,0,0,0,0,0,0,0,0,0,0,0,0,0,0,0,0,0,0,0,0,0,0,0,0,0,0,0,0,0,0,0,0,0,0,0,0,0,0,0,0,0,0,0,0,0,0,0,0,0,0,0,0,0,0,0,0,0,0,0,0,0,0,0,0,0,0,0,0,0,0,0,0,0,0,0,0,0,0,0,0,0,0,0,0,0,0,0,0,0,0,0,0,0,0,0,0,0,0,0,0,0,0,0,0,0,0,0,0,0,0,0,0,0,0,0,0,0,0,0,0,0,0,0,0,0,0,0,0,0,0,0,0,0,0,0,0,0,0,0,0,0,0,0,0,0,0,0,0,0,0,0,0,0,0,0,0,0,0,0,0,0,0,0,0,0,0,0,0,0,0,0,0,0,0,0,0,0,0,0,0,0,0,0,0,0,0,0,0,0,0,0,0,0,0,0,0,0,0,0,0,0,0,0,0,0,0,0,0,0,0,0,0,0,0,0,0,0,0,0,0,0,0,0,0,0,0,0,0,0,0,0,0,0,0,0,0,0,0,0,0,0,0]}]],[[{"header":{"parameterUnit":"kt","parameterCategory":2,"dx":1,"dy":1,"la1":29.764190673828125,"la2":30.86408042907715,"lo1":-88.46762084960938,"lo2":-86.9344482421875,"nx":47,"ny":34,"refTime":"2022-10-01T00:00:00:Z","depth":"8","parameterNumber":2,"parameterNumberName":"U-component_of_CURRENTS"},"data":[-0.0069,0.0166,0.0448,0.0731,0.0929,0.0966,0.0929,0.0918,0.0982,0.1111,0.1217,0.126,0.1281,0.1367,0.1548,0.1741,0.1858,0.1943,0.2088,0.2355,0.2707,0.3107,0.3518,0.3823,0.3967,0.3956,0.3721,0.355,0.3641,0.3817,0.4074,0.4533,0.5174,0.5707,0.6524,0.763,0.8473,0.9221,0.9867,1.0224,1.0203,1.0011,0.992,1.0027,1.0112,0.9984,0.9749,0.0,0.0171,0.0342,0.0523,0.0705,0.0828,0.0924,0.1036,0.1196,0.1372,0.1495,0.1543,0.1538,0.1559,0.1655,0.1794,0.1917,0.2002,0.212,0.2339,0.2611,0.2872,0.3123,0.331,0.3358,0.3321,0.3193,0.2942,0.2856,0.3043,0.3417,0.3817,0.4565,0.5264,0.5804,0.6813,0.78,0.8633,0.9338,0.9765,0.9808,0.9626,0.9546,0.9664,0.9781,0.9749,0.9637,0.0107,0.0198,0.0336,0.0486,0.0641,0.0801,0.0961,0.1143,0.1351,0.1543,0.1692,0.1762,0.1762,0.1746,0.1778,0.1853,0.1922,0.1997,0.2104,0.2253,0.2419,0.2568,0.2686,0.2803,0.2867,0.2872,0.2899,0.284,0.2808,0.2931,0.307,0.3139,0.3268,0.3844,0.4512,0.5403,0.6717,0.7891,0.8793,0.9306,0.945,0.9365,0.9301,0.9386,0.9493,0.9509,0.9466,0.0235,0.0294,0.0384,0.0513,0.0683,0.0892,0.1105,0.1329,0.1543,0.173,0.1858,0.1917,0.1911,0.189,0.1906,0.1938,0.1949,0.1991,0.2072,0.2178,0.2301,0.2435,0.2563,0.2686,0.2771,0.283,0.299,0.3102,0.3107,0.3187,0.307,0.2648,0.2232,0.2226,0.2787,0.3748,0.5158,0.6829,0.8179,0.8895,0.9108,0.913,0.9119,0.9183,0.9295,0.9349,0.9333,0.0326,0.0384,0.0497,0.0651,0.0838,0.1052,0.1281,0.15,0.1687,0.1821,0.1895,0.1911,0.1911,0.1943,0.1997,0.2002,0.1975,0.1981,0.2029,0.2098,0.2173,0.2264,0.2392,0.2563,0.2728,0.2851,0.307,0.3337,0.3433,0.3428,0.33,0.291,0.2397,0.1954,0.1821,0.236,0.362,0.5414,0.7256,0.8372,0.8761,0.89,0.897,0.906,0.9194,0.9263,0.9263,0.0395,0.0497,0.063,0.0796,0.0972,0.1169,0.1356,0.1522,0.1634,0.1692,0.1698,0.1714,0.1783,0.1895,0.1981,0.1986,0.1943,0.1933,0.1959,0.1986,0.2007,0.2045,0.2141,0.2328,0.2568,0.2766,0.2947,0.3273,0.3615,0.3695,0.354,0.33,0.291,0.2349,0.1954,0.2007,0.2696,0.4207,0.6156,0.7646,0.8372,0.8697,0.8895,0.9039,0.9162,0.9221,0.9247,0.0406,0.0529,0.0678,0.0833,0.0993,0.1137,0.1276,0.1383,0.1447,0.1474,0.1495,0.1543,0.165,0.1757,0.1805,0.1799,0.1783,0.1789,0.181,0.1821,0.1826,0.1858,0.1943,0.2104,0.2333,0.2573,0.276,0.2969,0.3284,0.3615,0.3775,0.3689,0.331,0.2739,0.221,0.1975,0.2184,0.3107,0.4688,0.6407,0.7624,0.8361,0.889,0.9151,0.9242,0.9301,0.9327,0.0331,0.0448,0.0598,0.0758,0.0902,0.103,0.1143,0.1228,0.1287,0.1329,0.1383,0.1452,0.1511,0.1543,0.1543,0.1527,0.1532,0.1564,0.1591,0.1612,0.1634,0.1676,0.1762,0.1917,0.2114,0.2333,0.2515,0.2659,0.2808,0.3027,0.3268,0.3433,0.347,0.3278,0.2744,0.2141,0.1879,0.2178,0.3155,0.4576,0.6081,0.7437,0.8516,0.9178,0.945,0.9498,0.9488,0.0304,0.0416,0.055,0.0694,0.0822,0.094,0.103,0.11,0.1164,0.1228,0.1308,0.1383,0.1415,0.1404,0.1367,0.1329,0.1319,0.1335,0.1356,0.1388,0.1426,0.1484,0.158,0.1725,0.1906,0.2098,0.2269,0.2403,0.2499,0.2573,0.267,0.2798,0.2931,0.3022,0.2974,0.2621,0.2077,0.1794,0.2114,0.3091,0.4426,0.5862,0.7368,0.858,0.9242,0.9546,0.9637,0.0342,0.0411,0.0518,0.0641,0.0763,0.0865,0.0945,0.1014,0.1073,0.1143,0.1207,0.126,0.1287,0.1281,0.1255,0.1207,0.1159,0.1137,0.1148,0.118,0.1228,0.1297,0.1393,0.1522,0.1676,0.1842,0.2002,0.2152,0.2269,0.2344,0.2387,0.2397,0.2397,0.2435,0.2547,0.2691,0.2563,0.2168,0.1981,0.2317,0.3129,0.4351,0.5878,0.7266,0.8222,0.8916,0.9333,0.0299,0.0294,0.0374,0.0523,0.0678,0.0806,0.0902,0.0988,0.1062,0.1089,0.1121,0.1153,0.1201,0.1276,0.1212,0.1073,0.0998,0.0966,0.0966,0.1004,0.1062,0.1143,0.1223,0.1319,0.1431,0.157,0.1725,0.1874,0.2002,0.2104,0.2173,0.2205,0.2216,0.2226,0.2264,0.2392,0.2621,0.26,0.2306,0.2237,0.2515,0.3145,0.417,0.5521,0.6727,0.7533,0.8195,0.0182,0.0096,0.0123,0.0315,0.0561,0.0731,0.079,0.0886,0.1073,0.1169,0.1201,0.1089,0.1148,0.1319,0.1111,0.0881,0.078,0.0769,0.079,0.0833,0.0897,0.0977,0.1052,0.1116,0.1196,0.1297,0.1426,0.1559,0.1698,0.1826,0.1933,0.2013,0.2072,0.213,0.2189,0.2237,0.2371,0.2605,0.26,0.2371,0.2339,0.2531,0.2953,0.3663,0.4688,0.5814,0.6701,-0.0096,-0.0112,-0.0155,0.0048,0.0326,0.0523,0.0614,0.0705,0.0828,0.095,0.103,0.031,0.0769,0.1078,0.016,0.0182,0.0416,0.055,0.0625,0.0683,0.0747,0.0828,0.0892,0.0924,0.0966,0.1025,0.1105,0.1207,0.134,0.1506,0.1676,0.1815,0.1922,0.2007,0.2082,0.2125,0.2157,0.2376,0.2632,0.2584,0.2403,0.2392,0.2483,0.2712,0.3182,0.3892,0.4811,0,0,-0.0016,0.0294,0.016,0.016,0.0828,0.1095,0.0566,0.0683,0.0758,0.0715,0,-0.0758,-0.1431,-0.0785,0.0032,0.0395,0.0539,0.0598,0.0662,0.0806,0.0838,0.0769,0.078,0.0828,0.0886,0.0966,0.1057,0.1191,0.1367,0.1532,0.1671,0.1773,0.1853,0.1895,0.1917,0.2013,0.2365,0.2696,0.2755,0.2734,0.2696,0.2648,0.2728,0.2969,0.3438,0.0379,0.0475,0.0566,0.1132,0.1591,0,0,0.0198,0.0139,0.0171,0.0667,0.1575,0.1484,0.0705,0,0,0,0,0,0,0,0,0.0203,0.0523,0.0683,0.0715,0.0726,0.086,0.0892,0.0892,0.1046,0.1212,0.1356,0.1447,0.1484,0.1506,0.1506,0.1538,0.1767,0.2221,0.2712,0.3102,0.3364,0.3449,0.3332,0.3129,0.3065,0.0683,0.0529,0.071,0.1543,0.2002,0.1682,0.1495,0.11,0.0694,0,0,0,0.0448,0.1367,0.1682,0.1335,0.0982,0.0705,0.0486,0.031,0.023,0,0,0,0,0,0,0,0.0144,0.0481,0.0763,0.0972,0.1217,0.1244,0.1116,0.1062,0.1084,0.1228,0.1458,0.173,0.2045,0.2376,0.2664,0.2904,0.3193,0.338,0.33,0.0705,0.0619,0.0614,0.1207,0.1586,0.1404,0.1116,0.0769,0.1148,0.1714,0.1853,0.1623,0.1468,0.157,0.1271,0.0854,0.0678,0.0587,0.0384,0.0149,0.0005,0,0,0,0,0,0,0,0,0,0,0,0,0.0304,0.0721,0.0737,0.0726,0.0828,0.1148,0.1377,0.1484,0.165,0.1789,0.1927,0.2216,0.2648,0.3075,0,0.0288,0.0561,0.0715,0.0988,0.1078,0,0,0,0,0,0.0641,0.1725,0.1922,0.11,0.0326,0.0224,0.0294,0.0187,0.0096,0,0,0,0,0,0,0,0,0,0,0,0,0,0,0,0,0.023,0.0288,0,0,0.1046,0.1361,0.15,0.1596,0.1714,0.1965,0.213,0,0,0,0.0262,0.0571,0.0619,0,0,0,0,0,0.0641,0.1623,0.1821,0.1495,0.0881,-0.0246,-0.0347,0.0037,0,0,0,0,0,0,0,0,0,0,0,0,0,0,0,0,0,0,-0.0635,-0.0876,0,0,0,0,0,0,0,0.0358,0,0,0,0,0,0,0,0,0,0,0,0.0614,0.1201,0.1233,0.1239,0.0838,-0.0187,-0.0854,0,0,0,0,0,0,0,0,0,0,0,0,0,0,0,0,0,0,0,0,-0.0475,-0.0491,-0.0128,-0.023,0,0,0,0,0,0,0,0,0,0,0,0,0,0,0,0,0.0699,0.1303,0.1265,0.1228,0.087,0.0603,0,0,0,0,0,0,0,0,0,0,0,0,0,0,0,0,0,0,0,0,0,0,0.0224,0.0021,-0.0304,-0.0577,-0.0689,-0.0411,0,0,0,0,0,0,0,0,0,0,0,0,0,0,0.1356,0.1233,0.1175,0.0956,0.0747,0,0,0,0,0,0,0,0,0,0,0,0,0,0,0,0,0,0,0,0,0,0,0,0,0,0,-0.0107,-0.0219,0,0,0,0,0,0,0,0,0,0,0,0,0,0,0.0251,0.0763,0.1073,0.0908,0.0689,0,0,0,0,0,0,0,0,0,0,0,0,0,0,0,0,0,0,0,0,0,0,0,0,0,0,0,0,0,0,0,0,0,0,0,0,0,0,0,0,0,0,0.0288,0.0731,0.1014,0.1009,0.0881,0,0,0,0,0,0,0,0,0,0,0,0,0,0,0,0,0,0,0,0,0,0,0,0,0,0,0,0,0,0,0,0,0,0,0,0,0,0,0,0,0,0,0.0619,0.1078,0.0998,0.1004,0.0934,0,0,0,0,0,0,0,0,0,0,0,0,0,0,0,0,0,0,0,0,0,0,0,0,0,0,0,0,0,0,0,0,0,0,0,0,0,0,0,0,0,0,0,0.0347,0.0731,0.0662,0.055,0,0,0,0,0,0,0,0,0,0,0,0,0,0,0,0,0,0,0,0,0,0,0,0,0,0,0,0,0,0,0,0,0,0,0,0,0,0,0,0,0,0,0,0.0171,-0.0203,-0.0288,0.0166,0,0,0,0,0,0,0,0,0,0,0,0,0,0,0,0,0,0,0,0,0,0,0,0,0,0,0,0,0,0,0,0,0,0,0,0,0,0,0,0,0,0,0,0,0.0117,0.0235,0,0,0,0,0,0,0,0,0,0,0,0,0,0,0,0,0,0,0,0,0,0,0,0,0,0,0,0,0,0,0,0,0,0,0,0,0,0,0,0,0,0,0,0,0,0,0,0,0,0,0,0,0,0,0,0,0,0,0,0,0,0,0,0,0,0,0,0,0,0,0,0,0,0,0,0,0,0,0,0,0,0,0,0,0,0,0,0,0,0,0,0,0,0,0,0,0,0,0,0,0,0,0,0,0,0,0,0,0,0,0,0,0,0,0,0,0,0,0,0,0,0,0,0,0,0,0,0,0,0,0,0,0,0,0,0,0,0,0,0,0,0,0,0,0,0,0,0,0,0,0,0,0,0,0,0,0,0,0,0,0,0,0,0,0,0,0,0,0,0,0,0,0,0,0,0,0,0,0,0,0,0,0,0,0,0,0,0,0,0,0,0,0,0,0,0,0,0,0,0,0,0,0,0,0,0,0,0,0,0,0,0,0,0,0,0,0,0,0,0,0,0,0,0,0,0,0,0,0,0,0,0,0,0,0,0,0,0,0,0,0,0,0,0,0,0,0,0,0,0,0,0,0,0,0,0,0,0,0,0,0,0,0,0,0,0,0,0,0,0,0,0,0,0,0,0,0,0,0,0,0,0,0,0,0,0,0,0,0,0,0,0,0,0,0,0,0,0,0,0,0,0,0,0,0,0,0,0,0,0,0,0,0]}],[{"header":{"parameterUnit":"kt","parameterCategory":2,"dx":1,"dy":1,"la1":29.764190673828125,"la2":30.86408042907715,"lo1":-88.46762084960938,"lo2":-86.9344482421875,"nx":47,"ny":34,"refTime":"2022-10-01T00:00:00:Z","depth":"8","parameterNumber":3,"parameterNumberName":"V-component_of_CURRENTS"},"data":[0.0742,0.086,0.0924,0.0998,0.1127,0.126,0.1276,0.1185,0.1009,0.0785,0.0598,0.0486,0.0459,0.0454,0.0406,0.0358,0.039,0.055,0.0812,0.1127,0.1361,0.1436,0.1335,0.1169,0.1062,0.1046,0.1175,0.1554,0.1917,0.1954,0.1698,0.1383,0.1105,0.1815,0.2904,0.3828,0.4111,0.3769,0.3006,0.2365,0.2429,0.3193,0.4095,0.4752,0.5232,0.5846,0.6546,0.0774,0.0833,0.0801,0.0865,0.103,0.1127,0.1105,0.0988,0.0817,0.0662,0.0561,0.0491,0.0464,0.0481,0.0454,0.039,0.0363,0.0454,0.0646,0.0876,0.1052,0.1223,0.1297,0.1324,0.1372,0.1393,0.1303,0.134,0.157,0.1548,0.1164,0.0897,0.095,0.1265,0.2734,0.4197,0.4939,0.4773,0.4111,0.3422,0.3348,0.3951,0.4698,0.5243,0.5627,0.6119,0.6658,0.0817,0.0897,0.0897,0.0892,0.0918,0.094,0.0913,0.0812,0.0683,0.0587,0.0529,0.0481,0.0459,0.0443,0.0411,0.0363,0.0363,0.0432,0.0566,0.0721,0.0886,0.11,0.134,0.1516,0.1596,0.1618,0.1559,0.1351,0.1324,0.1217,0.0593,0.0096,0.0101,0.0214,0.1233,0.3428,0.5093,0.5595,0.5227,0.4576,0.4234,0.4528,0.5083,0.5499,0.5766,0.6135,0.6556,0.0763,0.0908,0.0966,0.0977,0.0966,0.0929,0.087,0.0774,0.0657,0.0566,0.0502,0.047,0.0448,0.0416,0.0363,0.0331,0.0352,0.0416,0.0518,0.0646,0.0801,0.1004,0.1249,0.1479,0.1596,0.1628,0.1634,0.1367,0.1212,0.0998,0.0368,-0.0326,-0.0609,-0.0454,-0.0464,0.0918,0.3444,0.5323,0.5825,0.5521,0.5077,0.5024,0.535,0.5665,0.5868,0.6129,0.646,0.0625,0.0817,0.0918,0.0977,0.0993,0.0961,0.0886,0.0785,0.0657,0.0539,0.0454,0.0416,0.0411,0.04,0.0363,0.0352,0.0374,0.0416,0.0481,0.0571,0.0699,0.0892,0.1143,0.1388,0.1532,0.1575,0.1596,0.1356,0.1084,0.0838,0.0395,-0.0192,-0.0475,-0.0432,-0.0395,-0.0406,0.0838,0.3235,0.4965,0.5617,0.5638,0.5521,0.5617,0.5846,0.6049,0.6252,0.6498,0.047,0.0651,0.0774,0.0844,0.087,0.0849,0.078,0.0678,0.0555,0.0427,0.0358,0.0358,0.0384,0.0411,0.0406,0.0411,0.0422,0.0438,0.0464,0.0523,0.0614,0.0785,0.1036,0.1308,0.1495,0.1538,0.1554,0.142,0.1057,0.0699,0.032,-0.0005,-0.0224,-0.0283,0.0096,0.024,0.0315,0.1426,0.3091,0.4517,0.5451,0.5772,0.5841,0.598,0.614,0.6332,0.6524,0.0304,0.0422,0.0518,0.0587,0.0625,0.0614,0.0566,0.0497,0.0422,0.0363,0.0352,0.0395,0.0443,0.0464,0.0481,0.0481,0.0475,0.0464,0.047,0.0502,0.0571,0.0705,0.0918,0.1175,0.1393,0.149,0.1506,0.149,0.126,0.0881,0.0443,0.0075,-0.0219,-0.0326,-0.0117,0.0326,0.0785,0.1191,0.1986,0.3214,0.457,0.551,0.5836,0.591,0.598,0.6135,0.6273,0.0117,0.0182,0.0251,0.0331,0.0395,0.0422,0.0422,0.04,0.039,0.0395,0.0427,0.0481,0.0529,0.0539,0.0539,0.0523,0.0497,0.047,0.047,0.0502,0.0555,0.0651,0.0806,0.1009,0.1207,0.1367,0.1447,0.1474,0.141,0.1201,0.087,0.0497,0.0149,-0.0144,-0.024,-0.0011,0.0539,0.1046,0.1602,0.2461,0.3657,0.4853,0.5462,0.5697,0.5702,0.5723,0.5782,0.0027,0.0064,0.0117,0.0208,0.0299,0.0368,0.0406,0.0416,0.0432,0.0464,0.0518,0.0566,0.0587,0.0577,0.0571,0.0539,0.0497,0.0464,0.0475,0.0513,0.0561,0.0614,0.0705,0.0838,0.1004,0.1175,0.1324,0.1415,0.1415,0.1303,0.1116,0.0881,0.0625,0.0368,0.0155,0.0059,0.0304,0.078,0.1271,0.1922,0.2888,0.3994,0.4757,0.5179,0.5339,0.5328,0.5344,0.0059,0.0053,0.0064,0.0149,0.0256,0.0358,0.0416,0.0443,0.0481,0.0523,0.0539,0.0545,0.0561,0.0555,0.0582,0.0582,0.0523,0.0475,0.047,0.0513,0.0555,0.0587,0.0625,0.0694,0.0817,0.0977,0.1148,0.1292,0.1351,0.1281,0.1137,0.095,0.078,0.0657,0.055,0.0475,0.0491,0.0753,0.1153,0.1591,0.221,0.3118,0.3844,0.4186,0.4517,0.4746,0.4816,0.0128,0.0016,-0.0064,0.0005,0.0144,0.031,0.039,0.0411,0.0481,0.0529,0.0523,0.0555,0.0603,0.0625,0.0737,0.0705,0.0603,0.0491,0.0448,0.0475,0.0534,0.0561,0.0566,0.0582,0.0651,0.0785,0.0956,0.1116,0.1217,0.1207,0.1095,0.0929,0.0774,0.0667,0.0609,0.0683,0.0812,0.0924,0.1169,0.1426,0.1746,0.2269,0.2808,0.315,0.3385,0.3657,0.3914,0.0208,0.0027,-0.0246,-0.0235,-0.0037,0.0278,0.0342,0.0288,0.0438,0.0582,0.0651,0.0929,0.0924,0.0934,0.1073,0.0993,0.0705,0.0507,0.0406,0.0416,0.0475,0.0507,0.0507,0.0491,0.0518,0.0603,0.0747,0.0913,0.1046,0.1084,0.1014,0.0886,0.0747,0.0635,0.0571,0.0619,0.086,0.1111,0.1127,0.1228,0.1377,0.1548,0.1767,0.212,0.2387,0.2621,0.2771,0.0251,0.0069,-0.039,-0.0475,-0.0187,0.0422,0.0459,0.023,0.0555,0.0817,0.1057,0.1458,0.1281,0.1837,0.1644,0.1185,0.0737,0.0454,0.0326,0.032,0.0379,0.0443,0.0497,0.0459,0.0422,0.0448,0.0555,0.0705,0.0854,0.0924,0.0908,0.0828,0.0731,0.063,0.055,0.0566,0.0763,0.1143,0.1153,0.1052,0.1052,0.1057,0.1078,0.1201,0.1511,0.1869,0.2007,0,0,-0.0347,-0.0577,-0.0075,0.0715,0.0678,0.0694,0.0924,0.0763,0.0881,0.1692,0,0.2189,0.141,0.1153,0.0715,0.0406,0.0272,0.0262,0.032,0.0422,0.0582,0.0459,0.0331,0.031,0.0395,0.0545,0.0763,0.0796,0.079,0.0769,0.0705,0.063,0.0529,0.0513,0.0683,0.103,0.1265,0.1111,0.0908,0.0715,0.0609,0.0582,0.071,0.1127,0.1452,0.0032,0.0176,0.0027,-0.0347,0.0043,0,0,0.0881,0.0865,0.0491,0.0667,0.1927,0.103,0.2867,0,0,0,0,0,0,0,0,0.0646,0.0448,0.0272,0.024,0.0331,0.0497,0.0806,0.0657,0.0635,0.063,0.0625,0.063,0.0507,0.0448,0.0582,0.0913,0.1265,0.1287,0.1057,0.079,0.0539,0.039,0.0411,0.0598,0.086,0.0331,0.0609,0.0577,0.0155,-0.0304,0.0112,0.0352,0.0758,0.1223,0,0,0,0.1847,0.2413,0.0497,0.0336,0.0235,0.0187,0.0144,0.0128,0.0107,0,0,0,0,0,0,0,0.0678,0.0262,0.0529,0.0534,0.0571,0.0758,0.0529,0.04,0.0368,0.0667,0.1159,0.1297,0.1132,0.0929,0.0742,0.0619,0.0625,0.0561,0.0609,0.0598,0.0774,0.094,0.0545,-0.032,0.0043,0.071,0.0518,0.1442,0.0,0.0,0.0812,0.1735,0.1762,0.141,0.0908,0.0566,0.0481,0.0363,0.0331,0.0214,0,0,0,0,0,0,0,0,0,0,0,0,0.0865,0.0555,0.0395,0.0101,0.0112,0.1111,0.1217,0.0934,0.0715,0.0587,0.0545,0.0582,0.0603,0.0662,0,0.0683,0.1014,0.0635,0.0112,-0.0368,0,0,0,0,0,0.165,0.1559,0.1356,0.1746,0.1554,0.1169,0.0721,0.0486,0.0395,0,0,0,0,0,0,0,0,0,0,0,0,0,0,0,0,-0.0112,-0.0283,0,0,0.0705,0.0502,0.0406,0.0368,0.0395,0.0529,0.0881,0,0,0,0.0593,0.0069,-0.0603,0,0,0,0,0,0.1655,0.11,0.0838,0.1426,0.1906,0.1773,0.1111,0.0523,0,0,0,0,0,0,0,0,0,0,0,0,0,0,0,0,0,0,-0.0278,-0.0438,0,0,0,0,0,0,0,0.1009,0,0,0,0,0,0,0,0,0,0,0,0.158,0.0966,0.0785,0.0998,0.158,0.1842,0.1372,0,0,0,0,0,0,0,0,0,0,0,0,0,0,0,0,0,0,0,0,-0.087,-0.0112,0.0208,0.0352,0,0,0,0,0,0,0,0,0,0,0,0,0,0,0,0,0.1399,0.1239,0.0993,0.0774,0.1217,0.1671,0,0,0,0,0,0,0,0,0,0,0,0,0,0,0,0,0,0,0,0,0,0,-0.0219,0.0411,0.071,0.0,-0.0176,0.0064,0,0,0,0,0,0,0,0,0,0,0,0,0,0,0.1762,0.1228,0.0758,0.1111,0.1351,0,0,0,0,0,0,0,0,0,0,0,0,0,0,0,0,0,0,0,0,0,0,0,0,0,0,-0.0352,0.0128,0,0,0,0,0,0,0,0,0,0,0,0,0,0,0.1847,0.1335,0.0838,0.1121,0.118,0,0,0,0,0,0,0,0,0,0,0,0,0,0,0,0,0,0,0,0,0,0,0,0,0,0,0,0,0,0,0,0,0,0,0,0,0,0,0,0,0,0,0.1805,0.1484,0.1041,0.1169,0.1303,0,0,0,0,0,0,0,0,0,0,0,0,0,0,0,0,0,0,0,0,0,0,0,0,0,0,0,0,0,0,0,0,0,0,0,0,0,0,0,0,0,0,0.1965,0.1789,0.1292,0.1201,0.1292,0,0,0,0,0,0,0,0,0,0,0,0,0,0,0,0,0,0,0,0,0,0,0,0,0,0,0,0,0,0,0,0,0,0,0,0,0,0,0,0,0,0,0,0.1586,0.1415,0.1062,0.0966,0,0,0,0,0,0,0,0,0,0,0,0,0,0,0,0,0,0,0,0,0,0,0,0,0,0,0,0,0,0,0,0,0,0,0,0,0,0,0,0,0,0,0,0.1148,0.1095,0.0395,0.0785,0,0,0,0,0,0,0,0,0,0,0,0,0,0,0,0,0,0,0,0,0,0,0,0,0,0,0,0,0,0,0,0,0,0,0,0,0,0,0,0,0,0,0,0,0.0769,-0.0128,0,0,0,0,0,0,0,0,0,0,0,0,0,0,0,0,0,0,0,0,0,0,0,0,0,0,0,0,0,0,0,0,0,0,0,0,0,0,0,0,0,0,0,0,0,0,0,0,0,0,0,0,0,0,0,0,0,0,0,0,0,0,0,0,0,0,0,0,0,0,0,0,0,0,0,0,0,0,0,0,0,0,0,0,0,0,0,0,0,0,0,0,0,0,0,0,0,0,0,0,0,0,0,0,0,0,0,0,0,0,0,0,0,0,0,0,0,0,0,0,0,0,0,0,0,0,0,0,0,0,0,0,0,0,0,0,0,0,0,0,0,0,0,0,0,0,0,0,0,0,0,0,0,0,0,0,0,0,0,0,0,0,0,0,0,0,0,0,0,0,0,0,0,0,0,0,0,0,0,0,0,0,0,0,0,0,0,0,0,0,0,0,0,0,0,0,0,0,0,0,0,0,0,0,0,0,0,0,0,0,0,0,0,0,0,0,0,0,0,0,0,0,0,0,0,0,0,0,0,0,0,0,0,0,0,0,0,0,0,0,0,0,0,0,0,0,0,0,0,0,0,0,0,0,0,0,0,0,0,0,0,0,0,0,0,0,0,0,0,0,0,0,0,0,0,0,0,0,0,0,0,0,0,0,0,0,0,0,0,0,0,0,0,0,0,0,0,0,0,0,0,0,0,0,0,0,0,0,0,0,0,0,0]}]],[[{"header":{"parameterUnit":"kt","parameterCategory":2,"dx":1,"dy":1,"la1":29.764190673828125,"la2":30.86408042907715,"lo1":-88.46762084960938,"lo2":-86.9344482421875,"nx":47,"ny":34,"refTime":"2022-10-01T00:00:00:Z","depth":"10","parameterNumber":2,"parameterNumberName":"U-component_of_CURRENTS"},"data":[-0.0027,0.0214,0.0497,0.0769,0.0961,0.1014,0.0998,0.1009,0.1084,0.1207,0.1303,0.1335,0.1351,0.1436,0.1602,0.1778,0.189,0.1981,0.2125,0.2392,0.2744,0.3139,0.355,0.3844,0.3988,0.3967,0.3732,0.3588,0.3679,0.3833,0.4058,0.4458,0.5099,0.5665,0.6524,0.763,0.8462,0.9178,0.9792,1.0128,1.0139,1.0,0.9931,0.9995,1.0043,0.9925,0.9728,0.0032,0.0208,0.0384,0.0566,0.0747,0.0892,0.0998,0.1127,0.1292,0.1452,0.1554,0.1591,0.1591,0.1618,0.1709,0.1826,0.1922,0.1997,0.213,0.236,0.2643,0.291,0.3155,0.3332,0.3369,0.3337,0.3219,0.3006,0.292,0.3059,0.3369,0.3721,0.4458,0.5184,0.5777,0.6807,0.7816,0.8633,0.9317,0.9728,0.9776,0.9642,0.9573,0.9653,0.9738,0.9706,0.9616,0.0139,0.0235,0.0374,0.0523,0.0689,0.086,0.1036,0.1228,0.1431,0.1607,0.1735,0.1794,0.1799,0.1794,0.1837,0.1879,0.1922,0.197,0.2066,0.2205,0.2376,0.2541,0.2664,0.275,0.2798,0.2824,0.2894,0.2878,0.2851,0.291,0.2974,0.3033,0.3145,0.3753,0.4474,0.5408,0.6727,0.7902,0.8793,0.9295,0.9429,0.9375,0.9317,0.937,0.9456,0.9472,0.9439,0.0278,0.0342,0.0427,0.055,0.0726,0.0934,0.1153,0.1377,0.158,0.1741,0.1842,0.1901,0.1927,0.1938,0.1965,0.1959,0.1943,0.1949,0.2013,0.2109,0.2221,0.2339,0.2467,0.2595,0.268,0.2755,0.2969,0.3118,0.3123,0.3171,0.3022,0.2605,0.2216,0.2226,0.2782,0.3753,0.5174,0.6845,0.8185,0.8895,0.9103,0.913,0.9124,0.9162,0.9242,0.9285,0.9295,0.0363,0.0443,0.0539,0.0678,0.0854,0.1062,0.1287,0.15,0.166,0.1767,0.1853,0.1922,0.1959,0.2018,0.2045,0.2007,0.1954,0.1933,0.1965,0.2024,0.2098,0.2189,0.2312,0.2472,0.2638,0.2755,0.299,0.331,0.3438,0.3422,0.3289,0.2926,0.2429,0.2002,0.1901,0.2397,0.362,0.5419,0.7261,0.8377,0.8772,0.8895,0.8954,0.9023,0.9124,0.9189,0.9237,0.0406,0.0513,0.0641,0.079,0.0956,0.1137,0.1308,0.1458,0.1586,0.1682,0.1735,0.1783,0.1858,0.1954,0.2002,0.1965,0.1906,0.1874,0.1879,0.1906,0.1943,0.1991,0.2093,0.2264,0.2488,0.268,0.2867,0.3219,0.3599,0.3711,0.3577,0.3348,0.2942,0.2392,0.2029,0.2104,0.2728,0.4191,0.6145,0.7651,0.8382,0.8703,0.8884,0.9007,0.9092,0.9151,0.9221,0.0427,0.0539,0.0683,0.0838,0.0993,0.1143,0.1281,0.1399,0.149,0.1538,0.157,0.1623,0.1703,0.1767,0.1789,0.1762,0.1725,0.1714,0.1725,0.1746,0.1773,0.1815,0.1906,0.2056,0.2269,0.2488,0.267,0.2883,0.3225,0.3577,0.3785,0.3743,0.3396,0.2814,0.2264,0.2007,0.2189,0.3065,0.4634,0.6375,0.7624,0.8372,0.89,0.9135,0.921,0.9263,0.9317,0.0374,0.0486,0.0635,0.079,0.094,0.1078,0.1196,0.1292,0.1361,0.1415,0.1463,0.15,0.1527,0.1532,0.1511,0.1479,0.1468,0.1484,0.1516,0.1554,0.1591,0.1644,0.1735,0.1879,0.2066,0.2258,0.2424,0.2563,0.2712,0.2942,0.3198,0.3396,0.3481,0.3342,0.2824,0.2173,0.1874,0.213,0.3086,0.4517,0.6055,0.7443,0.8521,0.9173,0.9423,0.9472,0.9456,0.0352,0.0459,0.0587,0.0721,0.0854,0.0982,0.1089,0.1175,0.1244,0.1308,0.1361,0.1393,0.1404,0.1377,0.1329,0.1281,0.126,0.1271,0.1308,0.1351,0.1399,0.1463,0.1559,0.1703,0.1869,0.2045,0.22,0.2328,0.2424,0.2493,0.2579,0.2702,0.2851,0.2985,0.299,0.2638,0.2061,0.1762,0.2061,0.3017,0.4378,0.5846,0.7368,0.8585,0.9231,0.952,0.9605,0.0368,0.0432,0.0529,0.0646,0.0769,0.0881,0.0982,0.1062,0.1127,0.1169,0.1201,0.1244,0.1271,0.1265,0.1233,0.118,0.1127,0.1105,0.1116,0.1153,0.1207,0.1276,0.1372,0.15,0.1644,0.1805,0.1965,0.2104,0.221,0.2285,0.2322,0.2328,0.2322,0.236,0.2493,0.2659,0.2541,0.2141,0.1943,0.2264,0.3081,0.4325,0.5868,0.7261,0.8222,0.8895,0.9327,0.0299,0.0294,0.0374,0.0513,0.0673,0.0806,0.0929,0.1036,0.1078,0.1073,0.1073,0.1062,0.1057,0.1084,0.1089,0.1036,0.0977,0.0945,0.0945,0.0982,0.1041,0.1121,0.1201,0.1297,0.141,0.1548,0.1698,0.1842,0.1965,0.2061,0.2125,0.2157,0.2168,0.2168,0.22,0.2339,0.2584,0.2568,0.229,0.22,0.2456,0.3102,0.4143,0.551,0.6722,0.7528,0.8185,0.0176,0.0096,0.0117,0.031,0.0555,0.0742,0.095,0.1137,0.1164,0.1078,0.1078,0.0908,0.0929,0.1084,0.087,0.0753,0.0758,0.0753,0.0774,0.0812,0.0881,0.0961,0.103,0.1095,0.1175,0.1276,0.1399,0.1538,0.1671,0.1799,0.1906,0.1981,0.2034,0.2088,0.2136,0.2184,0.2322,0.2579,0.2589,0.2371,0.2344,0.2531,0.2936,0.3652,0.4682,0.5809,0.6701,-0.0101,-0.0112,-0.0155,0.0064,0.0347,0.0577,0.0977,0.1121,0.0988,0.0998,0.1004,0.0278,0.0561,0.0678,-0.0123,0.0075,0.0395,0.0539,0.0609,0.0662,0.0726,0.0806,0.0865,0.0902,0.094,0.1004,0.1084,0.1191,0.1324,0.149,0.1655,0.1789,0.189,0.197,0.204,0.2077,0.2104,0.2333,0.2621,0.2584,0.2392,0.2371,0.244,0.2675,0.3171,0.3887,0.4816,0,0,-0.0011,0.0294,0.0155,0.0133,0.1116,0.1036,0.0534,0.0657,0.0721,0.0673,0,-0.0699,-0.1335,-0.0753,0.0027,0.0384,0.0523,0.0577,0.0641,0.0774,0.0796,0.0731,0.0742,0.0796,0.0865,0.0945,0.1041,0.1169,0.1345,0.1506,0.1639,0.1741,0.1815,0.1858,0.1869,0.1943,0.2312,0.2686,0.2771,0.275,0.2712,0.2648,0.2728,0.2969,0.3433,0.0363,0.0459,0.055,0.0876,0.1105,0,0,0.0149,0.0091,0.0171,0.0662,0.1458,0.1351,0.0646,0,0,0,0,0,0,0,0,0.0198,0.0513,0.0662,0.0694,0.0699,0.0828,0.0854,0.086,0.102,0.1185,0.1324,0.141,0.1447,0.1468,0.1468,0.1479,0.1655,0.2093,0.2605,0.3022,0.3316,0.3444,0.3348,0.315,0.3065,0.0646,0.0507,0.0673,0.1073,0.1191,0.1159,0.1153,0.087,0.0635,0,0,0,0.04,0.1223,0.1538,0.1255,0.094,0.0683,0.0475,0.0304,0.0224,0,0,0,0,0,0,0,0.0144,0.047,0.0731,0.0929,0.1159,0.1169,0.1057,0.1014,0.1046,0.1175,0.134,0.157,0.1879,0.2205,0.2499,0.2771,0.3107,0.3342,0.3284,0.0673,0.0587,0.0571,0.0902,0.1255,0.1308,0.1052,0.0737,0.1089,0.1607,0.1719,0.1484,0.1095,0.0977,0.0833,0.0678,0.0651,0.0571,0.0374,0.0149,0.0005,0,0,0,0,0,0,0,0,0,0,0,0,0.0294,0.0699,0.071,0.0705,0.0785,0.1046,0.1255,0.1377,0.1548,0.1687,0.1821,0.213,0.2595,0.3049,0,0.0278,0.0534,0.0683,0.095,0.1041,0,0,0,0,0,0.0561,0.1052,0.0897,0.0603,0.0251,0.0171,0.0256,0.0182,0.0091,0,0,0,0,0,0,0,0,0,0,0,0,0,0,0,0,0.023,0.0288,0,0,0.0966,0.1292,0.1442,0.1548,0.1671,0.1927,0.2093,0,0,0,0.0262,0.0571,0.0619,0,0,0,0,0,0.0566,0.1137,0.1121,0.0886,0.0432,-0.0219,-0.0198,0.0037,0,0,0,0,0,0,0,0,0,0,0,0,0,0,0,0,0,0,-0.0614,-0.0849,0,0,0,0,0,0,0,0.0358,0,0,0,0,0,0,0,0,0,0,0,0.0561,0.1116,0.1143,0.1041,0.0609,-0.0246,-0.0796,0,0,0,0,0,0,0,0,0,0,0,0,0,0,0,0,0,0,0,0,-0.0459,-0.0475,-0.0133,-0.0235,0,0,0,0,0,0,0,0,0,0,0,0,0,0,0,0,0.0534,0.1025,0.1095,0.1121,0.0769,0.0497,0,0,0,0,0,0,0,0,0,0,0,0,0,0,0,0,0,0,0,0,0,0,0.0224,0.0021,-0.0299,-0.0561,-0.0678,-0.0427,0,0,0,0,0,0,0,0,0,0,0,0,0,0,0.103,0.094,0.1068,0.078,0.0486,0,0,0,0,0,0,0,0,0,0,0,0,0,0,0,0,0,0,0,0,0,0,0,0,0,0,-0.0107,-0.0214,0,0,0,0,0,0,0,0,0,0,0,0,0,0,0.0198,0.0662,0.0988,0.0828,0.0603,0,0,0,0,0,0,0,0,0,0,0,0,0,0,0,0,0,0,0,0,0,0,0,0,0,0,0,0,0,0,0,0,0,0,0,0,0,0,0,0,0,0,0.0208,0.0609,0.0924,0.0924,0.079,0,0,0,0,0,0,0,0,0,0,0,0,0,0,0,0,0,0,0,0,0,0,0,0,0,0,0,0,0,0,0,0,0,0,0,0,0,0,0,0,0,0,0.0395,0.078,0.0849,0.0817,0.0694,0,0,0,0,0,0,0,0,0,0,0,0,0,0,0,0,0,0,0,0,0,0,0,0,0,0,0,0,0,0,0,0,0,0,0,0,0,0,0,0,0,0,0,0.023,0.0555,0.0561,0.047,0,0,0,0,0,0,0,0,0,0,0,0,0,0,0,0,0,0,0,0,0,0,0,0,0,0,0,0,0,0,0,0,0,0,0,0,0,0,0,0,0,0,0,0.016,-0.0182,-0.0262,0.016,0,0,0,0,0,0,0,0,0,0,0,0,0,0,0,0,0,0,0,0,0,0,0,0,0,0,0,0,0,0,0,0,0,0,0,0,0,0,0,0,0,0,0,0,0.0107,0.0214,0,0,0,0,0,0,0,0,0,0,0,0,0,0,0,0,0,0,0,0,0,0,0,0,0,0,0,0,0,0,0,0,0,0,0,0,0,0,0,0,0,0,0,0,0,0,0,0,0,0,0,0,0,0,0,0,0,0,0,0,0,0,0,0,0,0,0,0,0,0,0,0,0,0,0,0,0,0,0,0,0,0,0,0,0,0,0,0,0,0,0,0,0,0,0,0,0,0,0,0,0,0,0,0,0,0,0,0,0,0,0,0,0,0,0,0,0,0,0,0,0,0,0,0,0,0,0,0,0,0,0,0,0,0,0,0,0,0,0,0,0,0,0,0,0,0,0,0,0,0,0,0,0,0,0,0,0,0,0,0,0,0,0,0,0,0,0,0,0,0,0,0,0,0,0,0,0,0,0,0,0,0,0,0,0,0,0,0,0,0,0,0,0,0,0,0,0,0,0,0,0,0,0,0,0,0,0,0,0,0,0,0,0,0,0,0,0,0,0,0,0,0,0,0,0,0,0,0,0,0,0,0,0,0,0,0,0,0,0,0,0,0,0,0,0,0,0,0,0,0,0,0,0,0,0,0,0,0,0,0,0,0,0,0,0,0,0,0,0,0,0,0,0,0,0,0,0,0,0,0,0,0,0,0,0,0,0,0,0,0,0,0,0,0,0,0,0,0,0,0,0,0,0,0,0,0,0,0,0,0,0,0,0]}],[{"header":{"parameterUnit":"kt","parameterCategory":2,"dx":1,"dy":1,"la1":29.764190673828125,"la2":30.86408042907715,"lo1":-88.46762084960938,"lo2":-86.9344482421875,"nx":47,"ny":34,"refTime":"2022-10-01T00:00:00:Z","depth":"10","parameterNumber":3,"parameterNumberName":"V-component_of_CURRENTS"},"data":[0.086,0.0972,0.1025,0.1084,0.1207,0.134,0.1351,0.1244,0.1057,0.0822,0.0625,0.0502,0.0459,0.0459,0.0432,0.0416,0.0464,0.0614,0.086,0.1153,0.1383,0.1468,0.1372,0.1217,0.1105,0.1095,0.1228,0.1612,0.1943,0.1975,0.1767,0.1506,0.1207,0.1826,0.2894,0.3807,0.4079,0.37,0.2985,0.2371,0.244,0.3171,0.4068,0.4762,0.5259,0.5878,0.6567,0.0838,0.0924,0.0908,0.0977,0.1143,0.1233,0.1201,0.1073,0.0892,0.0715,0.0598,0.0507,0.0464,0.0459,0.0443,0.0416,0.0459,0.0561,0.0747,0.094,0.11,0.1255,0.1329,0.1367,0.1415,0.1436,0.1377,0.1404,0.1612,0.158,0.1185,0.0918,0.0977,0.1276,0.2723,0.4159,0.488,0.4757,0.41,0.3444,0.3369,0.3946,0.4682,0.5259,0.5643,0.6145,0.6674,0.079,0.0918,0.0956,0.0982,0.1025,0.1052,0.1014,0.0902,0.0758,0.0641,0.0571,0.0513,0.0464,0.0438,0.04,0.039,0.0432,0.0518,0.0651,0.0806,0.0961,0.1159,0.1383,0.1564,0.165,0.1666,0.1639,0.1399,0.1351,0.126,0.063,0.016,0.0166,0.0336,0.1319,0.3428,0.5061,0.5563,0.5216,0.4592,0.4277,0.4538,0.5077,0.551,0.5782,0.6161,0.6578,0.0689,0.087,0.0961,0.1004,0.1014,0.0993,0.0934,0.0828,0.0699,0.0598,0.0539,0.0513,0.0475,0.0448,0.0406,0.0379,0.04,0.0464,0.0566,0.0689,0.0844,0.1046,0.1303,0.1538,0.1655,0.1671,0.1703,0.1399,0.1223,0.1014,0.0411,-0.0214,-0.0464,-0.0208,-0.0203,0.11,0.3486,0.5302,0.5804,0.5515,0.5088,0.5056,0.535,0.567,0.5884,0.6161,0.6487,0.0571,0.0747,0.0865,0.0934,0.0961,0.0945,0.0876,0.0769,0.0651,0.0539,0.0486,0.0475,0.0486,0.0486,0.0454,0.0416,0.0406,0.0443,0.0502,0.0587,0.0705,0.0897,0.1159,0.1431,0.1591,0.1618,0.1639,0.1399,0.11,0.0849,0.0416,-0.0128,-0.0358,-0.0278,-0.0085,-0.0032,0.1116,0.3332,0.4955,0.5601,0.5622,0.5542,0.5627,0.5868,0.6076,0.6289,0.6519,0.0459,0.0603,0.0699,0.0763,0.0796,0.078,0.0721,0.0635,0.0539,0.0459,0.0432,0.0459,0.0507,0.0529,0.0513,0.0475,0.0448,0.0454,0.0475,0.0523,0.0603,0.0769,0.102,0.1308,0.1511,0.1564,0.157,0.1468,0.1111,0.0763,0.0379,0.0059,-0.0182,-0.024,0.0192,0.0486,0.0715,0.1725,0.3198,0.4506,0.5435,0.5761,0.5852,0.6006,0.6177,0.6359,0.6535,0.0352,0.0443,0.0523,0.0577,0.0609,0.0603,0.0571,0.0529,0.0486,0.0454,0.0464,0.0518,0.0561,0.0577,0.0566,0.0529,0.0497,0.0481,0.047,0.0497,0.0555,0.0683,0.0886,0.1148,0.1367,0.1484,0.1511,0.15,0.1313,0.0982,0.0593,0.0219,-0.0107,-0.0262,-0.0091,0.0368,0.0988,0.1522,0.2242,0.3305,0.4565,0.5494,0.582,0.5926,0.6001,0.6156,0.6279,0.024,0.0299,0.0363,0.0432,0.0486,0.0507,0.0513,0.0507,0.0507,0.0523,0.0555,0.0603,0.0619,0.0603,0.0587,0.0555,0.0518,0.0481,0.047,0.0491,0.0545,0.0635,0.0785,0.0977,0.1169,0.1329,0.142,0.1458,0.1415,0.1239,0.0972,0.0641,0.0315,0.0011,-0.0133,0.0048,0.0587,0.1233,0.1885,0.267,0.3721,0.4848,0.5451,0.5681,0.5734,0.575,0.5814,0.0198,0.023,0.0272,0.0347,0.0422,0.0475,0.0513,0.0539,0.0566,0.0603,0.0635,0.0641,0.0625,0.0603,0.0587,0.0555,0.0507,0.0475,0.0481,0.0513,0.055,0.0603,0.0694,0.0822,0.0977,0.1137,0.1281,0.1377,0.1383,0.1281,0.1116,0.0913,0.0694,0.0475,0.0272,0.016,0.0374,0.086,0.1458,0.2168,0.3059,0.4052,0.4757,0.5158,0.5328,0.5344,0.5366,0.0192,0.0171,0.0182,0.0256,0.0336,0.0422,0.0491,0.0545,0.0582,0.0603,0.0593,0.0561,0.0561,0.055,0.0577,0.0571,0.0523,0.0475,0.0475,0.0513,0.0555,0.0582,0.0614,0.0683,0.0801,0.095,0.1116,0.1255,0.1313,0.1249,0.1105,0.0934,0.078,0.0667,0.0577,0.0534,0.0561,0.0812,0.1244,0.1799,0.2435,0.3257,0.3914,0.4202,0.4522,0.4746,0.4827,0.0192,0.0069,-0.0005,0.0064,0.0198,0.0347,0.0443,0.0491,0.0545,0.0555,0.0545,0.0593,0.0614,0.0662,0.0726,0.0689,0.0598,0.0486,0.0443,0.0475,0.0529,0.0555,0.0561,0.0577,0.0646,0.0774,0.094,0.1095,0.1191,0.118,0.1068,0.0908,0.0763,0.0651,0.0603,0.0678,0.0838,0.0972,0.1217,0.1543,0.189,0.2403,0.2883,0.3209,0.3422,0.37,0.3951,0.024,0.0053,-0.0208,-0.0176,0.0059,0.0358,0.0454,0.0454,0.0603,0.0667,0.0785,0.1057,0.0998,0.1292,0.134,0.0966,0.0694,0.0502,0.0406,0.0416,0.047,0.0502,0.0502,0.0486,0.0507,0.0598,0.0742,0.0902,0.103,0.1062,0.0998,0.087,0.0737,0.0625,0.0566,0.0619,0.086,0.1148,0.118,0.1292,0.1442,0.1602,0.1815,0.2157,0.2435,0.2675,0.2824,0.0283,0.0096,-0.0368,-0.0411,-0.0011,0.0593,0.0705,0.0625,0.0902,0.0929,0.1052,0.1372,0.118,0.1607,0.1479,0.1127,0.0721,0.0454,0.0326,0.032,0.0379,0.0438,0.0491,0.0448,0.0416,0.0443,0.0545,0.0699,0.0849,0.0913,0.0897,0.0822,0.0726,0.063,0.0555,0.0577,0.0774,0.1175,0.1249,0.1132,0.1132,0.1111,0.1132,0.1255,0.1554,0.1911,0.2056,0,0,-0.0336,-0.0539,-0.0053,0.0774,0.0838,0.086,0.0918,0.0742,0.0849,0.1575,0,0.1997,0.1313,0.1084,0.0699,0.0406,0.0278,0.0262,0.032,0.0416,0.0571,0.0448,0.0326,0.031,0.0395,0.0545,0.0763,0.079,0.079,0.0769,0.0705,0.063,0.0539,0.0529,0.0699,0.1068,0.1377,0.1255,0.1052,0.0854,0.0737,0.071,0.0796,0.118,0.1484,0.0037,0.0176,0.0027,-0.0288,0.0101,0,0,0.0625,0.0822,0.0481,0.0646,0.1767,0.0934,0.252,0,0,0,0,0,0,0,0,0.0635,0.0448,0.0272,0.0246,0.0336,0.0497,0.078,0.0651,0.0635,0.0635,0.0625,0.0625,0.0507,0.0459,0.0587,0.0929,0.1319,0.1393,0.1185,0.095,0.0715,0.0571,0.0577,0.0705,0.0902,0.0331,0.0598,0.0561,0.0155,0.0075,0.0112,0.0288,0.0513,0.1153,0,0,0,0.1634,0.2066,0.0459,0.032,0.0235,0.0182,0.0144,0.0128,0.0112,0,0,0,0,0,0,0,0.0662,0.0262,0.0518,0.0529,0.0566,0.0731,0.0513,0.0395,0.0368,0.0678,0.1159,0.1319,0.1169,0.0988,0.0822,0.0726,0.0742,0.0662,0.0662,0.0593,0.0758,0.0902,0.0486,-0.0005,0.0048,0.0571,0.0497,0.1361,0.0,0.0,0.0742,0.1228,0.1303,0.0956,0.0737,0.055,0.0464,0.0363,0.0331,0.0219,0,0,0,0,0,0,0,0,0,0,0,0,0.0833,0.0539,0.039,0.0101,0.0117,0.1095,0.1175,0.0908,0.0694,0.0566,0.0523,0.0566,0.0614,0.0673,0,0.0678,0.0972,0.0614,0.0112,-0.0347,0,0,0,0,0,0.1511,0.086,0.0956,0.0988,0.0988,0.0886,0.0651,0.0475,0.039,0,0,0,0,0,0,0,0,0,0,0,0,0,0,0,0,-0.0101,-0.0267,0,0,0.0635,0.0464,0.0368,0.032,0.0342,0.0497,0.0881,0,0,0,0.0587,0.008,-0.0571,0,0,0,0,0,0.1522,0.0747,0.0726,0.0966,0.1201,0.1212,0.0993,0.0518,0,0,0,0,0,0,0,0,0,0,0,0,0,0,0,0,0,0,-0.0267,-0.0422,0,0,0,0,0,0,0,0.1009,0,0,0,0,0,0,0,0,0,0,0,0.1436,0.0876,0.0715,0.0849,0.1201,0.141,0.1255,0,0,0,0,0,0,0,0,0,0,0,0,0,0,0,0,0,0,0,0,-0.0844,-0.0107,0.0203,0.0347,0,0,0,0,0,0,0,0,0,0,0,0,0,0,0,0,0.1271,0.0993,0.0849,0.0726,0.1062,0.1367,0,0,0,0,0,0,0,0,0,0,0,0,0,0,0,0,0,0,0,0,0,0,-0.0214,0.0411,0.0694,0.0,-0.0176,0.0069,0,0,0,0,0,0,0,0,0,0,0,0,0,0,0.1265,0.1004,0.0726,0.0977,0.1111,0,0,0,0,0,0,0,0,0,0,0,0,0,0,0,0,0,0,0,0,0,0,0,0,0,0,-0.0352,0.0139,0,0,0,0,0,0,0,0,0,0,0,0,0,0,0.141,0.1095,0.0806,0.1004,0.102,0,0,0,0,0,0,0,0,0,0,0,0,0,0,0,0,0,0,0,0,0,0,0,0,0,0,0,0,0,0,0,0,0,0,0,0,0,0,0,0,0,0,0.134,0.1196,0.0982,0.1068,0.1073,0,0,0,0,0,0,0,0,0,0,0,0,0,0,0,0,0,0,0,0,0,0,0,0,0,0,0,0,0,0,0,0,0,0,0,0,0,0,0,0,0,0,0.1313,0.1335,0.1169,0.1078,0.1036,0,0,0,0,0,0,0,0,0,0,0,0,0,0,0,0,0,0,0,0,0,0,0,0,0,0,0,0,0,0,0,0,0,0,0,0,0,0,0,0,0,0,0,0.1244,0.1201,0.0972,0.0854,0,0,0,0,0,0,0,0,0,0,0,0,0,0,0,0,0,0,0,0,0,0,0,0,0,0,0,0,0,0,0,0,0,0,0,0,0,0,0,0,0,0,0,0.1068,0.0945,0.0384,0.0758,0,0,0,0,0,0,0,0,0,0,0,0,0,0,0,0,0,0,0,0,0,0,0,0,0,0,0,0,0,0,0,0,0,0,0,0,0,0,0,0,0,0,0,0,0.0737,-0.0112,0,0,0,0,0,0,0,0,0,0,0,0,0,0,0,0,0,0,0,0,0,0,0,0,0,0,0,0,0,0,0,0,0,0,0,0,0,0,0,0,0,0,0,0,0,0,0,0,0,0,0,0,0,0,0,0,0,0,0,0,0,0,0,0,0,0,0,0,0,0,0,0,0,0,0,0,0,0,0,0,0,0,0,0,0,0,0,0,0,0,0,0,0,0,0,0,0,0,0,0,0,0,0,0,0,0,0,0,0,0,0,0,0,0,0,0,0,0,0,0,0,0,0,0,0,0,0,0,0,0,0,0,0,0,0,0,0,0,0,0,0,0,0,0,0,0,0,0,0,0,0,0,0,0,0,0,0,0,0,0,0,0,0,0,0,0,0,0,0,0,0,0,0,0,0,0,0,0,0,0,0,0,0,0,0,0,0,0,0,0,0,0,0,0,0,0,0,0,0,0,0,0,0,0,0,0,0,0,0,0,0,0,0,0,0,0,0,0,0,0,0,0,0,0,0,0,0,0,0,0,0,0,0,0,0,0,0,0,0,0,0,0,0,0,0,0,0,0,0,0,0,0,0,0,0,0,0,0,0,0,0,0,0,0,0,0,0,0,0,0,0,0,0,0,0,0,0,0,0,0,0,0,0,0,0,0,0,0,0,0,0,0,0,0,0,0,0,0,0,0,0,0,0,0,0,0,0,0,0,0,0,0,0]}]],[[{"header":{"parameterUnit":"kt","parameterCategory":2,"dx":1,"dy":1,"la1":29.764190673828125,"la2":30.86408042907715,"lo1":-88.46762084960938,"lo2":-86.9344482421875,"nx":47,"ny":34,"refTime":"2022-10-01T00:00:00:Z","depth":"12","parameterNumber":2,"parameterNumberName":"U-component_of_CURRENTS"},"data":[-0.0016,0.0235,0.0513,0.078,0.0972,0.1036,0.1046,0.1078,0.1169,0.1297,0.1377,0.1404,0.142,0.1495,0.1644,0.1789,0.1906,0.2007,0.2157,0.2424,0.2776,0.3166,0.3572,0.3865,0.401,0.3978,0.3743,0.3615,0.37,0.3839,0.4042,0.4383,0.5029,0.5638,0.6519,0.763,0.8457,0.9167,0.9744,1.008,1.0091,0.9989,0.9931,0.9968,0.9979,0.9867,0.9712,0.0032,0.0219,0.04,0.0582,0.0769,0.0929,0.1057,0.1201,0.1377,0.1532,0.1612,0.1634,0.1628,0.166,0.1735,0.1815,0.1885,0.1959,0.2093,0.2355,0.267,0.2942,0.3182,0.3348,0.3374,0.3342,0.3246,0.3059,0.2979,0.3054,0.3305,0.3647,0.4383,0.5131,0.5756,0.6807,0.7822,0.8633,0.9279,0.9696,0.9749,0.9648,0.9589,0.9642,0.9696,0.9658,0.9594,0.0149,0.0251,0.039,0.0545,0.0715,0.0902,0.1095,0.1303,0.1506,0.1655,0.173,0.1751,0.1767,0.1799,0.1842,0.1874,0.1895,0.1933,0.2013,0.2152,0.2317,0.2477,0.2589,0.267,0.2718,0.2744,0.2856,0.2904,0.2888,0.2878,0.2878,0.2926,0.3033,0.3652,0.4437,0.5403,0.6738,0.7907,0.8788,0.9285,0.9418,0.9381,0.9333,0.9359,0.9407,0.9418,0.9413,0.0294,0.0368,0.0454,0.0577,0.0747,0.0961,0.1191,0.1415,0.1596,0.1709,0.1783,0.1837,0.1879,0.1933,0.1965,0.1954,0.1922,0.1911,0.1954,0.2045,0.2152,0.2269,0.2392,0.2509,0.2595,0.2664,0.2915,0.3123,0.3139,0.3155,0.2974,0.2552,0.2189,0.2216,0.2771,0.3748,0.5184,0.6861,0.8195,0.8895,0.9092,0.9124,0.9124,0.9141,0.9194,0.9247,0.9279,0.0368,0.0459,0.0555,0.0683,0.0854,0.1057,0.1271,0.1442,0.1586,0.1703,0.1794,0.1874,0.1954,0.2018,0.204,0.1997,0.1927,0.189,0.1901,0.1954,0.2034,0.213,0.2248,0.2403,0.2557,0.2675,0.2926,0.3284,0.3444,0.3417,0.3278,0.2942,0.2445,0.2045,0.1997,0.244,0.3625,0.5435,0.7272,0.8382,0.8772,0.889,0.8938,0.8986,0.9071,0.9151,0.9221,0.0406,0.0513,0.0641,0.078,0.094,0.1111,0.1271,0.142,0.1543,0.1644,0.1725,0.1799,0.1879,0.1965,0.1986,0.1938,0.1863,0.181,0.1805,0.1831,0.1879,0.1943,0.2045,0.221,0.2419,0.2595,0.2782,0.3155,0.3577,0.3727,0.3631,0.3406,0.2974,0.2429,0.2184,0.2232,0.2776,0.418,0.6135,0.7651,0.8388,0.8713,0.8879,0.8986,0.906,0.9135,0.9215,0.0422,0.0529,0.0673,0.0822,0.0972,0.1121,0.126,0.1383,0.1484,0.1559,0.1602,0.165,0.1709,0.1751,0.1762,0.1725,0.1676,0.1644,0.165,0.1682,0.1719,0.1778,0.1869,0.2013,0.221,0.2403,0.2568,0.2798,0.315,0.3524,0.3775,0.3785,0.3465,0.2888,0.2355,0.213,0.2216,0.3033,0.4586,0.6348,0.763,0.8377,0.8906,0.9114,0.9167,0.9221,0.9279,0.0395,0.0507,0.0646,0.0796,0.0945,0.1084,0.1207,0.1313,0.1399,0.1458,0.1484,0.1506,0.1516,0.1511,0.1484,0.1442,0.1415,0.142,0.1458,0.1506,0.1559,0.1618,0.1709,0.1847,0.2018,0.2194,0.2339,0.2467,0.2616,0.284,0.3102,0.3321,0.347,0.3417,0.2931,0.2232,0.1869,0.2088,0.3022,0.4469,0.6033,0.7448,0.8527,0.9173,0.9397,0.9423,0.9429,0.0384,0.0481,0.0598,0.0731,0.0865,0.0993,0.1105,0.1201,0.1276,0.1329,0.1367,0.1383,0.1383,0.1351,0.1297,0.1244,0.1217,0.1228,0.1265,0.1313,0.1372,0.1442,0.1538,0.1676,0.1837,0.1997,0.2141,0.2264,0.2355,0.2419,0.2483,0.2589,0.275,0.292,0.2995,0.267,0.2066,0.173,0.1986,0.2936,0.4335,0.5841,0.7368,0.858,0.9215,0.9488,0.9584,0.0374,0.0432,0.0529,0.0641,0.0763,0.0881,0.0988,0.1078,0.1137,0.1169,0.1191,0.1228,0.1249,0.1244,0.1212,0.1153,0.1095,0.1073,0.1089,0.1127,0.1185,0.1255,0.1351,0.1474,0.1618,0.1778,0.1927,0.2056,0.2162,0.2232,0.2269,0.2269,0.2258,0.229,0.2435,0.2627,0.2515,0.212,0.1911,0.22,0.3022,0.4303,0.5862,0.7256,0.8217,0.889,0.9301,0.0299,0.0294,0.0368,0.0507,0.0662,0.0801,0.0929,0.1036,0.1078,0.1062,0.1052,0.103,0.1004,0.1009,0.103,0.1009,0.0956,0.0918,0.0924,0.0956,0.102,0.11,0.118,0.1271,0.1383,0.1516,0.1666,0.181,0.1927,0.2024,0.2082,0.2114,0.2125,0.212,0.2141,0.229,0.2552,0.2541,0.2269,0.2173,0.2408,0.307,0.4132,0.5505,0.6717,0.7523,0.8179,0.0171,0.0091,0.0117,0.0304,0.0545,0.0731,0.0966,0.1159,0.1121,0.1014,0.103,0.0849,0.0812,0.0876,0.0715,0.0699,0.0726,0.0726,0.0742,0.0785,0.0854,0.0929,0.0998,0.1062,0.1143,0.1249,0.1372,0.1511,0.1644,0.1773,0.1874,0.1949,0.1997,0.2045,0.2088,0.2136,0.2285,0.2563,0.2579,0.2387,0.2365,0.2531,0.2926,0.3641,0.4682,0.5809,0.6695,-0.0107,-0.0117,-0.0149,0.0064,0.0342,0.0561,0.102,0.1169,0.095,0.0934,0.0961,0,0.0523,0,-0.0128,0.0059,0.0379,0.0523,0.0598,0.0646,0.0705,0.078,0.0838,0.087,0.0902,0.0961,0.1062,0.1169,0.1303,0.1463,0.1628,0.1757,0.1853,0.1933,0.2002,0.2034,0.205,0.2285,0.2611,0.2589,0.2387,0.236,0.2413,0.2654,0.3166,0.3887,0.4821,0,0,0,0,0,0.0123,0.1046,0,0,0,0,0,0,0,0,0,0,0,0,0,0,0,0,0,0,0,0.0833,0.0913,0.1014,0.1143,0.1319,0.1479,0.1607,0.1703,0.1778,0.1815,0.1821,0.1879,0.2232,0.2664,0.2792,0.2787,0.2755,0.2686,0.275,0.2974,0.3428,0,0,0,0,0,0,0,0,0,0,0,0,0,0,0,0,0,0,0,0,0,0,0,0,0,0,0,0,0,0.0828,0.0966,0.1132,0.1276,0.1356,0.1393,0.1426,0.1431,0.142,0.1543,0.1959,0.2467,0.2872,0.3209,0.3428,0.3385,0.3171,0.3065,0,0,0,0,0,0,0,0,0,0,0,0,0,0,0,0,0,0,0,0,0,0,0,0,0,0,0,0,0,0,0,0,0,0,0,0,0.0998,0.1116,0.1244,0.142,0.1687,0.1981,0.2253,0.2568,0.2979,0.3284,0.3268,0,0,0,0,0,0,0,0,0,0,0,0,0,0,0,0,0,0,0,0,0,0,0,0,0,0,0,0,0,0,0,0,0,0,0,0,0,0,0.0961,0.1132,0.1276,0.1479,0.1612,0.1725,0.2024,0.2515,0.2985,0,0,0,0,0,0,0,0,0,0,0,0,0,0,0,0,0,0,0,0,0,0,0,0,0,0,0,0,0,0,0,0,0,0,0,0,0,0,0,0,0,0.1201,0.1377,0.15,0.1634,0.189,0.205,0,0,0,0,0,0,0,0,0,0,0,0,0,0,0,0,0,0,0,0,0,0,0,0,0,0,0,0,0,0,0,0,0,0,0,0,0,0,0,0,0,0,0,0,0,0,0.0352,0,0,0,0,0,0,0,0,0,0,0,0,0,0,0,0,0,0,0,0,0,0,0,0,0,0,0,0,0,0,0,0,0,0,0,0,0,0,0,0,0,0,0,0,0,0,0,0,0,0,0,0,0,0,0,0,0,0,0,0,0,0,0,0,0,0,0,0,0,0,0,0,0,0,0,0,0,0,0,0,0,0,0,0,0,0,0,0,0,0,0,0,0,0,0,0,0,0,0,0,0,0,0,0,0,0,0,0,0,0,0,0,0,0,0,0,0,0,0,0,0,0,0,0,0,0,0,0,0,0,0,0,0,0,0,0,0,0,0,0,0,0,0,0,0,0,0,0,0,0,0,0,0,0,0,0,0,0,0,0,0,0,0,0,0,0,0,0,0,0,0,0,0,0,0,0,0,0,0,0,0,0,0,0,0,0,0,0,0,0,0,0,0,0,0,0,0,0,0,0,0,0,0,0,0,0,0,0,0,0,0,0,0,0,0,0,0,0,0,0,0,0,0,0,0,0,0,0,0,0,0,0,0,0,0,0,0,0,0,0,0,0,0,0,0,0,0,0,0,0,0,0,0,0,0,0,0,0,0,0,0,0,0,0,0,0,0,0,0,0,0,0,0,0,0,0,0,0,0,0,0,0,0,0,0,0,0,0,0,0,0,0,0,0,0,0,0,0,0,0,0,0,0,0,0,0,0,0,0,0,0,0,0,0,0,0,0,0,0,0,0,0,0,0,0,0,0,0,0,0,0,0,0,0,0,0,0,0,0,0,0,0,0,0,0,0,0,0,0,0,0,0,0,0,0,0,0,0,0,0,0,0,0,0,0,0,0,0,0,0,0,0,0,0,0,0,0,0,0,0,0,0,0,0,0,0,0,0,0,0,0,0,0,0,0,0,0,0,0,0,0,0,0,0,0,0,0,0,0,0,0,0,0,0,0,0,0,0,0,0,0,0,0,0,0,0,0,0,0,0,0,0,0,0,0,0,0,0,0,0,0,0,0,0,0,0,0,0,0,0,0,0,0,0,0,0,0,0,0,0,0,0,0,0,0,0,0,0,0,0,0,0,0,0,0,0,0,0,0,0,0,0,0,0,0,0,0,0,0,0,0,0,0,0,0,0,0,0,0,0,0,0,0,0,0,0,0,0,0,0,0,0,0,0,0,0,0,0,0,0,0,0,0,0,0,0,0,0,0,0,0,0,0,0,0,0,0,0,0,0,0,0,0,0,0,0,0,0,0,0,0,0,0,0,0,0,0,0,0,0,0,0,0,0,0,0,0,0,0,0,0,0,0,0,0,0,0,0,0,0,0,0,0,0,0,0,0,0,0,0,0,0,0,0,0,0,0,0,0,0,0,0,0,0,0,0,0,0,0,0,0,0,0,0,0,0,0,0,0,0,0,0,0,0,0,0,0,0,0,0,0,0,0,0,0,0,0,0,0,0,0,0,0,0,0,0,0,0,0,0,0,0,0,0,0,0,0,0,0,0,0,0,0,0,0,0,0,0,0,0,0,0,0,0,0,0,0,0,0,0,0,0,0,0,0,0,0,0,0,0,0,0,0,0,0,0,0,0,0,0,0,0,0,0,0]}],[{"header":{"parameterUnit":"kt","parameterCategory":2,"dx":1,"dy":1,"la1":29.764190673828125,"la2":30.86408042907715,"lo1":-88.46762084960938,"lo2":-86.9344482421875,"nx":47,"ny":34,"refTime":"2022-10-01T00:00:00:Z","depth":"12","parameterNumber":3,"parameterNumberName":"V-component_of_CURRENTS"},"data":[0.0956,0.1057,0.1095,0.1148,0.1271,0.1404,0.141,0.1292,0.11,0.0865,0.0651,0.0507,0.0454,0.0459,0.0464,0.0502,0.0545,0.0673,0.0913,0.118,0.1404,0.1495,0.141,0.126,0.1159,0.1148,0.1281,0.1671,0.1965,0.1986,0.1826,0.1623,0.134,0.1831,0.2883,0.3785,0.4058,0.3695,0.2974,0.2376,0.2445,0.3171,0.4063,0.4762,0.5291,0.591,0.6583,0.0886,0.0988,0.0993,0.1073,0.1239,0.1324,0.1281,0.1143,0.0956,0.078,0.0646,0.0539,0.0459,0.0427,0.0427,0.0459,0.0518,0.063,0.0822,0.1004,0.1143,0.1287,0.1367,0.1404,0.1458,0.1495,0.1452,0.1474,0.1644,0.1602,0.1201,0.0924,0.0988,0.1281,0.2712,0.4132,0.4853,0.4714,0.41,0.3465,0.3401,0.3951,0.4672,0.5259,0.567,0.6177,0.6695,0.0758,0.0913,0.0998,0.1057,0.1127,0.1159,0.1111,0.0988,0.0838,0.0721,0.0641,0.0566,0.0486,0.0427,0.039,0.0395,0.0454,0.0561,0.0705,0.0854,0.1014,0.1207,0.142,0.1596,0.1676,0.1703,0.1719,0.1447,0.1383,0.1281,0.0662,0.0219,0.0224,0.0464,0.1393,0.3433,0.5029,0.5531,0.5206,0.4597,0.4287,0.456,0.5072,0.551,0.5804,0.6188,0.6594,0.0641,0.0817,0.0934,0.1014,0.1057,0.1052,0.0998,0.0886,0.0753,0.0651,0.0582,0.0545,0.0523,0.0481,0.0427,0.0395,0.0416,0.0491,0.0593,0.071,0.086,0.1068,0.1324,0.1559,0.1676,0.1687,0.1751,0.1436,0.1233,0.102,0.0459,-0.0091,-0.0304,0.0011,0.0101,0.1276,0.3508,0.5259,0.5777,0.551,0.5115,0.5067,0.5355,0.567,0.5905,0.6188,0.6498,0.055,0.0699,0.0796,0.0881,0.0924,0.0918,0.086,0.0758,0.0635,0.0539,0.0502,0.0523,0.0555,0.055,0.0502,0.0438,0.0427,0.0459,0.0518,0.0593,0.0705,0.0892,0.1164,0.1447,0.1612,0.1628,0.166,0.1442,0.1116,0.0854,0.0432,-0.0043,-0.0224,-0.0123,0.0214,0.0352,0.1388,0.3401,0.4928,0.5579,0.5611,0.5542,0.5649,0.5878,0.6103,0.6311,0.6524,0.0454,0.0577,0.0651,0.0705,0.0726,0.0721,0.0673,0.0603,0.0529,0.0475,0.0481,0.0534,0.0598,0.0614,0.0571,0.0502,0.047,0.047,0.0486,0.0518,0.0593,0.0753,0.1004,0.1297,0.1511,0.1575,0.158,0.1506,0.1169,0.0844,0.0459,0.0128,-0.0155,-0.0208,0.0294,0.0747,0.1105,0.2018,0.3268,0.4485,0.5419,0.575,0.5857,0.6017,0.6193,0.637,0.6535,0.0374,0.0464,0.0529,0.0571,0.0593,0.0593,0.0571,0.055,0.0523,0.0518,0.0545,0.0598,0.0641,0.0635,0.0603,0.0555,0.0513,0.0486,0.047,0.0486,0.0545,0.0662,0.0865,0.1116,0.134,0.1468,0.1506,0.1511,0.1367,0.1105,0.0763,0.0374,0.0016,-0.0171,-0.0069,0.0448,0.1212,0.1826,0.2472,0.3364,0.456,0.5483,0.5814,0.5942,0.6044,0.6183,0.63,0.0331,0.0384,0.0438,0.0491,0.0534,0.0555,0.0566,0.0577,0.0593,0.0614,0.0646,0.0662,0.0657,0.0635,0.0614,0.0571,0.0529,0.0486,0.047,0.0481,0.0529,0.0619,0.0763,0.095,0.1137,0.1292,0.1393,0.1442,0.141,0.1281,0.1073,0.079,0.0507,0.0198,0.0016,0.0112,0.0678,0.1426,0.2141,0.2846,0.3759,0.4816,0.5425,0.5665,0.5756,0.5804,0.5841,0.0326,0.0347,0.0379,0.0438,0.0486,0.0529,0.0571,0.0614,0.0651,0.0683,0.0689,0.0673,0.0641,0.0609,0.0593,0.0555,0.0507,0.0475,0.0481,0.0507,0.0545,0.0593,0.0678,0.0801,0.095,0.11,0.1244,0.134,0.1356,0.1265,0.1116,0.0945,0.0774,0.0593,0.0422,0.0288,0.0448,0.0956,0.1644,0.2408,0.3198,0.4079,0.4736,0.5142,0.5318,0.536,0.5382,0.0267,0.0235,0.0246,0.031,0.0379,0.0454,0.0523,0.0582,0.063,0.0641,0.0609,0.0566,0.0561,0.0545,0.0566,0.0566,0.0518,0.047,0.0475,0.0513,0.055,0.0571,0.0609,0.0673,0.0785,0.0929,0.1089,0.1223,0.1281,0.1223,0.1084,0.0918,0.0774,0.0673,0.0609,0.0598,0.0635,0.0876,0.1356,0.2002,0.2643,0.3364,0.394,0.4207,0.4517,0.4752,0.4843,0.0219,0.0091,0.0027,0.0091,0.0219,0.0363,0.0459,0.0513,0.0566,0.0561,0.055,0.0593,0.0603,0.0662,0.0705,0.0673,0.0587,0.0481,0.0443,0.047,0.0523,0.055,0.055,0.0566,0.0635,0.0763,0.0924,0.1073,0.1164,0.1153,0.1046,0.0892,0.0747,0.0641,0.0593,0.0673,0.0865,0.1009,0.126,0.1634,0.2029,0.2477,0.292,0.3235,0.3438,0.3727,0.3967,0.0262,0.0075,-0.0187,-0.0155,0.0091,0.0374,0.0497,0.0587,0.0673,0.0673,0.0785,0.1041,0.0934,0.1196,0.1212,0.0929,0.0673,0.0486,0.0395,0.0406,0.0464,0.0491,0.0486,0.047,0.0497,0.0587,0.0731,0.0892,0.1014,0.1046,0.0982,0.086,0.0726,0.0614,0.0561,0.0614,0.086,0.1175,0.1223,0.1335,0.1484,0.1628,0.1837,0.2173,0.2467,0.2707,0.2856,0.031,0.0117,-0.0352,-0.039,0.0032,0.0598,0.0678,0.0908,0.0988,0.0902,0.102,0,0.1137,0,0.1415,0.1073,0.0699,0.0443,0.0326,0.0315,0.0374,0.0432,0.0475,0.0438,0.04,0.0427,0.0534,0.0689,0.0838,0.0902,0.0886,0.0817,0.0721,0.0625,0.0561,0.0582,0.078,0.1196,0.1345,0.1223,0.1196,0.1148,0.1153,0.1287,0.158,0.1943,0.2088,0,0,0,0,0,0.0758,0.0753,0,0,0,0,0,0,0,0,0,0,0,0,0,0,0,0,0,0,0,0.0384,0.0534,0.0753,0.0785,0.0785,0.0763,0.0705,0.063,0.0539,0.0534,0.071,0.1084,0.1479,0.1415,0.1212,0.1004,0.087,0.0838,0.0876,0.1212,0.1506,0,0,0,0,0,0,0,0,0,0,0,0,0,0,0,0,0,0,0,0,0,0,0,0,0,0,0,0,0,0.0635,0.0614,0.0625,0.0619,0.0614,0.0502,0.0454,0.0593,0.0929,0.1345,0.149,0.1335,0.1148,0.0956,0.0817,0.0774,0.0785,0.094,0,0,0,0,0,0,0,0,0,0,0,0,0,0,0,0,0,0,0,0,0,0,0,0,0,0,0,0,0,0,0,0,0,0,0,0,0.0358,0.0673,0.1137,0.1303,0.118,0.1041,0.0934,0.0876,0.0892,0.0753,0.0705,0,0,0,0,0,0,0,0,0,0,0,0,0,0,0,0,0,0,0,0,0,0,0,0,0,0,0,0,0,0,0,0,0,0,0,0,0,0,0.1041,0.1095,0.0865,0.0662,0.0545,0.0502,0.0566,0.0651,0.0731,0,0,0,0,0,0,0,0,0,0,0,0,0,0,0,0,0,0,0,0,0,0,0,0,0,0,0,0,0,0,0,0,0,0,0,0,0,0,0,0,0,0.0422,0.0336,0.0283,0.0299,0.0475,0.0876,0,0,0,0,0,0,0,0,0,0,0,0,0,0,0,0,0,0,0,0,0,0,0,0,0,0,0,0,0,0,0,0,0,0,0,0,0,0,0,0,0,0,0,0,0,0,0.1004,0,0,0,0,0,0,0,0,0,0,0,0,0,0,0,0,0,0,0,0,0,0,0,0,0,0,0,0,0,0,0,0,0,0,0,0,0,0,0,0,0,0,0,0,0,0,0,0,0,0,0,0,0,0,0,0,0,0,0,0,0,0,0,0,0,0,0,0,0,0,0,0,0,0,0,0,0,0,0,0,0,0,0,0,0,0,0,0,0,0,0,0,0,0,0,0,0,0,0,0,0,0,0,0,0,0,0,0,0,0,0,0,0,0,0,0,0,0,0,0,0,0,0,0,0,0,0,0,0,0,0,0,0,0,0,0,0,0,0,0,0,0,0,0,0,0,0,0,0,0,0,0,0,0,0,0,0,0,0,0,0,0,0,0,0,0,0,0,0,0,0,0,0,0,0,0,0,0,0,0,0,0,0,0,0,0,0,0,0,0,0,0,0,0,0,0,0,0,0,0,0,0,0,0,0,0,0,0,0,0,0,0,0,0,0,0,0,0,0,0,0,0,0,0,0,0,0,0,0,0,0,0,0,0,0,0,0,0,0,0,0,0,0,0,0,0,0,0,0,0,0,0,0,0,0,0,0,0,0,0,0,0,0,0,0,0,0,0,0,0,0,0,0,0,0,0,0,0,0,0,0,0,0,0,0,0,0,0,0,0,0,0,0,0,0,0,0,0,0,0,0,0,0,0,0,0,0,0,0,0,0,0,0,0,0,0,0,0,0,0,0,0,0,0,0,0,0,0,0,0,0,0,0,0,0,0,0,0,0,0,0,0,0,0,0,0,0,0,0,0,0,0,0,0,0,0,0,0,0,0,0,0,0,0,0,0,0,0,0,0,0,0,0,0,0,0,0,0,0,0,0,0,0,0,0,0,0,0,0,0,0,0,0,0,0,0,0,0,0,0,0,0,0,0,0,0,0,0,0,0,0,0,0,0,0,0,0,0,0,0,0,0,0,0,0,0,0,0,0,0,0,0,0,0,0,0,0,0,0,0,0,0,0,0,0,0,0,0,0,0,0,0,0,0,0,0,0,0,0,0,0,0,0,0,0,0,0,0,0,0,0,0,0,0,0,0,0,0,0,0,0,0,0,0,0,0,0,0,0,0,0,0,0,0,0,0,0,0,0,0,0,0,0,0,0,0,0,0,0,0,0,0,0,0,0,0,0,0,0,0,0,0,0,0,0,0,0,0,0,0,0,0,0,0,0,0,0,0,0,0,0,0,0,0,0,0,0,0,0,0,0,0,0,0,0,0,0,0,0,0,0,0,0,0,0,0,0,0,0,0,0,0,0,0,0,0,0,0,0,0,0,0,0,0,0,0,0,0,0,0,0,0,0,0,0,0,0,0,0,0,0,0,0,0,0,0,0,0,0,0,0,0,0,0,0,0,0,0,0,0,0,0,0,0,0,0,0,0,0,0,0,0,0,0,0,0,0,0,0,0,0,0,0,0,0,0,0,0,0,0,0,0,0,0,0,0,0,0,0,0,0,0,0,0,0,0,0,0,0,0,0,0,0,0,0,0,0,0,0,0,0,0,0,0,0,0,0,0,0,0,0,0,0,0,0,0,0,0,0,0,0,0,0,0,0]}]],[[{"header":{"parameterUnit":"kt","parameterCategory":2,"dx":1,"dy":1,"la1":29.764190673828125,"la2":30.86408042907715,"lo1":-88.46762084960938,"lo2":-86.9344482421875,"nx":47,"ny":34,"refTime":"2022-10-01T00:00:00:Z","depth":"15","parameterNumber":2,"parameterNumberName":"U-component_of_CURRENTS"},"data":[-0.0016,0.0246,0.0523,0.0785,0.0972,0.1062,0.1105,0.1175,0.1297,0.142,0.149,0.1495,0.1506,0.1559,0.165,0.1751,0.1869,0.2013,0.2194,0.2472,0.2819,0.3209,0.3609,0.3903,0.4047,0.3999,0.3753,0.3636,0.3721,0.3849,0.4026,0.4341,0.4955,0.5611,0.6514,0.7624,0.843,0.9066,0.961,1.0011,1.007,0.9984,0.9925,0.9909,0.9867,0.9787,0.969,0.0016,0.0219,0.0411,0.0598,0.079,0.0972,0.1132,0.1308,0.149,0.1607,0.1639,0.1623,0.1623,0.166,0.1719,0.1778,0.1831,0.1895,0.2024,0.2317,0.268,0.2974,0.3214,0.3332,0.33,0.3284,0.3246,0.3118,0.3038,0.3038,0.3219,0.3572,0.4325,0.5077,0.574,0.6802,0.7806,0.8564,0.9146,0.9562,0.9712,0.9642,0.9594,0.9605,0.96,0.9578,0.9562,0.0155,0.0262,0.039,0.055,0.0731,0.0945,0.1164,0.1377,0.1548,0.1655,0.1692,0.1714,0.1735,0.1778,0.1826,0.1858,0.1863,0.1879,0.1943,0.2066,0.2242,0.2408,0.252,0.2573,0.2589,0.2632,0.2808,0.2926,0.2926,0.2835,0.275,0.2771,0.2894,0.3529,0.4367,0.5408,0.677,0.7902,0.8692,0.9162,0.9386,0.9381,0.9338,0.9322,0.9311,0.9317,0.9359,0.0304,0.0379,0.047,0.0587,0.0758,0.0972,0.1207,0.141,0.1548,0.1644,0.1719,0.1783,0.1842,0.1906,0.1943,0.1933,0.1895,0.1863,0.1879,0.1954,0.2056,0.2168,0.228,0.2392,0.2461,0.2541,0.2846,0.3123,0.3155,0.3123,0.2883,0.2472,0.213,0.2162,0.275,0.3748,0.5222,0.6909,0.8163,0.8815,0.9039,0.9108,0.9114,0.9098,0.9108,0.9157,0.9226,0.0374,0.047,0.0566,0.0678,0.0822,0.1009,0.1201,0.1383,0.1527,0.1644,0.1735,0.1826,0.1917,0.1991,0.2013,0.197,0.189,0.1826,0.1815,0.1858,0.1938,0.204,0.2157,0.2296,0.2424,0.2552,0.2824,0.3235,0.3465,0.3422,0.3284,0.299,0.2488,0.2136,0.2157,0.2531,0.3641,0.5478,0.7293,0.8366,0.874,0.8874,0.8922,0.8954,0.9023,0.9103,0.9194,0.04,0.0513,0.0635,0.0769,0.0918,0.1078,0.1233,0.1383,0.1506,0.1612,0.1698,0.1783,0.1869,0.1938,0.1949,0.1895,0.1815,0.1741,0.1719,0.1741,0.1799,0.1879,0.1981,0.2125,0.2301,0.2456,0.2648,0.3033,0.3513,0.3743,0.3721,0.3518,0.3059,0.2536,0.2381,0.2557,0.2894,0.4175,0.6092,0.7635,0.8366,0.8676,0.8858,0.8943,0.9002,0.9082,0.9194,0.0416,0.0523,0.0662,0.0812,0.0961,0.1105,0.1244,0.1361,0.1468,0.1548,0.1602,0.1644,0.1687,0.1719,0.1719,0.1676,0.1612,0.157,0.1564,0.1602,0.166,0.1735,0.1826,0.1959,0.213,0.2285,0.2424,0.2632,0.2985,0.3364,0.3684,0.3823,0.3615,0.3081,0.2547,0.2269,0.2306,0.299,0.4522,0.6273,0.7608,0.8356,0.8858,0.9108,0.9108,0.9162,0.9258,0.0406,0.0507,0.0641,0.0796,0.094,0.1078,0.1201,0.1308,0.1393,0.1452,0.1479,0.1484,0.149,0.1479,0.1442,0.1388,0.1356,0.1351,0.1388,0.1447,0.1511,0.158,0.1671,0.1799,0.1959,0.2109,0.2237,0.2344,0.2461,0.2643,0.2878,0.3118,0.3364,0.3486,0.3161,0.2403,0.1879,0.2018,0.2942,0.4405,0.5996,0.7411,0.8441,0.9092,0.9354,0.9359,0.937,0.0395,0.0486,0.0598,0.0726,0.086,0.0993,0.1105,0.1196,0.1271,0.1319,0.1345,0.1356,0.1345,0.1313,0.1249,0.1191,0.1159,0.1169,0.1212,0.1265,0.1329,0.1399,0.15,0.1634,0.1783,0.1933,0.2066,0.2178,0.2269,0.2322,0.2349,0.2392,0.2531,0.275,0.2953,0.276,0.2104,0.1666,0.1895,0.2856,0.4282,0.582,0.7315,0.8457,0.9141,0.945,0.9525,0.0374,0.0432,0.0518,0.063,0.0753,0.0876,0.0988,0.1073,0.1127,0.1153,0.1164,0.1196,0.1212,0.1201,0.1164,0.1089,0.103,0.1009,0.1036,0.1078,0.1137,0.1212,0.1308,0.1426,0.157,0.1719,0.1869,0.1991,0.2088,0.2157,0.2194,0.22,0.2178,0.2173,0.2296,0.2541,0.2499,0.2082,0.1821,0.2088,0.2953,0.4282,0.5846,0.7197,0.811,0.8831,0.9285,0.0294,0.0288,0.0363,0.0491,0.0646,0.079,0.0924,0.1025,0.1057,0.1025,0.0998,0.0972,0.094,0.094,0.0966,0.0945,0.0902,0.087,0.087,0.0902,0.0961,0.1036,0.1111,0.1191,0.1308,0.1458,0.1612,0.1757,0.1874,0.1965,0.2024,0.2056,0.2061,0.2061,0.2066,0.2194,0.2477,0.2493,0.2248,0.2141,0.2376,0.3054,0.4122,0.5489,0.669,0.7453,0.8137,0,0,0.0112,0.0294,0.0529,0.0705,0.0929,0.1078,0.1036,0.095,0.0977,0,0,0,0,0,0,0,0,0,0,0,0,0,0.1089,0.1169,0.1303,0.1458,0.1602,0.1725,0.1826,0.1895,0.1938,0.1981,0.2024,0.2072,0.2237,0.2536,0.2584,0.2419,0.2397,0.252,0.2904,0.3636,0.4682,0.5809,0.6685,0,0,0,0,0,0,0.0966,0.1095,0,0,0,0,0,0,0,0,0,0,0,0,0,0,0,0,0,0,0.1014,0.1105,0.126,0.1426,0.158,0.1709,0.1799,0.1869,0.1933,0.197,0.1991,0.2189,0.2589,0.267,0.2509,0.2467,0.2557,0.275,0.3166,0.3887,0.4843,0,0,0,0,0,0,0,0,0,0,0,0,0,0,0,0,0,0,0,0,0,0,0,0,0,0,0,0,0.0972,0.1078,0.1249,0.141,0.1532,0.1618,0.1682,0.1735,0.1741,0.1751,0.2024,0.2568,0.2878,0.2974,0.291,0.2808,0.2824,0.2979,0.3428,0,0,0,0,0,0,0,0,0,0,0,0,0,0,0,0,0,0,0,0,0,0,0,0,0,0,0,0,0,0,0,0,0,0,0,0.1345,0.1324,0.1335,0.1329,0.1575,0.2013,0.2371,0.2702,0.3193,0.3428,0.323,0.307,0,0,0,0,0,0,0,0,0,0,0,0,0,0,0,0,0,0,0,0,0,0,0,0,0,0,0,0,0,0,0,0,0,0,0,0,0,0,0.1121,0.1271,0.1431,0.1596,0.1751,0.2045,0.2595,0.3145,0.3385,0,0,0,0,0,0,0,0,0,0,0,0,0,0,0,0,0,0,0,0,0,0,0,0,0,0,0,0,0,0,0,0,0,0,0,0,0,0,0,0,0,0.1335,0.149,0.1607,0.173,0.2162,0.2605,0,0,0,0,0,0,0,0,0,0,0,0,0,0,0,0,0,0,0,0,0,0,0,0,0,0,0,0,0,0,0,0,0,0,0,0,0,0,0,0,0,0,0.1292,0.1388,0.1564,0.1815,0.1826,0,0,0,0,0,0,0,0,0,0,0,0,0,0,0,0,0,0,0,0,0,0,0,0,0,0,0,0,0,0,0,0,0,0,0,0,0,0,0,0,0,0,0,0,0,0,0.0347,0,0,0,0,0,0,0,0,0,0,0,0,0,0,0,0,0,0,0,0,0,0,0,0,0,0,0,0,0,0,0,0,0,0,0,0,0,0,0,0,0,0,0,0,0,0,0,0,0,0,0,0,0,0,0,0,0,0,0,0,0,0,0,0,0,0,0,0,0,0,0,0,0,0,0,0,0,0,0,0,0,0,0,0,0,0,0,0,0,0,0,0,0,0,0,0,0,0,0,0,0,0,0,0,0,0,0,0,0,0,0,0,0,0,0,0,0,0,0,0,0,0,0,0,0,0,0,0,0,0,0,0,0,0,0,0,0,0,0,0,0,0,0,0,0,0,0,0,0,0,0,0,0,0,0,0,0,0,0,0,0,0,0,0,0,0,0,0,0,0,0,0,0,0,0,0,0,0,0,0,0,0,0,0,0,0,0,0,0,0,0,0,0,0,0,0,0,0,0,0,0,0,0,0,0,0,0,0,0,0,0,0,0,0,0,0,0,0,0,0,0,0,0,0,0,0,0,0,0,0,0,0,0,0,0,0,0,0,0,0,0,0,0,0,0,0,0,0,0,0,0,0,0,0,0,0,0,0,0,0,0,0,0,0,0,0,0,0,0,0,0,0,0,0,0,0,0,0,0,0,0,0,0,0,0,0,0,0,0,0,0,0,0,0,0,0,0,0,0,0,0,0,0,0,0,0,0,0,0,0,0,0,0,0,0,0,0,0,0,0,0,0,0,0,0,0,0,0,0,0,0,0,0,0,0,0,0,0,0,0,0,0,0,0,0,0,0,0,0,0,0,0,0,0,0,0,0,0,0,0,0,0,0,0,0,0,0,0,0,0,0,0,0,0,0,0,0,0,0,0,0,0,0,0,0,0,0,0,0,0,0,0,0,0,0,0,0,0,0,0,0,0,0,0,0,0,0,0,0,0,0,0,0,0,0,0,0,0,0,0,0,0,0,0,0,0,0,0,0,0,0,0,0,0,0,0,0,0,0,0,0,0,0,0,0,0,0,0,0,0,0,0,0,0,0,0,0,0,0,0,0,0,0,0,0,0,0,0,0,0,0,0,0,0,0,0,0,0,0,0,0,0,0,0,0,0,0,0,0,0,0,0,0,0,0,0,0,0,0,0,0,0,0,0,0,0,0,0,0,0,0,0,0,0,0,0,0,0,0,0,0,0,0,0,0,0,0,0,0,0,0,0,0,0,0,0,0,0,0,0,0,0,0,0,0,0,0,0,0,0,0,0,0,0,0,0,0,0,0,0,0,0,0,0,0,0,0,0,0,0,0,0,0,0,0,0,0,0,0,0,0,0,0,0,0,0,0,0,0,0,0,0,0,0,0,0,0,0,0,0,0,0,0,0,0,0,0,0,0,0,0,0,0,0,0,0,0,0,0,0,0,0,0,0,0,0,0,0,0,0,0,0,0,0,0,0,0,0,0,0,0,0,0,0,0,0,0,0,0,0,0,0,0,0,0,0,0,0,0,0,0,0,0,0,0,0,0,0,0,0,0,0,0,0,0,0,0,0,0,0,0,0,0,0,0,0,0,0,0,0,0,0,0,0,0,0,0,0,0,0,0,0,0,0,0]}],[{"header":{"parameterUnit":"kt","parameterCategory":2,"dx":1,"dy":1,"la1":29.764190673828125,"la2":30.86408042907715,"lo1":-88.46762084960938,"lo2":-86.9344482421875,"nx":47,"ny":34,"refTime":"2022-10-01T00:00:00:Z","depth":"15","parameterNumber":3,"parameterNumberName":"V-component_of_CURRENTS"},"data":[0.1068,0.1175,0.1191,0.1239,0.1361,0.15,0.1495,0.1361,0.1169,0.0929,0.071,0.0529,0.0438,0.0454,0.0539,0.0587,0.0641,0.0763,0.0972,0.1239,0.1436,0.1548,0.1468,0.134,0.1265,0.1271,0.1377,0.1757,0.1981,0.2002,0.1885,0.1709,0.1463,0.1837,0.2867,0.3721,0.3994,0.3615,0.299,0.2403,0.2451,0.3166,0.4042,0.4768,0.535,0.5964,0.6604,0.094,0.1089,0.1127,0.1223,0.1388,0.1474,0.141,0.126,0.1068,0.0881,0.0726,0.0566,0.0443,0.0395,0.0422,0.0481,0.0561,0.0694,0.0892,0.1084,0.1191,0.1324,0.1399,0.1468,0.1554,0.1602,0.1554,0.157,0.1682,0.1628,0.1223,0.0929,0.0998,0.1281,0.2702,0.4063,0.4725,0.4629,0.409,0.3534,0.3417,0.3956,0.4666,0.5259,0.5729,0.6231,0.6717,0.0726,0.0929,0.1068,0.118,0.1281,0.1324,0.1271,0.1132,0.0966,0.0822,0.0694,0.0582,0.0486,0.0416,0.0384,0.04,0.047,0.0593,0.0742,0.0902,0.1057,0.1239,0.1447,0.1623,0.1709,0.1735,0.1789,0.1511,0.1426,0.1297,0.0721,0.0299,0.0326,0.0614,0.1522,0.338,0.4907,0.5371,0.5136,0.4624,0.4341,0.457,0.5067,0.5505,0.5846,0.6247,0.6626,0.0609,0.0769,0.0902,0.102,0.1116,0.1148,0.1105,0.0977,0.0822,0.0689,0.0603,0.0561,0.0534,0.0491,0.0438,0.04,0.0427,0.0518,0.0619,0.0726,0.0876,0.1078,0.1329,0.157,0.1687,0.1687,0.1789,0.1479,0.1255,0.102,0.0529,0.0059,-0.0069,0.0251,0.0475,0.1532,0.3449,0.5115,0.5617,0.5451,0.512,0.5088,0.5366,0.5665,0.5921,0.6231,0.6519,0.0529,0.0662,0.0753,0.0822,0.087,0.0892,0.0849,0.0747,0.0625,0.0534,0.0507,0.0545,0.0593,0.0587,0.0529,0.0459,0.0438,0.0475,0.0534,0.0593,0.0694,0.0881,0.1159,0.1447,0.1628,0.1628,0.1676,0.1516,0.1185,0.0892,0.047,0.0091,-0.0027,0.0027,0.0603,0.0892,0.1751,0.3454,0.4768,0.5419,0.5569,0.5537,0.5665,0.5889,0.6108,0.6327,0.6535,0.0448,0.0555,0.0619,0.0657,0.0673,0.0667,0.0635,0.0577,0.0518,0.0481,0.0507,0.0587,0.0662,0.0667,0.0609,0.0523,0.0481,0.0475,0.0486,0.0513,0.0582,0.0731,0.0982,0.1281,0.1511,0.1575,0.158,0.158,0.1356,0.103,0.0646,0.0288,-0.0107,-0.0128,0.0406,0.1185,0.1666,0.2381,0.3316,0.4373,0.5312,0.5691,0.5846,0.6049,0.6225,0.6391,0.6546,0.0384,0.047,0.0529,0.0561,0.0577,0.0577,0.0566,0.0555,0.0545,0.055,0.0593,0.0651,0.0683,0.0673,0.063,0.0571,0.0529,0.0491,0.0464,0.047,0.0523,0.0641,0.0838,0.1084,0.1308,0.1447,0.149,0.1516,0.1484,0.1335,0.1111,0.0737,0.0272,0.0,-0.0011,0.0513,0.1484,0.2232,0.2766,0.3422,0.4357,0.5248,0.5702,0.5942,0.6103,0.6241,0.6316,0.04,0.0454,0.0502,0.0539,0.0566,0.0582,0.0593,0.0614,0.0641,0.0662,0.0689,0.0699,0.0678,0.0651,0.063,0.0587,0.0534,0.0486,0.0459,0.047,0.0513,0.0598,0.0737,0.0913,0.1095,0.1244,0.1356,0.141,0.1399,0.1335,0.1249,0.1127,0.0924,0.0598,0.0304,0.0251,0.0763,0.1671,0.2493,0.3102,0.3807,0.4618,0.5152,0.5579,0.5756,0.5836,0.5873,0.0411,0.0427,0.0454,0.0491,0.0529,0.0561,0.0603,0.0651,0.0699,0.0721,0.0715,0.0689,0.0651,0.0614,0.0593,0.0555,0.0507,0.0475,0.0475,0.0497,0.0529,0.0577,0.0657,0.0774,0.0913,0.1057,0.1196,0.1297,0.1313,0.1233,0.1105,0.0993,0.0902,0.0822,0.0715,0.0577,0.0587,0.1073,0.1906,0.2744,0.3406,0.4116,0.4618,0.4939,0.5259,0.5366,0.5408,0.031,0.0278,0.0288,0.0347,0.0406,0.0475,0.0539,0.0603,0.0651,0.0657,0.0619,0.0566,0.055,0.0523,0.0545,0.0545,0.0502,0.0459,0.0464,0.0502,0.0534,0.0555,0.0587,0.0651,0.0758,0.0897,0.1052,0.1175,0.1239,0.1185,0.1046,0.0897,0.0763,0.0689,0.0689,0.0769,0.079,0.0956,0.149,0.2242,0.2867,0.3454,0.3972,0.4164,0.441,0.472,0.4843,0.0246,0.0123,0.0053,0.0112,0.024,0.0374,0.0464,0.0523,0.0566,0.0555,0.0534,0.0577,0.0571,0.0619,0.0657,0.0635,0.0561,0.0464,0.0427,0.0454,0.0502,0.0523,0.0523,0.0539,0.0609,0.0737,0.0892,0.1036,0.1127,0.1116,0.1014,0.087,0.0731,0.0625,0.0582,0.0678,0.0934,0.1068,0.1303,0.1719,0.212,0.252,0.2963,0.3268,0.347,0.3727,0.393,0,0,-0.0171,-0.0133,0.0117,0.0379,0.0491,0.0593,0.0657,0.0651,0.0758,0,0,0,0,0,0,0,0,0,0,0,0,0,0.0481,0.0555,0.0699,0.0865,0.0993,0.1025,0.0961,0.0838,0.071,0.0603,0.055,0.0603,0.086,0.1233,0.1303,0.1361,0.1511,0.1639,0.1858,0.22,0.252,0.276,0.2899,0,0,0,0,0,0,0.0646,0.0844,0,0,0,0,0,0,0,0,0,0,0,0,0,0,0,0,0,0,0.0518,0.0657,0.0817,0.0881,0.087,0.0801,0.071,0.0619,0.0555,0.0587,0.0785,0.1233,0.1543,0.1404,0.1335,0.1201,0.1196,0.1329,0.1623,0.2024,0.2162,0,0,0,0,0,0,0,0,0,0,0,0,0,0,0,0,0,0,0,0,0,0,0,0,0,0,0,0,0.0726,0.0747,0.0753,0.0737,0.0683,0.0614,0.0534,0.0534,0.071,0.1095,0.166,0.1783,0.1596,0.1324,0.1196,0.1084,0.1062,0.1265,0.1575,0,0,0,0,0,0,0,0,0,0,0,0,0,0,0,0,0,0,0,0,0,0,0,0,0,0,0,0,0,0,0,0,0,0,0,0.0443,0.0571,0.0918,0.1329,0.165,0.1692,0.1644,0.1548,0.1345,0.1207,0.095,0.1004,0,0,0,0,0,0,0,0,0,0,0,0,0,0,0,0,0,0,0,0,0,0,0,0,0,0,0,0,0,0,0,0,0,0,0,0,0,0,0.1068,0.1244,0.1148,0.1057,0.1046,0.1143,0.1255,0.1111,0.0977,0,0,0,0,0,0,0,0,0,0,0,0,0,0,0,0,0,0,0,0,0,0,0,0,0,0,0,0,0,0,0,0,0,0,0,0,0,0,0,0,0,0.0609,0.0497,0.047,0.0577,0.0854,0.1105,0,0,0,0,0,0,0,0,0,0,0,0,0,0,0,0,0,0,0,0,0,0,0,0,0,0,0,0,0,0,0,0,0,0,0,0,0,0,0,0,0,0,0.0299,0.0235,0.0235,0.0448,0.0876,0,0,0,0,0,0,0,0,0,0,0,0,0,0,0,0,0,0,0,0,0,0,0,0,0,0,0,0,0,0,0,0,0,0,0,0,0,0,0,0,0,0,0,0,0,0,0.0982,0,0,0,0,0,0,0,0,0,0,0,0,0,0,0,0,0,0,0,0,0,0,0,0,0,0,0,0,0,0,0,0,0,0,0,0,0,0,0,0,0,0,0,0,0,0,0,0,0,0,0,0,0,0,0,0,0,0,0,0,0,0,0,0,0,0,0,0,0,0,0,0,0,0,0,0,0,0,0,0,0,0,0,0,0,0,0,0,0,0,0,0,0,0,0,0,0,0,0,0,0,0,0,0,0,0,0,0,0,0,0,0,0,0,0,0,0,0,0,0,0,0,0,0,0,0,0,0,0,0,0,0,0,0,0,0,0,0,0,0,0,0,0,0,0,0,0,0,0,0,0,0,0,0,0,0,0,0,0,0,0,0,0,0,0,0,0,0,0,0,0,0,0,0,0,0,0,0,0,0,0,0,0,0,0,0,0,0,0,0,0,0,0,0,0,0,0,0,0,0,0,0,0,0,0,0,0,0,0,0,0,0,0,0,0,0,0,0,0,0,0,0,0,0,0,0,0,0,0,0,0,0,0,0,0,0,0,0,0,0,0,0,0,0,0,0,0,0,0,0,0,0,0,0,0,0,0,0,0,0,0,0,0,0,0,0,0,0,0,0,0,0,0,0,0,0,0,0,0,0,0,0,0,0,0,0,0,0,0,0,0,0,0,0,0,0,0,0,0,0,0,0,0,0,0,0,0,0,0,0,0,0,0,0,0,0,0,0,0,0,0,0,0,0,0,0,0,0,0,0,0,0,0,0,0,0,0,0,0,0,0,0,0,0,0,0,0,0,0,0,0,0,0,0,0,0,0,0,0,0,0,0,0,0,0,0,0,0,0,0,0,0,0,0,0,0,0,0,0,0,0,0,0,0,0,0,0,0,0,0,0,0,0,0,0,0,0,0,0,0,0,0,0,0,0,0,0,0,0,0,0,0,0,0,0,0,0,0,0,0,0,0,0,0,0,0,0,0,0,0,0,0,0,0,0,0,0,0,0,0,0,0,0,0,0,0,0,0,0,0,0,0,0,0,0,0,0,0,0,0,0,0,0,0,0,0,0,0,0,0,0,0,0,0,0,0,0,0,0,0,0,0,0,0,0,0,0,0,0,0,0,0,0,0,0,0,0,0,0,0,0,0,0,0,0,0,0,0,0,0,0,0,0,0,0,0,0,0,0,0,0,0,0,0,0,0,0,0,0,0,0,0,0,0,0,0,0,0,0,0,0,0,0,0,0,0,0,0,0,0,0,0,0,0,0,0,0,0,0,0,0,0,0,0,0,0,0,0,0,0,0,0,0,0,0,0,0,0,0,0,0,0,0,0,0,0,0,0,0,0,0,0,0,0,0,0,0,0,0,0,0,0,0,0,0,0,0,0,0,0,0,0,0,0,0,0,0,0,0,0,0,0,0,0,0,0,0,0,0,0,0,0,0,0,0,0,0,0,0,0,0,0,0,0,0,0,0,0,0,0,0,0,0,0,0,0,0,0,0,0,0,0,0,0,0,0,0,0,0,0,0,0,0,0,0,0,0,0,0,0,0,0,0,0,0,0,0,0,0,0,0,0,0,0,0,0,0,0,0,0,0,0,0,0,0]}]],[[{"header":{"parameterUnit":"kt","parameterCategory":2,"dx":1,"dy":1,"la1":29.764190673828125,"la2":30.86408042907715,"lo1":-88.46762084960938,"lo2":-86.9344482421875,"nx":47,"ny":34,"refTime":"2022-10-01T00:00:00:Z","depth":"20","parameterNumber":2,"parameterNumberName":"U-component_of_CURRENTS"},"data":[-0.0011,0.0283,0.0571,0.0812,0.0982,0.1073,0.1132,0.1239,0.1372,0.1474,0.1511,0.1511,0.1511,0.1548,0.1602,0.1682,0.1799,0.197,0.221,0.252,0.2862,0.3241,0.3679,0.3988,0.4042,0.3967,0.378,0.3679,0.3748,0.3855,0.4015,0.4309,0.4901,0.5574,0.6466,0.7368,0.7993,0.843,0.8804,0.9178,0.9685,0.9899,0.992,0.9883,0.9787,0.9712,0.9669,-0.0005,0.0208,0.0427,0.0609,0.078,0.0956,0.1153,0.1351,0.1516,0.1602,0.1607,0.1591,0.1602,0.1639,0.1692,0.1725,0.1757,0.181,0.1927,0.2242,0.2675,0.3011,0.3198,0.3155,0.3017,0.3054,0.3203,0.3193,0.3091,0.3038,0.3182,0.3518,0.4271,0.5029,0.5691,0.6674,0.7523,0.803,0.8345,0.8708,0.9263,0.9584,0.96,0.9584,0.9514,0.9498,0.9541,0.0155,0.0251,0.0358,0.0491,0.0678,0.0908,0.1159,0.1383,0.1527,0.1602,0.1634,0.166,0.1687,0.1741,0.1794,0.1815,0.1815,0.181,0.1842,0.1943,0.2114,0.2274,0.2365,0.2365,0.2349,0.2435,0.2702,0.2942,0.2969,0.2803,0.2675,0.2696,0.2814,0.3454,0.4298,0.5339,0.6652,0.7544,0.7982,0.8265,0.8713,0.9231,0.9322,0.929,0.9221,0.9237,0.9333,0.031,0.0384,0.0464,0.0571,0.0715,0.0913,0.1143,0.1345,0.1484,0.1575,0.1644,0.1714,0.1789,0.1858,0.1901,0.189,0.1842,0.1794,0.1783,0.1842,0.1933,0.2034,0.213,0.221,0.2269,0.2355,0.2686,0.3091,0.3203,0.3102,0.2776,0.2371,0.2088,0.2125,0.2723,0.3732,0.5211,0.6765,0.7662,0.7945,0.8265,0.8713,0.9034,0.9082,0.905,0.9082,0.9194,0.0379,0.0475,0.0566,0.0667,0.0806,0.0972,0.1153,0.1324,0.1458,0.157,0.1666,0.1762,0.1858,0.1938,0.1959,0.1911,0.1831,0.1741,0.1709,0.1746,0.1826,0.1927,0.2034,0.2141,0.2242,0.236,0.2536,0.2979,0.3486,0.3615,0.3657,0.3422,0.2755,0.229,0.2387,0.2686,0.3668,0.5392,0.6967,0.7699,0.7918,0.8276,0.8644,0.89,0.8986,0.9055,0.9167,0.04,0.0507,0.063,0.0753,0.0892,0.1041,0.1196,0.1335,0.1458,0.1564,0.1655,0.1741,0.1815,0.1874,0.1879,0.1821,0.173,0.1644,0.1607,0.1628,0.1703,0.1799,0.1895,0.2018,0.2146,0.2258,0.2371,0.2638,0.3038,0.3476,0.3823,0.3994,0.3935,0.3246,0.2712,0.2755,0.3086,0.417,0.5782,0.7085,0.7608,0.788,0.8302,0.8713,0.8954,0.906,0.9189,0.0411,0.0513,0.0651,0.0796,0.094,0.1078,0.1212,0.1329,0.1431,0.1511,0.1559,0.1596,0.1623,0.1634,0.1628,0.158,0.1516,0.1463,0.1452,0.15,0.157,0.1655,0.1751,0.1874,0.2013,0.2141,0.2237,0.2333,0.2467,0.2654,0.291,0.3294,0.3833,0.4143,0.3401,0.2488,0.2392,0.2979,0.4341,0.5868,0.6973,0.7448,0.7859,0.8516,0.8954,0.9141,0.9237,0.04,0.0497,0.063,0.078,0.0924,0.1057,0.1175,0.1276,0.1351,0.1399,0.1404,0.1393,0.1388,0.1367,0.1324,0.1271,0.1228,0.1217,0.1255,0.1324,0.1399,0.1484,0.158,0.1703,0.1847,0.1981,0.2088,0.2173,0.2232,0.2253,0.2296,0.2419,0.2654,0.3043,0.347,0.2926,0.2077,0.2056,0.2888,0.4207,0.5617,0.6775,0.7411,0.8019,0.8799,0.9221,0.9322,0.0384,0.0475,0.0582,0.0699,0.0833,0.0956,0.1057,0.1143,0.1207,0.1249,0.1265,0.1276,0,0,0,0,0,0.1073,0.1116,0.1169,0.1228,0.1297,0.1377,0.149,0.1634,0.1789,0.1922,0.2034,0.2125,0.2173,0.2168,0.2125,0.2104,0.2168,0.2424,0.284,0.2435,0.1853,0.1869,0.2792,0.4132,0.5542,0.6733,0.7565,0.8195,0.8938,0.9423,0,0,0,0,0.0726,0.0844,0.0956,0,0,0,0,0,0,0,0,0,0,0,0,0,0,0,0,0,0.1442,0.1548,0.1687,0.1831,0.1943,0.2007,0.2045,0.2061,0.205,0.1997,0.1959,0.2162,0.2504,0.2264,0.189,0.204,0.2872,0.4202,0.5606,0.6749,0.7496,0.8153,0.89,0,0,0,0,0,0,0,0,0,0,0,0,0,0,0,0,0,0,0,0,0,0,0,0,0,0,0.1474,0.1575,0.1709,0.181,0.1874,0.1911,0.1933,0.1949,0.1938,0.1917,0.2141,0.2589,0.2445,0.212,0.2339,0.3027,0.4068,0.5419,0.6519,0.7117,0.7747,0,0,0,0,0,0,0,0,0,0,0,0,0,0,0,0,0,0,0,0,0,0,0,0,0,0,0,0,0.1458,0.157,0.1676,0.1741,0.1783,0.1815,0.1858,0.1901,0.1949,0.2162,0.2707,0.2851,0.2643,0.2638,0.291,0.3572,0.4784,0.6087,0.6802,0,0,0,0,0,0,0,0,0,0,0,0,0,0,0,0,0,0,0,0,0,0,0,0,0,0,0,0,0,0.1319,0.1452,0.1548,0.1623,0.1682,0.1741,0.1778,0.1789,0.165,0.1671,0.2355,0.2872,0.3065,0.3251,0.3337,0.3326,0.4111,0.5371,0,0,0,0,0,0,0,0,0,0,0,0,0,0,0,0,0,0,0,0,0,0,0,0,0,0,0,0,0,0,0,0,0,0,0,0,0,0.149,0.1207,0.094,0.1095,0.1436,0.1975,0.2851,0.3422,0.3567,0.3737,0,0,0,0,0,0,0,0,0,0,0,0,0,0,0,0,0,0,0,0,0,0,0,0,0,0,0,0,0,0,0,0,0,0,0,0,0,0,0.1132,0.0993,0.0988,0.1095,0.1228,0.1431,0.2221,0.3545,0.4533,0,0,0,0,0,0,0,0,0,0,0,0,0,0,0,0,0,0,0,0,0,0,0,0,0,0,0,0,0,0,0,0,0,0,0,0,0,0,0,0,0,0.1367,0.141,0.1361,0.1223,0.1634,0.2424,0,0,0,0,0,0,0,0,0,0,0,0,0,0,0,0,0,0,0,0,0,0,0,0,0,0,0,0,0,0,0,0,0,0,0,0,0,0,0,0,0,0,0,0,0.1367,0.102,0.071,0,0,0,0,0,0,0,0,0,0,0,0,0,0,0,0,0,0,0,0,0,0,0,0,0,0,0,0,0,0,0,0,0,0,0,0,0,0,0,0,0,0,0,0,0,0.1639,0.1559,0,0,0,0,0,0,0,0,0,0,0,0,0,0,0,0,0,0,0,0,0,0,0,0,0,0,0,0,0,0,0,0,0,0,0,0,0,0,0,0,0,0,0,0,0,0,0,0,0,0,0,0,0,0,0,0,0,0,0,0,0,0,0,0,0,0,0,0,0,0,0,0,0,0,0,0,0,0,0,0,0,0,0,0,0,0,0,0,0,0,0,0,0,0,0,0,0,0,0,0,0,0,0,0,0,0,0,0,0,0,0,0,0,0,0,0,0,0,0,0,0,0,0,0,0,0,0,0,0,0,0,0,0,0,0,0,0,0,0,0,0,0,0,0,0,0,0,0,0,0,0,0,0,0,0,0,0,0,0,0,0,0,0,0,0,0,0,0,0,0,0,0,0,0,0,0,0,0,0,0,0,0,0,0,0,0,0,0,0,0,0,0,0,0,0,0,0,0,0,0,0,0,0,0,0,0,0,0,0,0,0,0,0,0,0,0,0,0,0,0,0,0,0,0,0,0,0,0,0,0,0,0,0,0,0,0,0,0,0,0,0,0,0,0,0,0,0,0,0,0,0,0,0,0,0,0,0,0,0,0,0,0,0,0,0,0,0,0,0,0,0,0,0,0,0,0,0,0,0,0,0,0,0,0,0,0,0,0,0,0,0,0,0,0,0,0,0,0,0,0,0,0,0,0,0,0,0,0,0,0,0,0,0,0,0,0,0,0,0,0,0,0,0,0,0,0,0,0,0,0,0,0,0,0,0,0,0,0,0,0,0,0,0,0,0,0,0,0,0,0,0,0,0,0,0,0,0,0,0,0,0,0,0,0,0,0,0,0,0,0,0,0,0,0,0,0,0,0,0,0,0,0,0,0,0,0,0,0,0,0,0,0,0,0,0,0,0,0,0,0,0,0,0,0,0,0,0,0,0,0,0,0,0,0,0,0,0,0,0,0,0,0,0,0,0,0,0,0,0,0,0,0,0,0,0,0,0,0,0,0,0,0,0,0,0,0,0,0,0,0,0,0,0,0,0,0,0,0,0,0,0,0,0,0,0,0,0,0,0,0,0,0,0,0,0,0,0,0,0,0,0,0,0,0,0,0,0,0,0,0,0,0,0,0,0,0,0,0,0,0,0,0,0,0,0,0,0,0,0,0,0,0,0,0,0,0,0,0,0,0,0,0,0,0,0,0,0,0,0,0,0,0,0,0,0,0,0,0,0,0,0,0,0,0,0,0,0,0,0,0,0,0,0,0,0,0,0,0,0,0,0,0,0,0,0,0,0,0,0,0,0,0,0,0,0,0,0,0,0,0,0,0,0,0,0,0,0,0,0,0,0,0,0,0,0,0,0,0,0,0,0,0,0,0,0,0,0,0,0,0,0,0,0,0,0,0,0,0,0,0,0,0,0,0,0,0,0,0,0,0,0,0,0,0,0,0,0,0,0,0,0,0,0,0,0,0,0,0,0,0,0,0,0,0,0,0,0,0,0,0,0,0,0,0,0,0,0,0,0,0,0,0,0,0,0,0,0,0,0,0,0,0,0,0,0,0,0,0,0,0,0,0,0,0,0,0,0,0,0,0,0,0,0,0,0,0,0,0,0,0,0,0,0,0,0,0,0,0,0,0,0,0,0,0,0,0,0,0,0,0,0,0,0,0,0,0,0,0,0,0,0,0,0,0,0,0,0,0,0,0,0,0]}],[{"header":{"parameterUnit":"kt","parameterCategory":2,"dx":1,"dy":1,"la1":29.764190673828125,"la2":30.86408042907715,"lo1":-88.46762084960938,"lo2":-86.9344482421875,"nx":47,"ny":34,"refTime":"2022-10-01T00:00:00:Z","depth":"20","parameterNumber":3,"parameterNumberName":"V-component_of_CURRENTS"},"data":[0.1255,0.1372,0.1367,0.1399,0.1522,0.1666,0.1655,0.1458,0.1228,0.0977,0.0737,0.0539,0.0432,0.0475,0.0587,0.0662,0.0715,0.0828,0.1041,0.1297,0.1474,0.1575,0.1575,0.1586,0.1607,0.1628,0.1628,0.1874,0.1997,0.2018,0.1922,0.1778,0.1484,0.1847,0.2728,0.3262,0.3556,0.3374,0.2947,0.2616,0.2579,0.3171,0.4031,0.4768,0.5387,0.6001,0.6615,0.0977,0.1212,0.1329,0.1442,0.1607,0.1692,0.1602,0.141,0.1169,0.094,0.0747,0.0571,0.0438,0.0379,0.0411,0.0491,0.0593,0.0737,0.0945,0.1153,0.1255,0.1361,0.15,0.1666,0.1762,0.1826,0.1762,0.1735,0.1725,0.1644,0.1233,0.0929,0.0998,0.1287,0.2627,0.3631,0.4255,0.4218,0.3871,0.3567,0.3497,0.3946,0.4661,0.5259,0.5766,0.6268,0.6733,0.0705,0.0929,0.1132,0.1319,0.1474,0.1538,0.1468,0.1281,0.1052,0.0865,0.0715,0.0593,0.0486,0.0411,0.0379,0.0395,0.0481,0.0614,0.0769,0.0934,0.11,0.1276,0.1474,0.165,0.1719,0.1751,0.189,0.1623,0.1479,0.1303,0.0763,0.0347,0.0368,0.0699,0.1634,0.3182,0.4341,0.4736,0.4592,0.4357,0.4293,0.4517,0.5051,0.5499,0.5873,0.6284,0.6642,0.0577,0.0737,0.0881,0.1025,0.1153,0.1223,0.1175,0.1025,0.0849,0.0699,0.0609,0.0561,0.0534,0.0497,0.0443,0.0406,0.0438,0.0529,0.063,0.0731,0.087,0.1078,0.1324,0.1554,0.1666,0.1655,0.1831,0.1687,0.1324,0.1025,0.0662,0.0256,0.0155,0.0432,0.0924,0.1858,0.3305,0.4469,0.4768,0.4843,0.4827,0.4933,0.5318,0.5659,0.5932,0.6268,0.653,0.0513,0.063,0.0715,0.078,0.0833,0.0854,0.0822,0.0721,0.0609,0.0523,0.0502,0.0555,0.0614,0.0609,0.055,0.047,0.0448,0.0486,0.0534,0.0587,0.0678,0.086,0.1143,0.1436,0.1612,0.1607,0.1671,0.1869,0.1612,0.1281,0.0886,0.0502,0.0219,0.0374,0.1095,0.1676,0.2306,0.3294,0.4042,0.464,0.5019,0.5216,0.5526,0.5889,0.6113,0.6343,0.654,0.0438,0.0539,0.0587,0.0614,0.063,0.0625,0.0598,0.055,0.0497,0.0481,0.0523,0.0614,0.0694,0.0694,0.063,0.0539,0.0491,0.0475,0.0481,0.0497,0.0555,0.0699,0.095,0.1249,0.1479,0.1548,0.1548,0.1757,0.1997,0.1986,0.1746,0.1159,0.0438,0.0107,0.0454,0.1522,0.2312,0.2888,0.3316,0.3839,0.457,0.5013,0.5441,0.5985,0.6247,0.6402,0.6551,0.039,0.0475,0.0523,0.055,0.0561,0.0561,0.0555,0.055,0.055,0.0566,0.0619,0.0673,0.0705,0.0683,0.0641,0.0582,0.0529,0.0486,0.0448,0.0448,0.0497,0.0609,0.0796,0.1036,0.1255,0.1393,0.1447,0.1495,0.1692,0.1906,0.2066,0.1997,0.166,0.0838,0.0075,0.047,0.1719,0.2771,0.3417,0.3625,0.4026,0.4576,0.4885,0.5478,0.6044,0.6263,0.6337,0.0443,0.0491,0.0534,0.0561,0.0582,0.0598,0.0609,0.0635,0.0657,0.0678,0.0699,0.0694,0.0673,0.0646,0.0619,0.0577,0.0518,0.047,0.0438,0.0438,0.0481,0.0561,0.0689,0.0854,0.1025,0.1175,0.1292,0.1345,0.1361,0.1372,0.1458,0.157,0.1698,0.1735,0.1287,0.0486,0.0796,0.1943,0.3091,0.3727,0.394,0.4335,0.4554,0.4832,0.5414,0.5804,0.5878,0.0464,0.0475,0.0497,0.0529,0.0555,0.0577,0.0614,0.0662,0.0699,0.0721,0.071,0.0678,0,0,0,0,0,0.0454,0.0454,0.0475,0.0497,0.0539,0.0603,0.0699,0.0828,0.0972,0.1111,0.1217,0.1244,0.1175,0.1068,0.0998,0.1014,0.1164,0.1442,0.1345,0.0913,0.1324,0.2355,0.3294,0.3817,0.4159,0.4341,0.4437,0.4624,0.5035,0.5291,0,0,0,0,0.0422,0.0481,0.0539,0,0,0,0,0,0,0,0,0,0,0,0,0,0,0,0,0,0.0699,0.0806,0.0945,0.1084,0.1148,0.1111,0.0982,0.0849,0.0737,0.0678,0.0806,0.1207,0.142,0.1255,0.1831,0.2621,0.3155,0.3673,0.4042,0.3972,0.4068,0.4277,0.4421,0,0,0,0,0,0,0,0,0,0,0,0,0,0,0,0,0,0,0,0,0,0,0,0,0,0,0.0822,0.0934,0.1025,0.1036,0.094,0.0817,0.0694,0.0593,0.0555,0.0694,0.1303,0.1602,0.1548,0.1869,0.22,0.26,0.3166,0.354,0.3593,0.3636,0.3657,0,0,0,0,0,0,0,0,0,0,0,0,0,0,0,0,0,0,0,0,0,0,0,0,0,0,0,0,0.0908,0.094,0.0886,0.078,0.0657,0.0561,0.0518,0.0577,0.0849,0.173,0.2077,0.1794,0.1559,0.165,0.1911,0.2387,0.3059,0.3412,0.315,0,0,0,0,0,0,0,0,0,0,0,0,0,0,0,0,0,0,0,0,0,0,0,0,0,0,0,0,0,0.0828,0.0806,0.0737,0.0657,0.0582,0.0529,0.0555,0.0747,0.1276,0.2339,0.2589,0.2173,0.1954,0.1644,0.1404,0.1789,0.2734,0.3102,0,0,0,0,0,0,0,0,0,0,0,0,0,0,0,0,0,0,0,0,0,0,0,0,0,0,0,0,0,0,0,0,0,0,0,0,0,0.1025,0.1676,0.2339,0.2531,0.2461,0.2269,0.2184,0.1911,0.1415,0.173,0,0,0,0,0,0,0,0,0,0,0,0,0,0,0,0,0,0,0,0,0,0,0,0,0,0,0,0,0,0,0,0,0,0,0,0,0,0,0.1217,0.1479,0.165,0.173,0.1805,0.2082,0.2707,0.2413,0.1612,0,0,0,0,0,0,0,0,0,0,0,0,0,0,0,0,0,0,0,0,0,0,0,0,0,0,0,0,0,0,0,0,0,0,0,0,0,0,0,0,0,0.0977,0.0966,0.1073,0.1511,0.2173,0.2248,0,0,0,0,0,0,0,0,0,0,0,0,0,0,0,0,0,0,0,0,0,0,0,0,0,0,0,0,0,0,0,0,0,0,0,0,0,0,0,0,0,0,0,0,0.0507,0.0892,0.1217,0,0,0,0,0,0,0,0,0,0,0,0,0,0,0,0,0,0,0,0,0,0,0,0,0,0,0,0,0,0,0,0,0,0,0,0,0,0,0,0,0,0,0,0,0,0.039,0.0817,0,0,0,0,0,0,0,0,0,0,0,0,0,0,0,0,0,0,0,0,0,0,0,0,0,0,0,0,0,0,0,0,0,0,0,0,0,0,0,0,0,0,0,0,0,0,0,0,0,0,0,0,0,0,0,0,0,0,0,0,0,0,0,0,0,0,0,0,0,0,0,0,0,0,0,0,0,0,0,0,0,0,0,0,0,0,0,0,0,0,0,0,0,0,0,0,0,0,0,0,0,0,0,0,0,0,0,0,0,0,0,0,0,0,0,0,0,0,0,0,0,0,0,0,0,0,0,0,0,0,0,0,0,0,0,0,0,0,0,0,0,0,0,0,0,0,0,0,0,0,0,0,0,0,0,0,0,0,0,0,0,0,0,0,0,0,0,0,0,0,0,0,0,0,0,0,0,0,0,0,0,0,0,0,0,0,0,0,0,0,0,0,0,0,0,0,0,0,0,0,0,0,0,0,0,0,0,0,0,0,0,0,0,0,0,0,0,0,0,0,0,0,0,0,0,0,0,0,0,0,0,0,0,0,0,0,0,0,0,0,0,0,0,0,0,0,0,0,0,0,0,0,0,0,0,0,0,0,0,0,0,0,0,0,0,0,0,0,0,0,0,0,0,0,0,0,0,0,0,0,0,0,0,0,0,0,0,0,0,0,0,0,0,0,0,0,0,0,0,0,0,0,0,0,0,0,0,0,0,0,0,0,0,0,0,0,0,0,0,0,0,0,0,0,0,0,0,0,0,0,0,0,0,0,0,0,0,0,0,0,0,0,0,0,0,0,0,0,0,0,0,0,0,0,0,0,0,0,0,0,0,0,0,0,0,0,0,0,0,0,0,0,0,0,0,0,0,0,0,0,0,0,0,0,0,0,0,0,0,0,0,0,0,0,0,0,0,0,0,0,0,0,0,0,0,0,0,0,0,0,0,0,0,0,0,0,0,0,0,0,0,0,0,0,0,0,0,0,0,0,0,0,0,0,0,0,0,0,0,0,0,0,0,0,0,0,0,0,0,0,0,0,0,0,0,0,0,0,0,0,0,0,0,0,0,0,0,0,0,0,0,0,0,0,0,0,0,0,0,0,0,0,0,0,0,0,0,0,0,0,0,0,0,0,0,0,0,0,0,0,0,0,0,0,0,0,0,0,0,0,0,0,0,0,0,0,0,0,0,0,0,0,0,0,0,0,0,0,0,0,0,0,0,0,0,0,0,0,0,0,0,0,0,0,0,0,0,0,0,0,0,0,0,0,0,0,0,0,0,0,0,0,0,0,0,0,0,0,0,0,0,0,0,0,0,0,0,0,0,0,0,0,0,0,0,0,0,0,0,0,0,0,0,0,0,0,0,0,0,0,0,0,0,0,0,0,0,0,0,0,0,0,0,0,0,0,0,0,0,0,0,0,0,0,0,0,0,0,0,0,0,0,0,0,0,0,0,0,0,0,0,0,0,0,0,0,0,0,0,0,0,0,0,0,0,0,0,0,0,0,0,0,0,0,0,0,0,0,0,0,0,0,0,0,0,0,0,0,0,0,0,0,0,0,0,0,0,0,0,0,0,0,0,0,0,0,0,0,0,0,0,0,0,0,0,0,0,0,0,0,0,0,0,0,0,0,0,0,0,0,0,0,0,0,0,0,0,0,0,0,0,0,0,0,0,0,0,0,0,0,0,0,0,0,0,0,0,0,0,0,0,0]}]],[[{"header":{"parameterUnit":"kt","parameterCategory":2,"dx":1,"dy":1,"la1":29.764190673828125,"la2":30.86408042907715,"lo1":-88.46762084960938,"lo2":-86.9344482421875,"nx":47,"ny":34,"refTime":"2022-10-01T00:00:00:Z","depth":"25","parameterNumber":2,"parameterNumberName":"U-component_of_CURRENTS"},"data":[0.0059,0.0406,0.0726,0.0961,0.1062,0.1052,0.1073,0.1212,0.1356,0.1458,0.149,0.1484,0.149,0.1516,0.1548,0.1602,0.1698,0.1863,0.2146,0.2541,0.3001,0.3444,0.3695,0.3449,0.3187,0.3454,0.378,0.3764,0.3775,0.3865,0.4004,0.4287,0.4853,0.5553,0.6124,0.6797,0.7037,0.7181,0.7261,0.7437,0.8057,0.8932,0.9493,0.9712,0.9669,0.9653,0.9658,-0.0016,0.0176,0.0406,0.0582,0.071,0.0876,0.11,0.1319,0.149,0.1564,0.157,0.1554,0.1564,0.1602,0.1639,0.166,0.1687,0.1735,0.1831,0.2029,0.244,0.2766,0.275,0.2531,0.2392,0.252,0.3022,0.3246,0.3123,0.3054,0.3166,0.3481,0.4213,0.4896,0.5478,0.6236,0.6775,0.6893,0.6877,0.6994,0.7517,0.8382,0.9103,0.9301,0.9322,0.9434,0.953,0.0155,0.0246,0.0336,0.0454,0.0625,0.0854,0.1116,0.134,0.1484,0.1554,0.158,0.1602,0.1634,0.1687,0.1725,0.173,0.173,0.1725,0.1746,0.1815,0.1922,0.205,0.2125,0.212,0.2125,0.2216,0.2467,0.2899,0.3038,0.2846,0.2664,0.2643,0.2755,0.3401,0.4186,0.5115,0.6177,0.6642,0.6636,0.6599,0.6914,0.7683,0.8409,0.8756,0.8954,0.9167,0.9317,0.031,0.0384,0.0459,0.0561,0.0694,0.0886,0.1105,0.1303,0.1431,0.1511,0.1575,0.1644,0.1719,0.1778,0.1794,0.1773,0.1735,0.1687,0.1671,0.173,0.1826,0.1927,0.2018,0.2077,0.2136,0.2216,0.2285,0.2718,0.3284,0.3289,0.3262,0.2814,0.2162,0.212,0.276,0.3679,0.496,0.6087,0.6476,0.6348,0.6407,0.7032,0.7806,0.8462,0.8793,0.8996,0.9151,0.0374,0.0475,0.0561,0.0657,0.0785,0.0945,0.1111,0.1276,0.1393,0.1495,0.1596,0.1692,0.1778,0.1826,0.1815,0.1767,0.1692,0.1607,0.157,0.1602,0.1692,0.1815,0.1922,0.2013,0.2098,0.2189,0.2173,0.2173,0.2376,0.2664,0.3203,0.3994,0.433,0.3417,0.2872,0.2995,0.3705,0.5013,0.6022,0.6241,0.6097,0.6476,0.7218,0.7961,0.8505,0.8874,0.913,0.039,0.0497,0.0614,0.0737,0.0865,0.1004,0.1148,0.1276,0.1383,0.1479,0.1564,0.1639,0.1692,0.1735,0.1735,0.1682,0.1591,0.15,0.1458,0.1479,0.1554,0.166,0.1783,0.1901,0.2002,0.2093,0.2141,0.2018,0.1858,0.1949,0.2237,0.2702,0.3577,0.4693,0.4917,0.362,0.3657,0.4191,0.519,0.5921,0.6055,0.6012,0.6519,0.7427,0.8254,0.89,0.9167,0.0395,0.0497,0.0625,0.0763,0.0902,0.103,0.1153,0.1255,0.1351,0.1431,0.1479,0.1511,0,0,0,0,0,0.1361,0.1351,0.1388,0.1458,0.1527,0.1596,0.1703,0.1826,0.1943,0.2029,0.2034,0.1943,0.1869,0.1895,0.1975,0.2077,0.2317,0.3198,0.4351,0.3502,0.3465,0.4159,0.5168,0.5852,0.5953,0.599,0.6679,0.7774,0.8628,0.9071,0.039,0.0486,0.0614,0.0753,0.0892,0.102,0.1132,0,0,0,0,0,0,0,0,0,0,0,0,0,0,0,0,0.1591,0.1687,0.1762,0.1842,0.1933,0.1975,0.1938,0.1869,0.1826,0.1751,0.1607,0.1596,0.2509,0.4031,0.315,0.3193,0.3978,0.5029,0.5756,0.5996,0.6204,0.6957,0.8105,0.8868,0,0,0,0,0,0,0,0,0,0,0,0,0,0,0,0,0,0,0,0,0,0,0,0,0,0,0.1746,0.181,0.1879,0.1927,0.1922,0.1874,0.1794,0.166,0.141,0.1335,0.2573,0.3711,0.2819,0.2904,0.3951,0.4997,0.5873,0.638,0.6717,0.7325,0.8329,0,0,0,0,0,0,0,0,0,0,0,0,0,0,0,0,0,0,0,0,0,0,0,0,0,0,0,0,0,0.1826,0.1858,0.1874,0.1863,0.1789,0.1591,0.1164,0.1121,0.244,0.3417,0.3182,0.3006,0.3951,0.5179,0.6108,0.6701,0.7096,0.7747,0,0,0,0,0,0,0,0,0,0,0,0,0,0,0,0,0,0,0,0,0,0,0,0,0,0,0,0,0,0,0,0,0,0.1794,0.1762,0.1575,0.0961,0.0742,0.1895,0.2803,0.3113,0.3615,0.4132,0.4784,0.6295,0.6957,0.7256,0,0,0,0,0,0,0,0,0,0,0,0,0,0,0,0,0,0,0,0,0,0,0,0,0,0,0,0,0,0,0,0,0,0,0,0,0,0.0876,0.0475,0.102,0.1335,0.1532,0.2066,0.3508,0.4613,0.5937,0.7138,0,0,0,0,0,0,0,0,0,0,0,0,0,0,0,0,0,0,0,0,0,0,0,0,0,0,0,0,0,0,0,0,0,0,0,0,0,0,0.0774,0.0486,0.0641,0.0854,0.1025,0.1169,0.1975,0.3914,0.4811,0,0,0,0,0,0,0,0,0,0,0,0,0,0,0,0,0,0,0,0,0,0,0,0,0,0,0,0,0,0,0,0,0,0,0,0,0,0,0,0.0742,0.0694,0.0849,0.1025,0.0998,0.0513,0.0342,0.086,0,0,0,0,0,0,0,0,0,0,0,0,0,0,0,0,0,0,0,0,0,0,0,0,0,0,0,0,0,0,0,0,0,0,0,0,0,0,0,0,0,0,0,0,0.0662,0.0128,-0.0069,0,0,0,0,0,0,0,0,0,0,0,0,0,0,0,0,0,0,0,0,0,0,0,0,0,0,0,0,0,0,0,0,0,0,0,0,0,0,0,0,0,0,0,0,0,0,0,0,0,0,0,0,0,0,0,0,0,0,0,0,0,0,0,0,0,0,0,0,0,0,0,0,0,0,0,0,0,0,0,0,0,0,0,0,0,0,0,0,0,0,0,0,0,0,0,0,0,0,0,0,0,0,0,0,0,0,0,0,0,0,0,0,0,0,0,0,0,0,0,0,0,0,0,0,0,0,0,0,0,0,0,0,0,0,0,0,0,0,0,0,0,0,0,0,0,0,0,0,0,0,0,0,0,0,0,0,0,0,0,0,0,0,0,0,0,0,0,0,0,0,0,0,0,0,0,0,0,0,0,0,0,0,0,0,0,0,0,0,0,0,0,0,0,0,0,0,0,0,0,0,0,0,0,0,0,0,0,0,0,0,0,0,0,0,0,0,0,0,0,0,0,0,0,0,0,0,0,0,0,0,0,0,0,0,0,0,0,0,0,0,0,0,0,0,0,0,0,0,0,0,0,0,0,0,0,0,0,0,0,0,0,0,0,0,0,0,0,0,0,0,0,0,0,0,0,0,0,0,0,0,0,0,0,0,0,0,0,0,0,0,0,0,0,0,0,0,0,0,0,0,0,0,0,0,0,0,0,0,0,0,0,0,0,0,0,0,0,0,0,0,0,0,0,0,0,0,0,0,0,0,0,0,0,0,0,0,0,0,0,0,0,0,0,0,0,0,0,0,0,0,0,0,0,0,0,0,0,0,0,0,0,0,0,0,0,0,0,0,0,0,0,0,0,0,0,0,0,0,0,0,0,0,0,0,0,0,0,0,0,0,0,0,0,0,0,0,0,0,0,0,0,0,0,0,0,0,0,0,0,0,0,0,0,0,0,0,0,0,0,0,0,0,0,0,0,0,0,0,0,0,0,0,0,0,0,0,0,0,0,0,0,0,0,0,0,0,0,0,0,0,0,0,0,0,0,0,0,0,0,0,0,0,0,0,0,0,0,0,0,0,0,0,0,0,0,0,0,0,0,0,0,0,0,0,0,0,0,0,0,0,0,0,0,0,0,0,0,0,0,0,0,0,0,0,0,0,0,0,0,0,0,0,0,0,0,0,0,0,0,0,0,0,0,0,0,0,0,0,0,0,0,0,0,0,0,0,0,0,0,0,0,0,0,0,0,0,0,0,0,0,0,0,0,0,0,0,0,0,0,0,0,0,0,0,0,0,0,0,0,0,0,0,0,0,0,0,0,0,0,0,0,0,0,0,0,0,0,0,0,0,0,0,0,0,0,0,0,0,0,0,0,0,0,0,0,0,0,0,0,0,0,0,0,0,0,0,0,0,0,0,0,0,0,0,0,0,0,0,0,0,0,0,0,0,0,0,0,0,0,0,0,0,0,0,0,0,0,0,0,0,0,0,0,0,0,0,0,0,0,0,0,0,0,0,0,0,0,0,0,0,0,0,0,0,0,0,0,0,0,0,0,0,0,0,0,0,0,0,0,0,0,0,0,0,0,0,0,0,0,0,0,0,0,0,0,0,0,0,0,0,0,0,0,0,0,0,0,0,0,0,0,0,0,0,0,0,0,0,0,0,0,0,0,0,0,0,0,0,0,0,0,0,0,0,0,0,0,0,0,0,0,0,0,0,0,0,0,0,0,0,0,0,0,0,0,0,0,0,0,0,0,0,0,0,0,0,0,0,0,0,0,0,0,0,0,0,0,0,0,0,0,0,0,0,0,0,0,0,0,0,0,0,0,0,0,0,0,0,0,0,0,0,0,0,0,0,0,0,0,0,0,0,0,0,0,0,0,0,0,0,0,0,0,0,0,0,0,0,0,0,0,0,0,0,0,0,0,0,0,0,0,0,0,0,0,0,0,0,0,0,0,0,0,0,0,0,0,0,0,0,0,0,0,0,0,0,0,0,0,0,0,0,0,0,0,0,0,0,0,0,0,0,0]}],[{"header":{"parameterUnit":"kt","parameterCategory":2,"dx":1,"dy":1,"la1":29.764190673828125,"la2":30.86408042907715,"lo1":-88.46762084960938,"lo2":-86.9344482421875,"nx":47,"ny":34,"refTime":"2022-10-01T00:00:00:Z","depth":"25","parameterNumber":3,"parameterNumberName":"V-component_of_CURRENTS"},"data":[0.1612,0.1847,0.1815,0.1794,0.1869,0.1858,0.1676,0.1452,0.1223,0.0972,0.0737,0.0534,0.0427,0.0475,0.0603,0.0694,0.0758,0.0881,0.1132,0.1484,0.1703,0.1986,0.2232,0.2269,0.2333,0.2392,0.2109,0.2018,0.2013,0.2029,0.1943,0.1805,0.1516,0.1842,0.2322,0.2776,0.3107,0.3027,0.2728,0.2509,0.2611,0.3081,0.394,0.4757,0.5414,0.6033,0.6631,0.0977,0.1335,0.1559,0.1682,0.1783,0.1762,0.1623,0.142,0.1175,0.0945,0.0753,0.0571,0.0427,0.0363,0.04,0.0486,0.0598,0.0747,0.0961,0.1265,0.1484,0.1644,0.189,0.1965,0.1927,0.2056,0.228,0.1933,0.1741,0.165,0.1233,0.0924,0.1014,0.1319,0.2349,0.3209,0.3615,0.3641,0.3401,0.3187,0.3235,0.3588,0.4442,0.52,0.5804,0.6316,0.6754,0.0689,0.0918,0.1137,0.1345,0.1516,0.1564,0.1484,0.1292,0.1057,0.087,0.0715,0.0587,0.0481,0.04,0.0363,0.039,0.0475,0.0614,0.0763,0.0929,0.1116,0.1303,0.149,0.1634,0.1682,0.173,0.2056,0.2002,0.1554,0.1319,0.0785,0.0363,0.039,0.0817,0.1628,0.2899,0.3785,0.3956,0.3849,0.378,0.3721,0.3951,0.4592,0.535,0.5926,0.6332,0.6647,0.0555,0.071,0.086,0.1009,0.1148,0.1217,0.1175,0.1025,0.0844,0.0694,0.0603,0.0555,0.0529,0.0486,0.0432,0.04,0.0432,0.0523,0.0619,0.0715,0.0849,0.1052,0.1292,0.1511,0.1618,0.1618,0.1831,0.2328,0.2125,0.1837,0.1618,0.0982,0.0464,0.0854,0.1543,0.221,0.3107,0.3711,0.3882,0.4132,0.4175,0.4298,0.473,0.5467,0.5969,0.6279,0.6519,0.0491,0.0609,0.0689,0.0753,0.0806,0.0828,0.0796,0.0699,0.0587,0.0507,0.0497,0.055,0.0614,0.0603,0.0539,0.0464,0.0443,0.047,0.0518,0.0561,0.0646,0.0833,0.1111,0.1399,0.157,0.157,0.1623,0.22,0.2664,0.268,0.2702,0.2237,0.0961,0.0518,0.1815,0.2536,0.2894,0.3273,0.3599,0.3914,0.433,0.4383,0.4789,0.5446,0.598,0.6279,0.654,0.0427,0.0518,0.0561,0.0582,0.0593,0.0587,0.0566,0.0523,0.0475,0.0464,0.0518,0.0614,0.0689,0.0678,0.0614,0.0529,0.0481,0.0459,0.0454,0.0464,0.0518,0.0657,0.0902,0.1201,0.1426,0.1495,0.149,0.1762,0.2301,0.2557,0.2664,0.252,0.1789,0.0758,-0.0005,0.1842,0.3214,0.362,0.3684,0.3759,0.3994,0.4261,0.4437,0.5093,0.5841,0.6348,0.6551,0.039,0.0464,0.0507,0.0529,0.0534,0.0534,0.0534,0.0529,0.0534,0.0555,0.0609,0.0662,0,0,0,0,0,0.0464,0.0427,0.0422,0.0464,0.0561,0.0721,0.094,0.1153,0.1308,0.1372,0.1415,0.165,0.1901,0.2104,0.2194,0.2162,0.1821,0.1127,-0.0037,0.1452,0.3588,0.4261,0.4293,0.4031,0.4127,0.4234,0.4469,0.519,0.5857,0.606,0.0454,0.0502,0.0539,0.0561,0.0582,0.0587,0.0603,0,0,0,0,0,0,0,0,0,0,0,0,0,0,0,0,0.079,0.0934,0.1052,0.1164,0.1228,0.1249,0.1265,0.1361,0.1479,0.1612,0.1767,0.1858,0.158,0.0582,0.1757,0.4026,0.4634,0.4602,0.4309,0.4143,0.4106,0.4362,0.4949,0.5264,0,0,0,0,0,0,0,0,0,0,0,0,0,0,0,0,0,0,0,0,0,0,0,0,0,0,0.1014,0.1095,0.1116,0.1062,0.0972,0.0924,0.095,0.1105,0.1436,0.1874,0.1837,0.1153,0.2258,0.4122,0.48,0.4576,0.4271,0.4026,0.3951,0.4015,0.4271,0,0,0,0,0,0,0,0,0,0,0,0,0,0,0,0,0,0,0,0,0,0,0,0,0,0,0,0,0,0.1014,0.0902,0.078,0.0683,0.0635,0.0769,0.1223,0.1943,0.1954,0.1479,0.1741,0.2915,0.3951,0.4255,0.4127,0.3887,0.3737,0.3583,0,0,0,0,0,0,0,0,0,0,0,0,0,0,0,0,0,0,0,0,0,0,0,0,0,0,0,0,0,0,0,0,0,0.0555,0.0518,0.0646,0.1244,0.1997,0.2024,0.1596,0.1399,0.1458,0.1751,0.3129,0.4218,0.4052,0.3492,0,0,0,0,0,0,0,0,0,0,0,0,0,0,0,0,0,0,0,0,0,0,0,0,0,0,0,0,0,0,0,0,0,0,0,0,0,0.1516,0.2088,0.2125,0.1869,0.1618,0.1377,0.1217,0.1559,0.4084,0.3962,0,0,0,0,0,0,0,0,0,0,0,0,0,0,0,0,0,0,0,0,0,0,0,0,0,0,0,0,0,0,0,0,0,0,0,0,0,0,0.1901,0.2178,0.2104,0.1927,0.1746,0.1596,0.1308,0.1111,0.2173,0,0,0,0,0,0,0,0,0,0,0,0,0,0,0,0,0,0,0,0,0,0,0,0,0,0,0,0,0,0,0,0,0,0,0,0,0,0,0,0.2018,0.2146,0.2093,0.197,0.1869,0.1794,0.1377,0.086,0,0,0,0,0,0,0,0,0,0,0,0,0,0,0,0,0,0,0,0,0,0,0,0,0,0,0,0,0,0,0,0,0,0,0,0,0,0,0,0,0,0,0,0,0.1917,0.189,0.1575,0,0,0,0,0,0,0,0,0,0,0,0,0,0,0,0,0,0,0,0,0,0,0,0,0,0,0,0,0,0,0,0,0,0,0,0,0,0,0,0,0,0,0,0,0,0,0,0,0,0,0,0,0,0,0,0,0,0,0,0,0,0,0,0,0,0,0,0,0,0,0,0,0,0,0,0,0,0,0,0,0,0,0,0,0,0,0,0,0,0,0,0,0,0,0,0,0,0,0,0,0,0,0,0,0,0,0,0,0,0,0,0,0,0,0,0,0,0,0,0,0,0,0,0,0,0,0,0,0,0,0,0,0,0,0,0,0,0,0,0,0,0,0,0,0,0,0,0,0,0,0,0,0,0,0,0,0,0,0,0,0,0,0,0,0,0,0,0,0,0,0,0,0,0,0,0,0,0,0,0,0,0,0,0,0,0,0,0,0,0,0,0,0,0,0,0,0,0,0,0,0,0,0,0,0,0,0,0,0,0,0,0,0,0,0,0,0,0,0,0,0,0,0,0,0,0,0,0,0,0,0,0,0,0,0,0,0,0,0,0,0,0,0,0,0,0,0,0,0,0,0,0,0,0,0,0,0,0,0,0,0,0,0,0,0,0,0,0,0,0,0,0,0,0,0,0,0,0,0,0,0,0,0,0,0,0,0,0,0,0,0,0,0,0,0,0,0,0,0,0,0,0,0,0,0,0,0,0,0,0,0,0,0,0,0,0,0,0,0,0,0,0,0,0,0,0,0,0,0,0,0,0,0,0,0,0,0,0,0,0,0,0,0,0,0,0,0,0,0,0,0,0,0,0,0,0,0,0,0,0,0,0,0,0,0,0,0,0,0,0,0,0,0,0,0,0,0,0,0,0,0,0,0,0,0,0,0,0,0,0,0,0,0,0,0,0,0,0,0,0,0,0,0,0,0,0,0,0,0,0,0,0,0,0,0,0,0,0,0,0,0,0,0,0,0,0,0,0,0,0,0,0,0,0,0,0,0,0,0,0,0,0,0,0,0,0,0,0,0,0,0,0,0,0,0,0,0,0,0,0,0,0,0,0,0,0,0,0,0,0,0,0,0,0,0,0,0,0,0,0,0,0,0,0,0,0,0,0,0,0,0,0,0,0,0,0,0,0,0,0,0,0,0,0,0,0,0,0,0,0,0,0,0,0,0,0,0,0,0,0,0,0,0,0,0,0,0,0,0,0,0,0,0,0,0,0,0,0,0,0,0,0,0,0,0,0,0,0,0,0,0,0,0,0,0,0,0,0,0,0,0,0,0,0,0,0,0,0,0,0,0,0,0,0,0,0,0,0,0,0,0,0,0,0,0,0,0,0,0,0,0,0,0,0,0,0,0,0,0,0,0,0,0,0,0,0,0,0,0,0,0,0,0,0,0,0,0,0,0,0,0,0,0,0,0,0,0,0,0,0,0,0,0,0,0,0,0,0,0,0,0,0,0,0,0,0,0,0,0,0,0,0,0,0,0,0,0,0,0,0,0,0,0,0,0,0,0,0,0,0,0,0,0,0,0,0,0,0,0,0,0,0,0,0,0,0,0,0,0,0,0,0,0,0,0,0,0,0,0,0,0,0,0,0,0,0,0,0,0,0,0,0,0,0,0,0,0,0,0,0,0,0,0,0,0,0,0,0,0,0,0,0,0,0,0,0,0,0,0,0,0,0,0,0,0,0,0,0,0,0,0,0,0,0,0,0,0,0,0,0,0,0,0,0,0,0,0,0,0,0,0,0,0,0,0,0,0,0,0,0,0,0,0,0,0,0,0,0,0,0,0,0,0,0,0,0,0,0,0,0,0,0,0,0,0,0,0,0,0,0,0,0,0,0,0,0,0,0,0,0,0,0,0,0,0,0,0,0,0,0,0,0,0,0,0,0,0,0,0,0,0,0,0,0,0,0,0,0,0,0,0,0,0,0,0,0,0,0,0,0,0,0,0,0,0,0,0,0,0,0,0,0,0,0,0,0,0,0,0,0,0,0,0,0,0,0,0,0,0,0,0,0,0]}]]]